<?xml version="1.0" encoding="UTF-8" standalone="no" ?>
<gpx xmlns="http://www.topografix.com/GPX/1/1" xmlns:xsi="http://www.w3.org/2001/XMLSchema-instance" xsi:schemaLocation="http://www.topografix.com/GPX/1/1 http://www.topografix.com/GPX/1/1/gpx.xsd" version="1.1" creator="VisuGPX - https://www.visugpx.com">
  <metadata>
    <name>Condat sauxillanges</name>
    <desc><![CDATA[beau parcours vers condat ]]></desc>
  </metadata>
  <trk>
    <name><![CDATA[Condat sauxillanges]]></name>
    <trkseg>
      <trkpt lat="45.86128" lon="3.29297">
        <ele>318.59716796875</ele>
        <time>2020-06-20T09:51:02.000Z</time>
      </trkpt>
      <trkpt lat="45.86137" lon="3.29306">
        <ele>318.49227905273</ele>
        <time>2020-06-20T09:51:02.002Z</time>
      </trkpt>
      <trkpt lat="45.86352" lon="3.29552">
        <ele>314.9794921875</ele>
        <time>2020-06-20T09:51:02.048Z</time>
      </trkpt>
      <trkpt lat="45.86293" lon="3.29936">
        <ele>315.92095947266</ele>
        <time>2020-06-20T09:51:02.138Z</time>
      </trkpt>
      <trkpt lat="45.86274" lon="3.30082">
        <ele>316</ele>
        <time>2020-06-20T09:51:02.244Z</time>
      </trkpt>
      <trkpt lat="45.86205" lon="3.3006">
        <ele>316</ele>
        <time>2020-06-20T09:51:02.362Z</time>
      </trkpt>
      <trkpt lat="45.86191" lon="3.30127">
        <ele>314.87469482422</ele>
        <time>2020-06-20T09:51:02.488Z</time>
      </trkpt>
      <trkpt lat="45.86257" lon="3.30163">
        <ele>315.20718383789</ele>
        <time>2020-06-20T09:51:02.625Z</time>
      </trkpt>
      <trkpt lat="45.86261" lon="3.30165">
        <ele>315.18145751953</ele>
        <time>2020-06-20T09:51:02.763Z</time>
      </trkpt>
      <trkpt lat="45.8623" lon="3.30301">
        <ele>308.44940185547</ele>
        <time>2020-06-20T09:51:02.917Z</time>
      </trkpt>
      <trkpt lat="45.8623" lon="3.30301">
        <ele>308.44921875</ele>
        <time>2020-06-20T09:51:03.071Z</time>
      </trkpt>
      <trkpt lat="45.86218" lon="3.30374">
        <ele>302.48443603516</ele>
        <time>2020-06-20T09:51:03.233Z</time>
      </trkpt>
      <trkpt lat="45.8622" lon="3.30398">
        <ele>300.16717529297</ele>
        <time>2020-06-20T09:51:03.398Z</time>
      </trkpt>
      <trkpt lat="45.8622" lon="3.30398">
        <ele>300.16738891602</ele>
        <time>2020-06-20T09:51:03.563Z</time>
      </trkpt>
      <trkpt lat="45.86213" lon="3.30494">
        <ele>295.45919799805</ele>
        <time>2020-06-20T09:51:03.738Z</time>
      </trkpt>
      <trkpt lat="45.86197" lon="3.30588">
        <ele>293.21939086914</ele>
        <time>2020-06-20T09:51:03.924Z</time>
      </trkpt>
      <trkpt lat="45.86197" lon="3.30588">
        <ele>293.21939086914</ele>
        <time>2020-06-20T09:51:04.110Z</time>
      </trkpt>
      <trkpt lat="45.8615" lon="3.30816">
        <ele>294.36773681641</ele>
        <time>2020-06-20T09:51:04.323Z</time>
      </trkpt>
      <trkpt lat="45.86141" lon="3.30863">
        <ele>294.75244140625</ele>
        <time>2020-06-20T09:51:04.541Z</time>
      </trkpt>
      <trkpt lat="45.86127" lon="3.30933">
        <ele>294.45327758789</ele>
        <time>2020-06-20T09:51:04.767Z</time>
      </trkpt>
      <trkpt lat="45.8588" lon="3.30955">
        <ele>294.41464233398</ele>
        <time>2020-06-20T09:51:05.033Z</time>
      </trkpt>
      <trkpt lat="45.85751" lon="3.31022">
        <ele>292.34353637695</ele>
        <time>2020-06-20T09:51:05.321Z</time>
      </trkpt>
      <trkpt lat="45.85593" lon="3.3099">
        <ele>294.68124389648</ele>
        <time>2020-06-20T09:51:05.635Z</time>
      </trkpt>
      <trkpt lat="45.85519" lon="3.30951">
        <ele>294.60858154297</ele>
        <time>2020-06-20T09:51:05.961Z</time>
      </trkpt>
      <trkpt lat="45.85499" lon="3.30947">
        <ele>294.04217529297</ele>
        <time>2020-06-20T09:51:06.290Z</time>
      </trkpt>
      <trkpt lat="45.8546" lon="3.30958">
        <ele>293.33129882812</ele>
        <time>2020-06-20T09:51:06.626Z</time>
      </trkpt>
      <trkpt lat="45.8546" lon="3.30958">
        <ele>293.33129882812</ele>
        <time>2020-06-20T09:51:06.962Z</time>
      </trkpt>
      <trkpt lat="45.85434" lon="3.30981">
        <ele>293.61450195312</ele>
        <time>2020-06-20T09:51:07.303Z</time>
      </trkpt>
      <trkpt lat="45.85369" lon="3.31068">
        <ele>294</ele>
        <time>2020-06-20T09:51:07.658Z</time>
      </trkpt>
      <trkpt lat="45.85308" lon="3.31217">
        <ele>294.55355834961</ele>
        <time>2020-06-20T09:51:08.032Z</time>
      </trkpt>
      <trkpt lat="45.85206" lon="3.31471">
        <ele>293.80435180664</ele>
        <time>2020-06-20T09:51:08.439Z</time>
      </trkpt>
      <trkpt lat="45.85191" lon="3.31494">
        <ele>293.61566162109</ele>
        <time>2020-06-20T09:51:08.850Z</time>
      </trkpt>
      <trkpt lat="45.85191" lon="3.31494">
        <ele>293.61578369141</ele>
        <time>2020-06-20T09:51:09.261Z</time>
      </trkpt>
      <trkpt lat="45.85191" lon="3.31494">
        <ele>293.61587524414</ele>
        <time>2020-06-20T09:51:09.672Z</time>
      </trkpt>
      <trkpt lat="45.85104" lon="3.31625">
        <ele>293.59329223633</ele>
        <time>2020-06-20T09:51:10.103Z</time>
      </trkpt>
      <trkpt lat="45.8505" lon="3.31713">
        <ele>295.46853637695</ele>
        <time>2020-06-20T09:51:10.547Z</time>
      </trkpt>
      <trkpt lat="45.85035" lon="3.31782">
        <ele>296.65203857422</ele>
        <time>2020-06-20T09:51:10.999Z</time>
      </trkpt>
      <trkpt lat="45.85016" lon="3.31854">
        <ele>298.45083618164</ele>
        <time>2020-06-20T09:51:11.459Z</time>
      </trkpt>
      <trkpt lat="45.84996" lon="3.31889">
        <ele>300.97863769531</ele>
        <time>2020-06-20T09:51:11.925Z</time>
      </trkpt>
      <trkpt lat="45.84954" lon="3.31906">
        <ele>303.17425537109</ele>
        <time>2020-06-20T09:51:12.398Z</time>
      </trkpt>
      <trkpt lat="45.84895" lon="3.31902">
        <ele>301.41513061523</ele>
        <time>2020-06-20T09:51:12.880Z</time>
      </trkpt>
      <trkpt lat="45.84858" lon="3.31894">
        <ele>303.96450805664</ele>
        <time>2020-06-20T09:51:13.368Z</time>
      </trkpt>
      <trkpt lat="45.84807" lon="3.31862">
        <ele>305.48519897461</ele>
        <time>2020-06-20T09:51:13.865Z</time>
      </trkpt>
      <trkpt lat="45.84787" lon="3.31859">
        <ele>307.26281738281</ele>
        <time>2020-06-20T09:51:14.365Z</time>
      </trkpt>
      <trkpt lat="45.84773" lon="3.31872">
        <ele>309.06497192383</ele>
        <time>2020-06-20T09:51:14.868Z</time>
      </trkpt>
      <trkpt lat="45.84751" lon="3.31961">
        <ele>308.36703491211</ele>
        <time>2020-06-20T09:51:15.381Z</time>
      </trkpt>
      <trkpt lat="45.84746" lon="3.31962">
        <ele>308.37991333008</ele>
        <time>2020-06-20T09:51:15.895Z</time>
      </trkpt>
      <trkpt lat="45.84606" lon="3.31991">
        <ele>311.93109130859</ele>
        <time>2020-06-20T09:51:16.432Z</time>
      </trkpt>
      <trkpt lat="45.84339" lon="3.31975">
        <ele>325.39932250977</ele>
        <time>2020-06-20T09:51:17.012Z</time>
      </trkpt>
      <trkpt lat="45.84244" lon="3.31959">
        <ele>327.02389526367</ele>
        <time>2020-06-20T09:51:17.607Z</time>
      </trkpt>
      <trkpt lat="45.84065" lon="3.31948">
        <ele>328.67929077148</ele>
        <time>2020-06-20T09:51:18.231Z</time>
      </trkpt>
      <trkpt lat="45.83979" lon="3.31933">
        <ele>328.0458984375</ele>
        <time>2020-06-20T09:51:18.869Z</time>
      </trkpt>
      <trkpt lat="45.83979" lon="3.31933">
        <ele>328.04598999023</ele>
        <time>2020-06-20T09:51:19.507Z</time>
      </trkpt>
      <trkpt lat="45.8392" lon="3.31913">
        <ele>329.25946044922</ele>
        <time>2020-06-20T09:51:20.154Z</time>
      </trkpt>
      <trkpt lat="45.83906" lon="3.319">
        <ele>329.59414672852</ele>
        <time>2020-06-20T09:51:20.804Z</time>
      </trkpt>
      <trkpt lat="45.83897" lon="3.31896">
        <ele>329.79992675781</ele>
        <time>2020-06-20T09:51:21.455Z</time>
      </trkpt>
      <trkpt lat="45.83823" lon="3.31869">
        <ele>331.52825927734</ele>
        <time>2020-06-20T09:51:22.119Z</time>
      </trkpt>
      <trkpt lat="45.83748" lon="3.31867">
        <ele>332.45495605469</ele>
        <time>2020-06-20T09:51:22.795Z</time>
      </trkpt>
      <trkpt lat="45.83748" lon="3.31867">
        <ele>332.45504760742</ele>
        <time>2020-06-20T09:51:23.471Z</time>
      </trkpt>
      <trkpt lat="45.83614" lon="3.31862">
        <ele>333.63442993164</ele>
        <time>2020-06-20T09:51:24.168Z</time>
      </trkpt>
      <trkpt lat="45.83491" lon="3.31913">
        <ele>332.21221923828</ele>
        <time>2020-06-20T09:51:24.886Z</time>
      </trkpt>
      <trkpt lat="45.83436" lon="3.31941">
        <ele>331.87753295898</ele>
        <time>2020-06-20T09:51:25.613Z</time>
      </trkpt>
      <trkpt lat="45.83359" lon="3.31955">
        <ele>331.71017456055</ele>
        <time>2020-06-20T09:51:26.352Z</time>
      </trkpt>
      <trkpt lat="45.83338" lon="3.3196">
        <ele>331.64581298828</ele>
        <time>2020-06-20T09:51:27.095Z</time>
      </trkpt>
      <trkpt lat="45.83305" lon="3.31986">
        <ele>330.00509643555</ele>
        <time>2020-06-20T09:51:27.844Z</time>
      </trkpt>
      <trkpt lat="45.83261" lon="3.3202">
        <ele>328.5498046875</ele>
        <time>2020-06-20T09:51:28.601Z</time>
      </trkpt>
      <trkpt lat="45.83213" lon="3.32085">
        <ele>321.77993774414</ele>
        <time>2020-06-20T09:51:29.368Z</time>
      </trkpt>
      <trkpt lat="45.83169" lon="3.32198">
        <ele>316.85720825195</ele>
        <time>2020-06-20T09:51:30.150Z</time>
      </trkpt>
      <trkpt lat="45.83135" lon="3.32254">
        <ele>315.35632324219</ele>
        <time>2020-06-20T09:51:30.940Z</time>
      </trkpt>
      <trkpt lat="45.83135" lon="3.32254">
        <ele>315.35632324219</ele>
        <time>2020-06-20T09:51:31.730Z</time>
      </trkpt>
      <trkpt lat="45.83094" lon="3.32289">
        <ele>315.54144287109</ele>
        <time>2020-06-20T09:51:32.528Z</time>
      </trkpt>
      <trkpt lat="45.83082" lon="3.32326">
        <ele>314.82949829102</ele>
        <time>2020-06-20T09:51:33.330Z</time>
      </trkpt>
      <trkpt lat="45.83082" lon="3.32453">
        <ele>312.44900512695</ele>
        <time>2020-06-20T09:51:34.147Z</time>
      </trkpt>
      <trkpt lat="45.83014" lon="3.32655">
        <ele>313.30447387695</ele>
        <time>2020-06-20T09:51:34.989Z</time>
      </trkpt>
      <trkpt lat="45.8296" lon="3.32746">
        <ele>314.24145507812</ele>
        <time>2020-06-20T09:51:35.844Z</time>
      </trkpt>
      <trkpt lat="45.82831" lon="3.32829">
        <ele>313.69519042969</ele>
        <time>2020-06-20T09:51:36.722Z</time>
      </trkpt>
      <trkpt lat="45.82831" lon="3.32829">
        <ele>313.69528198242</ele>
        <time>2020-06-20T09:51:37.600Z</time>
      </trkpt>
      <trkpt lat="45.82816" lon="3.32849">
        <ele>314.00259399414</ele>
        <time>2020-06-20T09:51:38.481Z</time>
      </trkpt>
      <trkpt lat="45.82809" lon="3.32895">
        <ele>315.78414916992</ele>
        <time>2020-06-20T09:51:39.367Z</time>
      </trkpt>
      <trkpt lat="45.82803" lon="3.32937">
        <ele>317.01214599609</ele>
        <time>2020-06-20T09:51:40.258Z</time>
      </trkpt>
      <trkpt lat="45.82778" lon="3.32976">
        <ele>316.45861816406</ele>
        <time>2020-06-20T09:51:41.155Z</time>
      </trkpt>
      <trkpt lat="45.82769" lon="3.33016">
        <ele>317.27420043945</ele>
        <time>2020-06-20T09:51:42.057Z</time>
      </trkpt>
      <trkpt lat="45.82766" lon="3.3303">
        <ele>317.45440673828</ele>
        <time>2020-06-20T09:51:42.960Z</time>
      </trkpt>
      <trkpt lat="45.8275" lon="3.33091">
        <ele>318.20062255859</ele>
        <time>2020-06-20T09:51:43.870Z</time>
      </trkpt>
      <trkpt lat="45.82732" lon="3.33125">
        <ele>318.57574462891</ele>
        <time>2020-06-20T09:51:44.785Z</time>
      </trkpt>
      <trkpt lat="45.82703" lon="3.33155">
        <ele>319.32235717773</ele>
        <time>2020-06-20T09:51:45.706Z</time>
      </trkpt>
      <trkpt lat="45.82702" lon="3.33156">
        <ele>319.34811401367</ele>
        <time>2020-06-20T09:51:46.627Z</time>
      </trkpt>
      <trkpt lat="45.82686" lon="3.33183">
        <ele>320.10528564453</ele>
        <time>2020-06-20T09:51:47.552Z</time>
      </trkpt>
      <trkpt lat="45.827" lon="3.33241">
        <ele>319.74465942383</ele>
        <time>2020-06-20T09:51:48.484Z</time>
      </trkpt>
      <trkpt lat="45.82689" lon="3.33253">
        <ele>319.86547851562</ele>
        <time>2020-06-20T09:51:49.418Z</time>
      </trkpt>
      <trkpt lat="45.8239" lon="3.3337">
        <ele>313.05654907227</ele>
        <time>2020-06-20T09:51:50.402Z</time>
      </trkpt>
      <trkpt lat="45.82384" lon="3.33372">
        <ele>312.93688964844</ele>
        <time>2020-06-20T09:51:51.387Z</time>
      </trkpt>
      <trkpt lat="45.82384" lon="3.33372">
        <ele>312.93701171875</ele>
        <time>2020-06-20T09:51:52.372Z</time>
      </trkpt>
      <trkpt lat="45.82295" lon="3.33405">
        <ele>312.13150024414</ele>
        <time>2020-06-20T09:51:53.372Z</time>
      </trkpt>
      <trkpt lat="45.82149" lon="3.33463">
        <ele>313.34097290039</ele>
        <time>2020-06-20T09:51:54.396Z</time>
      </trkpt>
      <trkpt lat="45.81468" lon="3.33728">
        <ele>315.38870239258</ele>
        <time>2020-06-20T09:51:55.533Z</time>
      </trkpt>
      <trkpt lat="45.81453" lon="3.33741">
        <ele>315.05413818359</ele>
        <time>2020-06-20T09:51:56.673Z</time>
      </trkpt>
      <trkpt lat="45.8145" lon="3.33743">
        <ele>315</ele>
        <time>2020-06-20T09:51:57.813Z</time>
      </trkpt>
      <trkpt lat="45.81437" lon="3.33752">
        <ele>315</ele>
        <time>2020-06-20T09:51:58.955Z</time>
      </trkpt>
      <trkpt lat="45.8143" lon="3.3373">
        <ele>315</ele>
        <time>2020-06-20T09:52:00.100Z</time>
      </trkpt>
      <trkpt lat="45.81395" lon="3.33746">
        <ele>315</ele>
        <time>2020-06-20T09:52:01.251Z</time>
      </trkpt>
      <trkpt lat="45.81278" lon="3.33772">
        <ele>315.57571411133</ele>
        <time>2020-06-20T09:52:02.421Z</time>
      </trkpt>
      <trkpt lat="45.81278" lon="3.33772">
        <ele>315.57415771484</ele>
        <time>2020-06-20T09:52:03.591Z</time>
      </trkpt>
      <trkpt lat="45.81278" lon="3.33772">
        <ele>315.57406616211</ele>
        <time>2020-06-20T09:52:04.761Z</time>
      </trkpt>
      <trkpt lat="45.81129" lon="3.33805">
        <ele>315.60580444336</ele>
        <time>2020-06-20T09:52:05.955Z</time>
      </trkpt>
      <trkpt lat="45.81129" lon="3.33805">
        <ele>315.60571289062</ele>
        <time>2020-06-20T09:52:07.149Z</time>
      </trkpt>
      <trkpt lat="45.80754" lon="3.33881">
        <ele>315.64126586914</ele>
        <time>2020-06-20T09:52:08.404Z</time>
      </trkpt>
      <trkpt lat="45.80694" lon="3.33893">
        <ele>316.88757324219</ele>
        <time>2020-06-20T09:52:09.668Z</time>
      </trkpt>
      <trkpt lat="45.80602" lon="3.33905">
        <ele>317.44415283203</ele>
        <time>2020-06-20T09:52:10.947Z</time>
      </trkpt>
      <trkpt lat="45.80539" lon="3.33903">
        <ele>318.38150024414</ele>
        <time>2020-06-20T09:52:12.236Z</time>
      </trkpt>
      <trkpt lat="45.80523" lon="3.33906">
        <ele>318.76766967773</ele>
        <time>2020-06-20T09:52:13.528Z</time>
      </trkpt>
      <trkpt lat="45.80485" lon="3.33905">
        <ele>319.69448852539</ele>
        <time>2020-06-20T09:52:14.826Z</time>
      </trkpt>
      <trkpt lat="45.80433" lon="3.33936">
        <ele>320</ele>
        <time>2020-06-20T09:52:16.133Z</time>
      </trkpt>
      <trkpt lat="45.80427" lon="3.33937">
        <ele>320</ele>
        <time>2020-06-20T09:52:17.441Z</time>
      </trkpt>
      <trkpt lat="45.80402" lon="3.33936">
        <ele>320</ele>
        <time>2020-06-20T09:52:18.753Z</time>
      </trkpt>
      <trkpt lat="45.80379" lon="3.33924">
        <ele>319.89126586914</ele>
        <time>2020-06-20T09:52:20.069Z</time>
      </trkpt>
      <trkpt lat="45.80339" lon="3.33898">
        <ele>319.40209960938</ele>
        <time>2020-06-20T09:52:21.392Z</time>
      </trkpt>
      <trkpt lat="45.80333" lon="3.33894">
        <ele>319.33764648438</ele>
        <time>2020-06-20T09:52:22.716Z</time>
      </trkpt>
      <trkpt lat="45.80333" lon="3.33894">
        <ele>319.33773803711</ele>
        <time>2020-06-20T09:52:24.040Z</time>
      </trkpt>
      <trkpt lat="45.80289" lon="3.33898">
        <ele>318.80987548828</ele>
        <time>2020-06-20T09:52:25.371Z</time>
      </trkpt>
      <trkpt lat="45.8023" lon="3.33881">
        <ele>318.10186767578</ele>
        <time>2020-06-20T09:52:26.711Z</time>
      </trkpt>
      <trkpt lat="45.80169" lon="3.33847">
        <ele>318.00634765625</ele>
        <time>2020-06-20T09:52:28.062Z</time>
      </trkpt>
      <trkpt lat="45.80132" lon="3.33845">
        <ele>318.02893066406</ele>
        <time>2020-06-20T09:52:29.419Z</time>
      </trkpt>
      <trkpt lat="45.80041" lon="3.33875">
        <ele>318.16366577148</ele>
        <time>2020-06-20T09:52:30.791Z</time>
      </trkpt>
      <trkpt lat="45.79979" lon="3.33925">
        <ele>318.91027832031</ele>
        <time>2020-06-20T09:52:32.174Z</time>
      </trkpt>
      <trkpt lat="45.79956" lon="3.33954">
        <ele>318.23837280273</ele>
        <time>2020-06-20T09:52:33.562Z</time>
      </trkpt>
      <trkpt lat="45.79956" lon="3.33954">
        <ele>318.23849487305</ele>
        <time>2020-06-20T09:52:34.950Z</time>
      </trkpt>
      <trkpt lat="45.79868" lon="3.34052">
        <ele>318.2490234375</ele>
        <time>2020-06-20T09:52:36.356Z</time>
      </trkpt>
      <trkpt lat="45.79787" lon="3.34178">
        <ele>316.82409667969</ele>
        <time>2020-06-20T09:52:37.781Z</time>
      </trkpt>
      <trkpt lat="45.79756" lon="3.34237">
        <ele>316.92669677734</ele>
        <time>2020-06-20T09:52:39.214Z</time>
      </trkpt>
      <trkpt lat="45.79742" lon="3.34245">
        <ele>317.30010986328</ele>
        <time>2020-06-20T09:52:40.650Z</time>
      </trkpt>
      <trkpt lat="45.79584" lon="3.34202">
        <ele>317.25759887695</ele>
        <time>2020-06-20T09:52:42.112Z</time>
      </trkpt>
      <trkpt lat="45.79547" lon="3.34205">
        <ele>317.09786987305</ele>
        <time>2020-06-20T09:52:43.580Z</time>
      </trkpt>
      <trkpt lat="45.79455" lon="3.34243">
        <ele>317.7951965332</ele>
        <time>2020-06-20T09:52:45.063Z</time>
      </trkpt>
      <trkpt lat="45.79397" lon="3.34277">
        <ele>318</ele>
        <time>2020-06-20T09:52:46.556Z</time>
      </trkpt>
      <trkpt lat="45.79311" lon="3.34288">
        <ele>318.92980957031</ele>
        <time>2020-06-20T09:52:48.063Z</time>
      </trkpt>
      <trkpt lat="45.79282" lon="3.34304">
        <ele>319</ele>
        <time>2020-06-20T09:52:49.575Z</time>
      </trkpt>
      <trkpt lat="45.79224" lon="3.34379">
        <ele>318.64605712891</ele>
        <time>2020-06-20T09:52:51.099Z</time>
      </trkpt>
      <trkpt lat="45.79194" lon="3.34418">
        <ele>318.02276611328</ele>
        <time>2020-06-20T09:52:52.630Z</time>
      </trkpt>
      <trkpt lat="45.79096" lon="3.34536">
        <ele>319.73904418945</ele>
        <time>2020-06-20T09:52:54.181Z</time>
      </trkpt>
      <trkpt lat="45.78983" lon="3.34583">
        <ele>319.34533691406</ele>
        <time>2020-06-20T09:52:55.751Z</time>
      </trkpt>
      <trkpt lat="45.78983" lon="3.34583">
        <ele>319.34533691406</ele>
        <time>2020-06-20T09:52:57.321Z</time>
      </trkpt>
      <trkpt lat="45.78903" lon="3.34613">
        <ele>319.83047485352</ele>
        <time>2020-06-20T09:52:58.904Z</time>
      </trkpt>
      <trkpt lat="45.78854" lon="3.34613">
        <ele>320.60125732422</ele>
        <time>2020-06-20T09:53:00.495Z</time>
      </trkpt>
      <trkpt lat="45.78609" lon="3.3466">
        <ele>320.1025390625</ele>
        <time>2020-06-20T09:53:02.126Z</time>
      </trkpt>
      <trkpt lat="45.78588" lon="3.34672">
        <ele>320.50158691406</ele>
        <time>2020-06-20T09:53:03.760Z</time>
      </trkpt>
      <trkpt lat="45.78574" lon="3.34693">
        <ele>320.63287353516</ele>
        <time>2020-06-20T09:53:05.398Z</time>
      </trkpt>
      <trkpt lat="45.78493" lon="3.3493">
        <ele>321</ele>
        <time>2020-06-20T09:53:07.065Z</time>
      </trkpt>
      <trkpt lat="45.78458" lon="3.34986">
        <ele>320.83657836914</ele>
        <time>2020-06-20T09:53:08.741Z</time>
      </trkpt>
      <trkpt lat="45.78435" lon="3.35004">
        <ele>321.18041992188</ele>
        <time>2020-06-20T09:53:10.421Z</time>
      </trkpt>
      <trkpt lat="45.7839" lon="3.35018">
        <ele>322.01507568359</ele>
        <time>2020-06-20T09:53:12.108Z</time>
      </trkpt>
      <trkpt lat="45.78153" lon="3.35046">
        <ele>326.22207641602</ele>
        <time>2020-06-20T09:53:13.833Z</time>
      </trkpt>
      <trkpt lat="45.78092" lon="3.35061">
        <ele>329.87844848633</ele>
        <time>2020-06-20T09:53:15.568Z</time>
      </trkpt>
      <trkpt lat="45.78014" lon="3.35098">
        <ele>333.97891235352</ele>
        <time>2020-06-20T09:53:17.316Z</time>
      </trkpt>
      <trkpt lat="45.78014" lon="3.35098">
        <ele>333.97912597656</ele>
        <time>2020-06-20T09:53:19.064Z</time>
      </trkpt>
      <trkpt lat="45.7801" lon="3.35236">
        <ele>338.18737792969</ele>
        <time>2020-06-20T09:53:20.828Z</time>
      </trkpt>
      <trkpt lat="45.77986" lon="3.35402">
        <ele>341.26123046875</ele>
        <time>2020-06-20T09:53:22.611Z</time>
      </trkpt>
      <trkpt lat="45.77986" lon="3.35402">
        <ele>341.26184082031</ele>
        <time>2020-06-20T09:53:24.394Z</time>
      </trkpt>
      <trkpt lat="45.77919" lon="3.35805">
        <ele>339.76171875</ele>
        <time>2020-06-20T09:53:26.223Z</time>
      </trkpt>
      <trkpt lat="45.77907" lon="3.35834">
        <ele>339.69735717773</ele>
        <time>2020-06-20T09:53:28.056Z</time>
      </trkpt>
      <trkpt lat="45.77903" lon="3.35838">
        <ele>339.74865722656</ele>
        <time>2020-06-20T09:53:29.890Z</time>
      </trkpt>
      <trkpt lat="45.779" lon="3.35858">
        <ele>339.59417724609</ele>
        <time>2020-06-20T09:53:31.726Z</time>
      </trkpt>
      <trkpt lat="45.77904" lon="3.35866">
        <ele>339.41683959961</ele>
        <time>2020-06-20T09:53:33.563Z</time>
      </trkpt>
      <trkpt lat="45.77901" lon="3.35907">
        <ele>339.53268432617</ele>
        <time>2020-06-20T09:53:35.405Z</time>
      </trkpt>
      <trkpt lat="45.77891" lon="3.35954">
        <ele>339.68173217773</ele>
        <time>2020-06-20T09:53:37.252Z</time>
      </trkpt>
      <trkpt lat="45.77867" lon="3.36022">
        <ele>338.91070556641</ele>
        <time>2020-06-20T09:53:39.108Z</time>
      </trkpt>
      <trkpt lat="45.77797" lon="3.36177">
        <ele>337.27389526367</ele>
        <time>2020-06-20T09:53:40.984Z</time>
      </trkpt>
      <trkpt lat="45.77761" lon="3.36263">
        <ele>335.57369995117</ele>
        <time>2020-06-20T09:53:42.872Z</time>
      </trkpt>
      <trkpt lat="45.77744" lon="3.36331">
        <ele>334.13046264648</ele>
        <time>2020-06-20T09:53:44.768Z</time>
      </trkpt>
      <trkpt lat="45.77738" lon="3.36378">
        <ele>332.14987182617</ele>
        <time>2020-06-20T09:53:46.669Z</time>
      </trkpt>
      <trkpt lat="45.77742" lon="3.36447">
        <ele>329.12490844727</ele>
        <time>2020-06-20T09:53:48.578Z</time>
      </trkpt>
      <trkpt lat="45.77757" lon="3.3655">
        <ele>328.12994384766</ele>
        <time>2020-06-20T09:53:50.499Z</time>
      </trkpt>
      <trkpt lat="45.77757" lon="3.3655">
        <ele>328.12963867188</ele>
        <time>2020-06-20T09:53:52.420Z</time>
      </trkpt>
      <trkpt lat="45.77801" lon="3.3684">
        <ele>325</ele>
        <time>2020-06-20T09:53:54.374Z</time>
      </trkpt>
      <trkpt lat="45.77808" lon="3.36929">
        <ele>326.92291259766</ele>
        <time>2020-06-20T09:53:56.338Z</time>
      </trkpt>
      <trkpt lat="45.778" lon="3.37027">
        <ele>323.79498291016</ele>
        <time>2020-06-20T09:53:58.313Z</time>
      </trkpt>
      <trkpt lat="45.77787" lon="3.37117">
        <ele>322.79135131836</ele>
        <time>2020-06-20T09:54:00.298Z</time>
      </trkpt>
      <trkpt lat="45.77787" lon="3.37117">
        <ele>322.79159545898</ele>
        <time>2020-06-20T09:54:02.283Z</time>
      </trkpt>
      <trkpt lat="45.77787" lon="3.37117">
        <ele>322.79159545898</ele>
        <time>2020-06-20T09:54:04.268Z</time>
      </trkpt>
      <trkpt lat="45.77761" lon="3.37305">
        <ele>322.01528930664</ele>
        <time>2020-06-20T09:54:06.275Z</time>
      </trkpt>
      <trkpt lat="45.77759" lon="3.37398">
        <ele>323</ele>
        <time>2020-06-20T09:54:08.292Z</time>
      </trkpt>
      <trkpt lat="45.77765" lon="3.37434">
        <ele>323</ele>
        <time>2020-06-20T09:54:10.313Z</time>
      </trkpt>
      <trkpt lat="45.77765" lon="3.37434">
        <ele>323</ele>
        <time>2020-06-20T09:54:12.334Z</time>
      </trkpt>
      <trkpt lat="45.77769" lon="3.37464">
        <ele>323</ele>
        <time>2020-06-20T09:54:14.359Z</time>
      </trkpt>
      <trkpt lat="45.77788" lon="3.37598">
        <ele>323.80523681641</ele>
        <time>2020-06-20T09:54:16.399Z</time>
      </trkpt>
      <trkpt lat="45.77787" lon="3.37714">
        <ele>323.7912902832</ele>
        <time>2020-06-20T09:54:18.452Z</time>
      </trkpt>
      <trkpt lat="45.77782" lon="3.37757">
        <ele>323.90405273438</ele>
        <time>2020-06-20T09:54:20.510Z</time>
      </trkpt>
      <trkpt lat="45.77757" lon="3.3786">
        <ele>324.42932128906</ele>
        <time>2020-06-20T09:54:22.580Z</time>
      </trkpt>
      <trkpt lat="45.77721" lon="3.37948">
        <ele>324.7978515625</ele>
        <time>2020-06-20T09:54:24.661Z</time>
      </trkpt>
      <trkpt lat="45.77685" lon="3.38009">
        <ele>324.36068725586</ele>
        <time>2020-06-20T09:54:26.751Z</time>
      </trkpt>
      <trkpt lat="45.77561" lon="3.38158">
        <ele>325.21112060547</ele>
        <time>2020-06-20T09:54:28.867Z</time>
      </trkpt>
      <trkpt lat="45.77527" lon="3.38244">
        <ele>324.66339111328</ele>
        <time>2020-06-20T09:54:30.994Z</time>
      </trkpt>
      <trkpt lat="45.77524" lon="3.38345">
        <ele>324.64105224609</ele>
        <time>2020-06-20T09:54:33.133Z</time>
      </trkpt>
      <trkpt lat="45.77527" lon="3.38383">
        <ele>324.25186157227</ele>
        <time>2020-06-20T09:54:35.276Z</time>
      </trkpt>
      <trkpt lat="45.7756" lon="3.38552">
        <ele>324.38021850586</ele>
        <time>2020-06-20T09:54:37.439Z</time>
      </trkpt>
      <trkpt lat="45.7757" lon="3.38664">
        <ele>324.82171630859</ele>
        <time>2020-06-20T09:54:39.614Z</time>
      </trkpt>
      <trkpt lat="45.77462" lon="3.39705">
        <ele>331.95040893555</ele>
        <time>2020-06-20T09:54:41.907Z</time>
      </trkpt>
      <trkpt lat="45.77462" lon="3.39705">
        <ele>331.95028686523</ele>
        <time>2020-06-20T09:54:44.200Z</time>
      </trkpt>
      <trkpt lat="45.77457" lon="3.39735">
        <ele>333.09603881836</ele>
        <time>2020-06-20T09:54:46.497Z</time>
      </trkpt>
      <trkpt lat="45.77456" lon="3.39745">
        <ele>333.45639038086</ele>
        <time>2020-06-20T09:54:48.795Z</time>
      </trkpt>
      <trkpt lat="45.77441" lon="3.39774">
        <ele>333.00476074219</ele>
        <time>2020-06-20T09:54:51.097Z</time>
      </trkpt>
      <trkpt lat="45.77388" lon="3.39822">
        <ele>331.69177246094</ele>
        <time>2020-06-20T09:54:53.409Z</time>
      </trkpt>
      <trkpt lat="45.77358" lon="3.39864">
        <ele>333.08633422852</ele>
        <time>2020-06-20T09:54:55.728Z</time>
      </trkpt>
      <trkpt lat="45.77291" lon="3.4">
        <ele>335.49499511719</ele>
        <time>2020-06-20T09:54:58.065Z</time>
      </trkpt>
      <trkpt lat="45.77291" lon="3.4">
        <ele>335.49459838867</ele>
        <time>2020-06-20T09:55:00.402Z</time>
      </trkpt>
      <trkpt lat="45.77262" lon="3.40066">
        <ele>335.91061401367</ele>
        <time>2020-06-20T09:55:02.748Z</time>
      </trkpt>
      <trkpt lat="45.77228" lon="3.40177">
        <ele>338.66351318359</ele>
        <time>2020-06-20T09:55:05.108Z</time>
      </trkpt>
      <trkpt lat="45.77169" lon="3.405">
        <ele>345.93478393555</ele>
        <time>2020-06-20T09:55:07.505Z</time>
      </trkpt>
      <trkpt lat="45.7711" lon="3.40822">
        <ele>344.33123779297</ele>
        <time>2020-06-20T09:55:09.939Z</time>
      </trkpt>
      <trkpt lat="45.77104" lon="3.4091">
        <ele>345.44686889648</ele>
        <time>2020-06-20T09:55:12.383Z</time>
      </trkpt>
      <trkpt lat="45.77094" lon="3.40977">
        <ele>343.85699462891</ele>
        <time>2020-06-20T09:55:14.835Z</time>
      </trkpt>
      <trkpt lat="45.77082" lon="3.40994">
        <ele>343.18783569336</ele>
        <time>2020-06-20T09:55:17.289Z</time>
      </trkpt>
      <trkpt lat="45.77079" lon="3.4099">
        <ele>343.18765258789</ele>
        <time>2020-06-20T09:55:19.744Z</time>
      </trkpt>
      <trkpt lat="45.77" lon="3.40922">
        <ele>345.19198608398</ele>
        <time>2020-06-20T09:55:22.214Z</time>
      </trkpt>
      <trkpt lat="45.76974" lon="3.40885">
        <ele>345.37222290039</ele>
        <time>2020-06-20T09:55:24.690Z</time>
      </trkpt>
      <trkpt lat="45.76961" lon="3.40909">
        <ele>345.60284423828</ele>
        <time>2020-06-20T09:55:27.169Z</time>
      </trkpt>
      <trkpt lat="45.76956" lon="3.40938">
        <ele>345.55938720703</ele>
        <time>2020-06-20T09:55:29.651Z</time>
      </trkpt>
      <trkpt lat="45.76961" lon="3.41069">
        <ele>342.95547485352</ele>
        <time>2020-06-20T09:55:32.148Z</time>
      </trkpt>
      <trkpt lat="45.77004" lon="3.41073">
        <ele>341.73831176758</ele>
        <time>2020-06-20T09:55:34.652Z</time>
      </trkpt>
      <trkpt lat="45.77025" lon="3.41102">
        <ele>340.0426940918</ele>
        <time>2020-06-20T09:55:37.161Z</time>
      </trkpt>
      <trkpt lat="45.77035" lon="3.41118">
        <ele>339.46343994141</ele>
        <time>2020-06-20T09:55:39.672Z</time>
      </trkpt>
      <trkpt lat="45.76932" lon="3.41304">
        <ele>341.86456298828</ele>
        <time>2020-06-20T09:55:42.210Z</time>
      </trkpt>
      <trkpt lat="45.76665" lon="3.41578">
        <ele>346.42904663086</ele>
        <time>2020-06-20T09:55:44.800Z</time>
      </trkpt>
      <trkpt lat="45.76665" lon="3.41578">
        <ele>346.42895507812</ele>
        <time>2020-06-20T09:55:47.390Z</time>
      </trkpt>
      <trkpt lat="45.76637" lon="3.41607">
        <ele>347.19863891602</ele>
        <time>2020-06-20T09:55:49.986Z</time>
      </trkpt>
      <trkpt lat="45.76637" lon="3.41607">
        <ele>347.19876098633</ele>
        <time>2020-06-20T09:55:52.582Z</time>
      </trkpt>
      <trkpt lat="45.76451" lon="3.41798">
        <ele>346.31173706055</ele>
        <time>2020-06-20T09:55:55.215Z</time>
      </trkpt>
      <trkpt lat="45.76384" lon="3.41839">
        <ele>346.39459228516</ele>
        <time>2020-06-20T09:55:57.859Z</time>
      </trkpt>
      <trkpt lat="45.76371" lon="3.41922">
        <ele>344.25186157227</ele>
        <time>2020-06-20T09:56:00.513Z</time>
      </trkpt>
      <trkpt lat="45.76331" lon="3.42005">
        <ele>345.50366210938</ele>
        <time>2020-06-20T09:56:03.178Z</time>
      </trkpt>
      <trkpt lat="45.76304" lon="3.42065">
        <ele>347.02264404297</ele>
        <time>2020-06-20T09:56:05.851Z</time>
      </trkpt>
      <trkpt lat="45.76266" lon="3.42076">
        <ele>347.54284667969</ele>
        <time>2020-06-20T09:56:08.530Z</time>
      </trkpt>
      <trkpt lat="45.76225" lon="3.4207">
        <ele>347.69732666016</ele>
        <time>2020-06-20T09:56:11.216Z</time>
      </trkpt>
      <trkpt lat="45.76188" lon="3.42099">
        <ele>347.80508422852</ele>
        <time>2020-06-20T09:56:13.909Z</time>
      </trkpt>
      <trkpt lat="45.76147" lon="3.42133">
        <ele>347.95956420898</ele>
        <time>2020-06-20T09:56:16.609Z</time>
      </trkpt>
      <trkpt lat="45.76113" lon="3.42156">
        <ele>348.54556274414</ele>
        <time>2020-06-20T09:56:19.315Z</time>
      </trkpt>
      <trkpt lat="45.76062" lon="3.42172">
        <ele>348.41061401367</ele>
        <time>2020-06-20T09:56:22.029Z</time>
      </trkpt>
      <trkpt lat="45.75996" lon="3.42264">
        <ele>348.44869995117</ele>
        <time>2020-06-20T09:56:24.758Z</time>
      </trkpt>
      <trkpt lat="45.75987" lon="3.42291">
        <ele>349.11175537109</ele>
        <time>2020-06-20T09:56:27.491Z</time>
      </trkpt>
      <trkpt lat="45.75989" lon="3.4233">
        <ele>349.56228637695</ele>
        <time>2020-06-20T09:56:30.228Z</time>
      </trkpt>
      <trkpt lat="45.75989" lon="3.4233">
        <ele>349.56219482422</ele>
        <time>2020-06-20T09:56:32.965Z</time>
      </trkpt>
      <trkpt lat="45.75984" lon="3.42383">
        <ele>350.25732421875</ele>
        <time>2020-06-20T09:56:35.708Z</time>
      </trkpt>
      <trkpt lat="45.75991" lon="3.4247">
        <ele>351</ele>
        <time>2020-06-20T09:56:38.461Z</time>
      </trkpt>
      <trkpt lat="45.75982" lon="3.42518">
        <ele>351</ele>
        <time>2020-06-20T09:56:41.219Z</time>
      </trkpt>
      <trkpt lat="45.75934" lon="3.42591">
        <ele>352.78604125977</ele>
        <time>2020-06-20T09:56:43.989Z</time>
      </trkpt>
      <trkpt lat="45.75595" lon="3.43077">
        <ele>360.75286865234</ele>
        <time>2020-06-20T09:56:46.835Z</time>
      </trkpt>
      <trkpt lat="45.75595" lon="3.43077">
        <ele>360.7526550293</ele>
        <time>2020-06-20T09:56:49.681Z</time>
      </trkpt>
      <trkpt lat="45.75572" lon="3.4311">
        <ele>361.58047485352</ele>
        <time>2020-06-20T09:56:52.533Z</time>
      </trkpt>
      <trkpt lat="45.75531" lon="3.43148">
        <ele>362.55877685547</ele>
        <time>2020-06-20T09:56:55.392Z</time>
      </trkpt>
      <trkpt lat="45.75506" lon="3.43163">
        <ele>363.1510925293</ele>
        <time>2020-06-20T09:56:58.256Z</time>
      </trkpt>
      <trkpt lat="45.75408" lon="3.43173">
        <ele>364.23153686523</ele>
        <time>2020-06-20T09:57:01.136Z</time>
      </trkpt>
      <trkpt lat="45.75331" lon="3.43161">
        <ele>365.86227416992</ele>
        <time>2020-06-20T09:57:04.028Z</time>
      </trkpt>
      <trkpt lat="45.75271" lon="3.43139">
        <ele>367.81887817383</ele>
        <time>2020-06-20T09:57:06.930Z</time>
      </trkpt>
      <trkpt lat="45.75136" lon="3.43067">
        <ele>371.06619262695</ele>
        <time>2020-06-20T09:57:09.855Z</time>
      </trkpt>
      <trkpt lat="45.74942" lon="3.42992">
        <ele>379.41458129883</ele>
        <time>2020-06-20T09:57:12.812Z</time>
      </trkpt>
      <trkpt lat="45.74913" lon="3.42989">
        <ele>380.07089233398</ele>
        <time>2020-06-20T09:57:15.774Z</time>
      </trkpt>
      <trkpt lat="45.74862" lon="3.43">
        <ele>380.81176757812</ele>
        <time>2020-06-20T09:57:18.744Z</time>
      </trkpt>
      <trkpt lat="45.74818" lon="3.4301">
        <ele>380.92761230469</ele>
        <time>2020-06-20T09:57:21.721Z</time>
      </trkpt>
      <trkpt lat="45.74756" lon="3.43006">
        <ele>381.9248046875</ele>
        <time>2020-06-20T09:57:24.708Z</time>
      </trkpt>
      <trkpt lat="45.74575" lon="3.42966">
        <ele>381.65100097656</ele>
        <time>2020-06-20T09:57:27.724Z</time>
      </trkpt>
      <trkpt lat="45.74488" lon="3.42956">
        <ele>383.50750732422</ele>
        <time>2020-06-20T09:57:30.754Z</time>
      </trkpt>
      <trkpt lat="45.74428" lon="3.42959">
        <ele>383.16513061523</ele>
        <time>2020-06-20T09:57:33.794Z</time>
      </trkpt>
      <trkpt lat="45.7424" lon="3.42966">
        <ele>385.29516601562</ele>
        <time>2020-06-20T09:57:36.864Z</time>
      </trkpt>
      <trkpt lat="45.74033" lon="3.42937">
        <ele>393.77883911133</ele>
        <time>2020-06-20T09:57:39.967Z</time>
      </trkpt>
      <trkpt lat="45.74033" lon="3.42937">
        <ele>393.77871704102</ele>
        <time>2020-06-20T09:57:43.070Z</time>
      </trkpt>
      <trkpt lat="45.73892" lon="3.42898">
        <ele>395.82223510742</ele>
        <time>2020-06-20T09:57:46.196Z</time>
      </trkpt>
      <trkpt lat="45.73842" lon="3.42877">
        <ele>397.42559814453</ele>
        <time>2020-06-20T09:57:49.331Z</time>
      </trkpt>
      <trkpt lat="45.73842" lon="3.42877">
        <ele>397.42926025391</ele>
        <time>2020-06-20T09:57:52.466Z</time>
      </trkpt>
      <trkpt lat="45.73842" lon="3.42877">
        <ele>397.43008422852</ele>
        <time>2020-06-20T09:57:55.601Z</time>
      </trkpt>
      <trkpt lat="45.7372" lon="3.42825">
        <ele>399.42709350586</ele>
        <time>2020-06-20T09:57:58.756Z</time>
      </trkpt>
      <trkpt lat="45.73616" lon="3.42799">
        <ele>399.57940673828</ele>
        <time>2020-06-20T09:58:01.928Z</time>
      </trkpt>
      <trkpt lat="45.73551" lon="3.42782">
        <ele>401.16818237305</ele>
        <time>2020-06-20T09:58:05.111Z</time>
      </trkpt>
      <trkpt lat="45.73435" lon="3.42693">
        <ele>405.83843994141</ele>
        <time>2020-06-20T09:58:08.315Z</time>
      </trkpt>
      <trkpt lat="45.73435" lon="3.42693">
        <ele>405.83721923828</ele>
        <time>2020-06-20T09:58:11.519Z</time>
      </trkpt>
      <trkpt lat="45.73368" lon="3.42623">
        <ele>413.85827636719</ele>
        <time>2020-06-20T09:58:14.736Z</time>
      </trkpt>
      <trkpt lat="45.73292" lon="3.42515">
        <ele>417.71493530273</ele>
        <time>2020-06-20T09:58:17.970Z</time>
      </trkpt>
      <trkpt lat="45.73238" lon="3.42475">
        <ele>420.45678710938</ele>
        <time>2020-06-20T09:58:21.214Z</time>
      </trkpt>
      <trkpt lat="45.73238" lon="3.42475">
        <ele>420.45626831055</ele>
        <time>2020-06-20T09:58:24.458Z</time>
      </trkpt>
      <trkpt lat="45.73199" lon="3.42485">
        <ele>421.8971862793</ele>
        <time>2020-06-20T09:58:27.708Z</time>
      </trkpt>
      <trkpt lat="45.73144" lon="3.4251">
        <ele>427.09854125977</ele>
        <time>2020-06-20T09:58:30.967Z</time>
      </trkpt>
      <trkpt lat="45.73144" lon="3.4251">
        <ele>427.0979309082</ele>
        <time>2020-06-20T09:58:34.226Z</time>
      </trkpt>
      <trkpt lat="45.73061" lon="3.42535">
        <ele>434.72219848633</ele>
        <time>2020-06-20T09:58:37.499Z</time>
      </trkpt>
      <trkpt lat="45.73008" lon="3.42547">
        <ele>441.2770690918</ele>
        <time>2020-06-20T09:58:40.781Z</time>
      </trkpt>
      <trkpt lat="45.73008" lon="3.42547">
        <ele>441.27618408203</ele>
        <time>2020-06-20T09:58:44.063Z</time>
      </trkpt>
      <trkpt lat="45.72871" lon="3.4255">
        <ele>447.16857910156</ele>
        <time>2020-06-20T09:58:47.366Z</time>
      </trkpt>
      <trkpt lat="45.72943" lon="3.4277">
        <ele>440.19729614258</ele>
        <time>2020-06-20T09:58:50.697Z</time>
      </trkpt>
      <trkpt lat="45.72939" lon="3.42802">
        <ele>439.63092041016</ele>
        <time>2020-06-20T09:58:54.031Z</time>
      </trkpt>
      <trkpt lat="45.72913" lon="3.42819">
        <ele>439.50668334961</ele>
        <time>2020-06-20T09:58:57.370Z</time>
      </trkpt>
      <trkpt lat="45.72862" lon="3.42822">
        <ele>440.23742675781</ele>
        <time>2020-06-20T09:59:00.717Z</time>
      </trkpt>
      <trkpt lat="45.72856" lon="3.42824">
        <ele>440.16632080078</ele>
        <time>2020-06-20T09:59:04.065Z</time>
      </trkpt>
      <trkpt lat="45.72788" lon="3.42846">
        <ele>438.51254272461</ele>
        <time>2020-06-20T09:59:07.424Z</time>
      </trkpt>
      <trkpt lat="45.72736" lon="3.42881">
        <ele>432.70965576172</ele>
        <time>2020-06-20T09:59:10.792Z</time>
      </trkpt>
      <trkpt lat="45.72736" lon="3.42881">
        <ele>432.70986938477</ele>
        <time>2020-06-20T09:59:14.160Z</time>
      </trkpt>
      <trkpt lat="45.72732" lon="3.42949">
        <ele>429.525390625</ele>
        <time>2020-06-20T09:59:17.536Z</time>
      </trkpt>
      <trkpt lat="45.72734" lon="3.43055">
        <ele>431.25186157227</ele>
        <time>2020-06-20T09:59:20.924Z</time>
      </trkpt>
      <trkpt lat="45.72734" lon="3.43055">
        <ele>431.25286865234</ele>
        <time>2020-06-20T09:59:24.312Z</time>
      </trkpt>
      <trkpt lat="45.72735" lon="3.43076">
        <ele>432.15393066406</ele>
        <time>2020-06-20T09:59:27.702Z</time>
      </trkpt>
      <trkpt lat="45.72746" lon="3.43104">
        <ele>432.26583862305</ele>
        <time>2020-06-20T09:59:31.096Z</time>
      </trkpt>
      <trkpt lat="45.7281" lon="3.43173">
        <ele>428.66152954102</ele>
        <time>2020-06-20T09:59:34.503Z</time>
      </trkpt>
      <trkpt lat="45.72857" lon="3.43265">
        <ele>428.88171386719</ele>
        <time>2020-06-20T09:59:37.922Z</time>
      </trkpt>
      <trkpt lat="45.7286" lon="3.43295">
        <ele>429.35433959961</ele>
        <time>2020-06-20T09:59:41.345Z</time>
      </trkpt>
      <trkpt lat="45.72833" lon="3.43359">
        <ele>433.41314697266</ele>
        <time>2020-06-20T09:59:44.776Z</time>
      </trkpt>
      <trkpt lat="45.72845" lon="3.43413">
        <ele>431.91311645508</ele>
        <time>2020-06-20T09:59:48.214Z</time>
      </trkpt>
      <trkpt lat="45.72872" lon="3.43462">
        <ele>430.64779663086</ele>
        <time>2020-06-20T09:59:51.659Z</time>
      </trkpt>
      <trkpt lat="45.72911" lon="3.43502">
        <ele>430.13668823242</ele>
        <time>2020-06-20T09:59:55.111Z</time>
      </trkpt>
      <trkpt lat="45.72978" lon="3.43538">
        <ele>427.78024291992</ele>
        <time>2020-06-20T09:59:58.575Z</time>
      </trkpt>
      <trkpt lat="45.72993" lon="3.43566">
        <ele>428.19216918945</ele>
        <time>2020-06-20T10:00:02.043Z</time>
      </trkpt>
      <trkpt lat="45.73005" lon="3.43641">
        <ele>433.23547363281</ele>
        <time>2020-06-20T10:00:05.519Z</time>
      </trkpt>
      <trkpt lat="45.73025" lon="3.43664">
        <ele>433.81390380859</ele>
        <time>2020-06-20T10:00:08.999Z</time>
      </trkpt>
      <trkpt lat="45.73047" lon="3.43676">
        <ele>432.92651367188</ele>
        <time>2020-06-20T10:00:12.483Z</time>
      </trkpt>
      <trkpt lat="45.73091" lon="3.43738">
        <ele>436.11080932617</ele>
        <time>2020-06-20T10:00:15.977Z</time>
      </trkpt>
      <trkpt lat="45.73091" lon="3.43738">
        <ele>436.11099243164</ele>
        <time>2020-06-20T10:00:19.471Z</time>
      </trkpt>
      <trkpt lat="45.73097" lon="3.43765">
        <ele>437.91293334961</ele>
        <time>2020-06-20T10:00:22.968Z</time>
      </trkpt>
      <trkpt lat="45.73097" lon="3.43765">
        <ele>437.91314697266</ele>
        <time>2020-06-20T10:00:26.465Z</time>
      </trkpt>
      <trkpt lat="45.73101" lon="3.43783">
        <ele>436.61926269531</ele>
        <time>2020-06-20T10:00:29.964Z</time>
      </trkpt>
      <trkpt lat="45.73091" lon="3.43807">
        <ele>435.19509887695</ele>
        <time>2020-06-20T10:00:33.466Z</time>
      </trkpt>
      <trkpt lat="45.72987" lon="3.43858">
        <ele>437.23229980469</ele>
        <time>2020-06-20T10:00:36.986Z</time>
      </trkpt>
      <trkpt lat="45.72941" lon="3.43918">
        <ele>429.92401123047</ele>
        <time>2020-06-20T10:00:40.516Z</time>
      </trkpt>
      <trkpt lat="45.72869" lon="3.4403">
        <ele>422.92413330078</ele>
        <time>2020-06-20T10:00:44.063Z</time>
      </trkpt>
      <trkpt lat="45.72862" lon="3.44063">
        <ele>421.90719604492</ele>
        <time>2020-06-20T10:00:47.614Z</time>
      </trkpt>
      <trkpt lat="45.72875" lon="3.44142">
        <ele>421.64822387695</ele>
        <time>2020-06-20T10:00:51.174Z</time>
      </trkpt>
      <trkpt lat="45.72878" lon="3.44171">
        <ele>422.18887329102</ele>
        <time>2020-06-20T10:00:54.737Z</time>
      </trkpt>
      <trkpt lat="45.72881" lon="3.44192">
        <ele>423.08929443359</ele>
        <time>2020-06-20T10:00:58.303Z</time>
      </trkpt>
      <trkpt lat="45.729" lon="3.44219">
        <ele>425.98760986328</ele>
        <time>2020-06-20T10:01:01.873Z</time>
      </trkpt>
      <trkpt lat="45.72989" lon="3.44194">
        <ele>427.04803466797</ele>
        <time>2020-06-20T10:01:05.457Z</time>
      </trkpt>
      <trkpt lat="45.73043" lon="3.44208">
        <ele>431.74645996094</ele>
        <time>2020-06-20T10:01:09.050Z</time>
      </trkpt>
      <trkpt lat="45.73057" lon="3.44222">
        <ele>433.58782958984</ele>
        <time>2020-06-20T10:01:12.646Z</time>
      </trkpt>
      <trkpt lat="45.73081" lon="3.44247">
        <ele>436.76672363281</ele>
        <time>2020-06-20T10:01:16.247Z</time>
      </trkpt>
      <trkpt lat="45.73097" lon="3.44284">
        <ele>440.17791748047</ele>
        <time>2020-06-20T10:01:19.853Z</time>
      </trkpt>
      <trkpt lat="45.73172" lon="3.4428">
        <ele>444.3303527832</ele>
        <time>2020-06-20T10:01:23.471Z</time>
      </trkpt>
      <trkpt lat="45.73211" lon="3.44265">
        <ele>445.52621459961</ele>
        <time>2020-06-20T10:01:27.095Z</time>
      </trkpt>
      <trkpt lat="45.73278" lon="3.44292">
        <ele>444.10925292969</ele>
        <time>2020-06-20T10:01:30.730Z</time>
      </trkpt>
      <trkpt lat="45.73289" lon="3.44323">
        <ele>445.33215332031</ele>
        <time>2020-06-20T10:01:34.369Z</time>
      </trkpt>
      <trkpt lat="45.73262" lon="3.44396">
        <ele>450.55883789062</ele>
        <time>2020-06-20T10:01:38.017Z</time>
      </trkpt>
      <trkpt lat="45.73228" lon="3.44524">
        <ele>452.91418457031</ele>
        <time>2020-06-20T10:01:41.681Z</time>
      </trkpt>
      <trkpt lat="45.73209" lon="3.44675">
        <ele>459.57107543945</ele>
        <time>2020-06-20T10:01:45.362Z</time>
      </trkpt>
      <trkpt lat="45.73164" lon="3.44777">
        <ele>468.99502563477</ele>
        <time>2020-06-20T10:01:49.056Z</time>
      </trkpt>
      <trkpt lat="45.73141" lon="3.4487">
        <ele>470.61926269531</ele>
        <time>2020-06-20T10:01:52.762Z</time>
      </trkpt>
      <trkpt lat="45.73142" lon="3.44889">
        <ele>471.12127685547</ele>
        <time>2020-06-20T10:01:56.470Z</time>
      </trkpt>
      <trkpt lat="45.73156" lon="3.44917">
        <ele>472.29266357422</ele>
        <time>2020-06-20T10:02:00.182Z</time>
      </trkpt>
      <trkpt lat="45.73219" lon="3.4501">
        <ele>475.87585449219</ele>
        <time>2020-06-20T10:02:03.908Z</time>
      </trkpt>
      <trkpt lat="45.73246" lon="3.45065">
        <ele>476.31527709961</ele>
        <time>2020-06-20T10:02:07.642Z</time>
      </trkpt>
      <trkpt lat="45.73214" lon="3.45426">
        <ele>475.50396728516</ele>
        <time>2020-06-20T10:02:11.416Z</time>
      </trkpt>
      <trkpt lat="45.73218" lon="3.45564">
        <ele>477.80377197266</ele>
        <time>2020-06-20T10:02:15.206Z</time>
      </trkpt>
      <trkpt lat="45.73218" lon="3.45564">
        <ele>477.80447387695</ele>
        <time>2020-06-20T10:02:18.996Z</time>
      </trkpt>
      <trkpt lat="45.73206" lon="3.45619">
        <ele>479.33688354492</ele>
        <time>2020-06-20T10:02:22.792Z</time>
      </trkpt>
      <trkpt lat="45.73204" lon="3.45625">
        <ele>479.62005615234</ele>
        <time>2020-06-20T10:02:26.589Z</time>
      </trkpt>
      <trkpt lat="45.73188" lon="3.45654">
        <ele>480.87185668945</ele>
        <time>2020-06-20T10:02:30.390Z</time>
      </trkpt>
      <trkpt lat="45.73155" lon="3.45665">
        <ele>478.90237426758</ele>
        <time>2020-06-20T10:02:34.197Z</time>
      </trkpt>
      <trkpt lat="45.73036" lon="3.45633">
        <ele>473.72076416016</ele>
        <time>2020-06-20T10:02:38.023Z</time>
      </trkpt>
      <trkpt lat="45.73004" lon="3.45605">
        <ele>472.54937744141</ele>
        <time>2020-06-20T10:02:41.855Z</time>
      </trkpt>
      <trkpt lat="45.72983" lon="3.45557">
        <ele>474.03491210938</ele>
        <time>2020-06-20T10:02:45.693Z</time>
      </trkpt>
      <trkpt lat="45.72949" lon="3.45511">
        <ele>475.16683959961</ele>
        <time>2020-06-20T10:02:49.539Z</time>
      </trkpt>
      <trkpt lat="45.72924" lon="3.45506">
        <ele>474.26577758789</ele>
        <time>2020-06-20T10:02:53.389Z</time>
      </trkpt>
      <trkpt lat="45.72905" lon="3.4553">
        <ele>470.72402954102</ele>
        <time>2020-06-20T10:02:57.243Z</time>
      </trkpt>
      <trkpt lat="45.72905" lon="3.4553">
        <ele>470.72351074219</ele>
        <time>2020-06-20T10:03:01.097Z</time>
      </trkpt>
      <trkpt lat="45.729" lon="3.45536">
        <ele>470.27322387695</ele>
        <time>2020-06-20T10:03:04.952Z</time>
      </trkpt>
      <trkpt lat="45.729" lon="3.45536">
        <ele>470.27322387695</ele>
        <time>2020-06-20T10:03:08.807Z</time>
      </trkpt>
      <trkpt lat="45.72879" lon="3.45584">
        <ele>469.13604736328</ele>
        <time>2020-06-20T10:03:12.668Z</time>
      </trkpt>
      <trkpt lat="45.72885" lon="3.45628">
        <ele>469.60293579102</ele>
        <time>2020-06-20T10:03:16.534Z</time>
      </trkpt>
      <trkpt lat="45.72913" lon="3.45662">
        <ele>468.18786621094</ele>
        <time>2020-06-20T10:03:20.406Z</time>
      </trkpt>
      <trkpt lat="45.72943" lon="3.45764">
        <ele>470.73275756836</ele>
        <time>2020-06-20T10:03:24.291Z</time>
      </trkpt>
      <trkpt lat="45.72993" lon="3.45822">
        <ele>473.42153930664</ele>
        <time>2020-06-20T10:03:28.186Z</time>
      </trkpt>
      <trkpt lat="45.73067" lon="3.45875">
        <ele>470.8073425293</ele>
        <time>2020-06-20T10:03:32.094Z</time>
      </trkpt>
      <trkpt lat="45.73068" lon="3.45897">
        <ele>472.95703125</ele>
        <time>2020-06-20T10:03:36.004Z</time>
      </trkpt>
      <trkpt lat="45.73059" lon="3.45911">
        <ele>475.80184936523</ele>
        <time>2020-06-20T10:03:39.917Z</time>
      </trkpt>
      <trkpt lat="45.73046" lon="3.45915">
        <ele>478.08917236328</ele>
        <time>2020-06-20T10:03:43.832Z</time>
      </trkpt>
      <trkpt lat="45.73031" lon="3.4591">
        <ele>479.49227905273</ele>
        <time>2020-06-20T10:03:47.749Z</time>
      </trkpt>
      <trkpt lat="45.72977" lon="3.45863">
        <ele>482.02355957031</ele>
        <time>2020-06-20T10:03:51.676Z</time>
      </trkpt>
      <trkpt lat="45.72902" lon="3.45842">
        <ele>488.82885742188</ele>
        <time>2020-06-20T10:03:55.615Z</time>
      </trkpt>
      <trkpt lat="45.72852" lon="3.45808">
        <ele>488.86294555664</ele>
        <time>2020-06-20T10:03:59.563Z</time>
      </trkpt>
      <trkpt lat="45.72639" lon="3.45858">
        <ele>511.39181518555</ele>
        <time>2020-06-20T10:04:03.546Z</time>
      </trkpt>
      <trkpt lat="45.72536" lon="3.45903">
        <ele>517.96258544922</ele>
        <time>2020-06-20T10:04:07.546Z</time>
      </trkpt>
      <trkpt lat="45.72467" lon="3.4602">
        <ele>527.93792724609</ele>
        <time>2020-06-20T10:04:11.563Z</time>
      </trkpt>
      <trkpt lat="45.72448" lon="3.4612">
        <ele>536.34155273438</ele>
        <time>2020-06-20T10:04:15.592Z</time>
      </trkpt>
      <trkpt lat="45.72464" lon="3.46243">
        <ele>540.78082275391</ele>
        <time>2020-06-20T10:04:19.635Z</time>
      </trkpt>
      <trkpt lat="45.72464" lon="3.46243">
        <ele>540.7783203125</ele>
        <time>2020-06-20T10:04:23.678Z</time>
      </trkpt>
      <trkpt lat="45.72448" lon="3.46348">
        <ele>536.45916748047</ele>
        <time>2020-06-20T10:04:27.733Z</time>
      </trkpt>
      <trkpt lat="45.72469" lon="3.46466">
        <ele>537.34942626953</ele>
        <time>2020-06-20T10:04:31.802Z</time>
      </trkpt>
      <trkpt lat="45.72469" lon="3.46466">
        <ele>537.34729003906</ele>
        <time>2020-06-20T10:04:35.871Z</time>
      </trkpt>
      <trkpt lat="45.72469" lon="3.46466">
        <ele>537.34704589844</ele>
        <time>2020-06-20T10:04:39.940Z</time>
      </trkpt>
      <trkpt lat="45.72477" lon="3.46506">
        <ele>537.080078125</ele>
        <time>2020-06-20T10:04:44.013Z</time>
      </trkpt>
      <trkpt lat="45.72469" lon="3.46541">
        <ele>537.46240234375</ele>
        <time>2020-06-20T10:04:48.091Z</time>
      </trkpt>
      <trkpt lat="45.72393" lon="3.46602">
        <ele>544.18597412109</ele>
        <time>2020-06-20T10:04:52.182Z</time>
      </trkpt>
      <trkpt lat="45.72336" lon="3.46672">
        <ele>548.14556884766</ele>
        <time>2020-06-20T10:04:56.286Z</time>
      </trkpt>
      <trkpt lat="45.72303" lon="3.46775">
        <ele>550.56469726562</ele>
        <time>2020-06-20T10:05:00.402Z</time>
      </trkpt>
      <trkpt lat="45.72177" lon="3.46924">
        <ele>561.25030517578</ele>
        <time>2020-06-20T10:05:04.544Z</time>
      </trkpt>
      <trkpt lat="45.72169" lon="3.46933">
        <ele>561.98211669922</ele>
        <time>2020-06-20T10:05:08.688Z</time>
      </trkpt>
      <trkpt lat="45.72139" lon="3.46899">
        <ele>565.26727294922</ele>
        <time>2020-06-20T10:05:12.838Z</time>
      </trkpt>
      <trkpt lat="45.72067" lon="3.46853">
        <ele>567.65252685547</ele>
        <time>2020-06-20T10:05:17.001Z</time>
      </trkpt>
      <trkpt lat="45.72067" lon="3.46853">
        <ele>567.65234375</ele>
        <time>2020-06-20T10:05:21.164Z</time>
      </trkpt>
      <trkpt lat="45.71937" lon="3.46759">
        <ele>566.27868652344</ele>
        <time>2020-06-20T10:05:25.350Z</time>
      </trkpt>
      <trkpt lat="45.71815" lon="3.46687">
        <ele>567.68475341797</ele>
        <time>2020-06-20T10:05:29.557Z</time>
      </trkpt>
      <trkpt lat="45.71732" lon="3.46635">
        <ele>568.853515625</ele>
        <time>2020-06-20T10:05:33.779Z</time>
      </trkpt>
      <trkpt lat="45.71671" lon="3.46614">
        <ele>566.75378417969</ele>
        <time>2020-06-20T10:05:38.011Z</time>
      </trkpt>
      <trkpt lat="45.71435" lon="3.4658">
        <ele>570.27960205078</ele>
        <time>2020-06-20T10:05:42.281Z</time>
      </trkpt>
      <trkpt lat="45.71356" lon="3.46524">
        <ele>573.46490478516</ele>
        <time>2020-06-20T10:05:46.565Z</time>
      </trkpt>
      <trkpt lat="45.71299" lon="3.46499">
        <ele>576.39514160156</ele>
        <time>2020-06-20T10:05:50.858Z</time>
      </trkpt>
      <trkpt lat="45.71242" lon="3.46611">
        <ele>571.43817138672</ele>
        <time>2020-06-20T10:05:55.167Z</time>
      </trkpt>
      <trkpt lat="45.71218" lon="3.4664">
        <ele>570.12823486328</ele>
        <time>2020-06-20T10:05:59.481Z</time>
      </trkpt>
      <trkpt lat="45.71185" lon="3.46656">
        <ele>570.55303955078</ele>
        <time>2020-06-20T10:06:03.801Z</time>
      </trkpt>
      <trkpt lat="45.71098" lon="3.46664">
        <ele>570.27001953125</ele>
        <time>2020-06-20T10:06:08.135Z</time>
      </trkpt>
      <trkpt lat="45.71034" lon="3.46702">
        <ele>564.16595458984</ele>
        <time>2020-06-20T10:06:12.480Z</time>
      </trkpt>
      <trkpt lat="45.70956" lon="3.46729">
        <ele>559.09912109375</ele>
        <time>2020-06-20T10:06:16.837Z</time>
      </trkpt>
      <trkpt lat="45.70947" lon="3.46731">
        <ele>558.22442626953</ele>
        <time>2020-06-20T10:06:21.196Z</time>
      </trkpt>
      <trkpt lat="45.70899" lon="3.46738">
        <ele>556.83129882812</ele>
        <time>2020-06-20T10:06:25.563Z</time>
      </trkpt>
      <trkpt lat="45.70774" lon="3.4669">
        <ele>544.08441162109</ele>
        <time>2020-06-20T10:06:29.950Z</time>
      </trkpt>
      <trkpt lat="45.70666" lon="3.46718">
        <ele>533.98040771484</ele>
        <time>2020-06-20T10:06:34.355Z</time>
      </trkpt>
      <trkpt lat="45.70666" lon="3.46718">
        <ele>533.97973632812</ele>
        <time>2020-06-20T10:06:38.760Z</time>
      </trkpt>
      <trkpt lat="45.70567" lon="3.46848">
        <ele>530.72485351562</ele>
        <time>2020-06-20T10:06:43.187Z</time>
      </trkpt>
      <trkpt lat="45.70534" lon="3.46874">
        <ele>532.43579101562</ele>
        <time>2020-06-20T10:06:47.620Z</time>
      </trkpt>
      <trkpt lat="45.70392" lon="3.46971">
        <ele>532.48583984375</ele>
        <time>2020-06-20T10:06:52.078Z</time>
      </trkpt>
      <trkpt lat="45.70361" lon="3.47008">
        <ele>533.03228759766</ele>
        <time>2020-06-20T10:06:56.542Z</time>
      </trkpt>
      <trkpt lat="45.70333" lon="3.47026">
        <ele>533.69543457031</ele>
        <time>2020-06-20T10:07:01.011Z</time>
      </trkpt>
      <trkpt lat="45.7027" lon="3.47051">
        <ele>535.40600585938</ele>
        <time>2020-06-20T10:07:05.491Z</time>
      </trkpt>
      <trkpt lat="45.70234" lon="3.47029">
        <ele>535.83068847656</ele>
        <time>2020-06-20T10:07:09.977Z</time>
      </trkpt>
      <trkpt lat="45.70234" lon="3.47029">
        <ele>535.83081054688</ele>
        <time>2020-06-20T10:07:14.463Z</time>
      </trkpt>
      <trkpt lat="45.70184" lon="3.47001">
        <ele>536.68524169922</ele>
        <time>2020-06-20T10:07:18.958Z</time>
      </trkpt>
      <trkpt lat="45.70128" lon="3.47022">
        <ele>534.26226806641</ele>
        <time>2020-06-20T10:07:23.462Z</time>
      </trkpt>
      <trkpt lat="45.70094" lon="3.47012">
        <ele>532.64068603516</ele>
        <time>2020-06-20T10:07:27.971Z</time>
      </trkpt>
      <trkpt lat="45.70036" lon="3.47009">
        <ele>528.42553710938</ele>
        <time>2020-06-20T10:07:32.490Z</time>
      </trkpt>
      <trkpt lat="45.70021" lon="3.47001">
        <ele>527.21551513672</ele>
        <time>2020-06-20T10:07:37.011Z</time>
      </trkpt>
      <trkpt lat="45.69985" lon="3.46946">
        <ele>526.04449462891</ele>
        <time>2020-06-20T10:07:41.541Z</time>
      </trkpt>
      <trkpt lat="45.69966" lon="3.46959">
        <ele>523.51086425781</ele>
        <time>2020-06-20T10:07:46.074Z</time>
      </trkpt>
      <trkpt lat="45.69953" lon="3.47019">
        <ele>520.26184082031</ele>
        <time>2020-06-20T10:07:50.614Z</time>
      </trkpt>
      <trkpt lat="45.69928" lon="3.4704">
        <ele>518.34387207031</ele>
        <time>2020-06-20T10:07:55.159Z</time>
      </trkpt>
      <trkpt lat="45.69847" lon="3.47056">
        <ele>517.02520751953</ele>
        <time>2020-06-20T10:07:59.717Z</time>
      </trkpt>
      <trkpt lat="45.69847" lon="3.47056">
        <ele>517.02545166016</ele>
        <time>2020-06-20T10:08:04.275Z</time>
      </trkpt>
      <trkpt lat="45.6983" lon="3.47061">
        <ele>516.7958984375</ele>
        <time>2020-06-20T10:08:08.836Z</time>
      </trkpt>
      <trkpt lat="45.69775" lon="3.47108">
        <ele>515.22149658203</ele>
        <time>2020-06-20T10:08:13.407Z</time>
      </trkpt>
      <trkpt lat="45.69749" lon="3.47119">
        <ele>516.40576171875</ele>
        <time>2020-06-20T10:08:17.982Z</time>
      </trkpt>
      <trkpt lat="45.69701" lon="3.47106">
        <ele>515.70855712891</ele>
        <time>2020-06-20T10:08:22.565Z</time>
      </trkpt>
      <trkpt lat="45.69527" lon="3.47145">
        <ele>509.40588378906</ele>
        <time>2020-06-20T10:08:27.176Z</time>
      </trkpt>
      <trkpt lat="45.69421" lon="3.47228">
        <ele>507.90798950195</ele>
        <time>2020-06-20T10:08:31.807Z</time>
      </trkpt>
      <trkpt lat="45.6936" lon="3.47241">
        <ele>507.10821533203</ele>
        <time>2020-06-20T10:08:36.447Z</time>
      </trkpt>
      <trkpt lat="45.69221" lon="3.47208">
        <ele>500.15316772461</ele>
        <time>2020-06-20T10:08:41.110Z</time>
      </trkpt>
      <trkpt lat="45.69167" lon="3.4723">
        <ele>499.41943359375</ele>
        <time>2020-06-20T10:08:45.782Z</time>
      </trkpt>
      <trkpt lat="45.69132" lon="3.4723">
        <ele>497.75253295898</ele>
        <time>2020-06-20T10:08:50.460Z</time>
      </trkpt>
      <trkpt lat="45.69131" lon="3.4723">
        <ele>497.7463684082</ele>
        <time>2020-06-20T10:08:55.138Z</time>
      </trkpt>
      <trkpt lat="45.69096" lon="3.47229">
        <ele>496.46298217773</ele>
        <time>2020-06-20T10:08:59.821Z</time>
      </trkpt>
      <trkpt lat="45.69023" lon="3.47286">
        <ele>496.08947753906</ele>
        <time>2020-06-20T10:09:04.518Z</time>
      </trkpt>
      <trkpt lat="45.68694" lon="3.47441">
        <ele>484.17178344727</ele>
        <time>2020-06-20T10:09:09.270Z</time>
      </trkpt>
      <trkpt lat="45.68609" lon="3.47564">
        <ele>483.70846557617</ele>
        <time>2020-06-20T10:09:14.042Z</time>
      </trkpt>
      <trkpt lat="45.68576" lon="3.47633">
        <ele>484.19659423828</ele>
        <time>2020-06-20T10:09:18.823Z</time>
      </trkpt>
      <trkpt lat="45.68566" lon="3.47693">
        <ele>477.79962158203</ele>
        <time>2020-06-20T10:09:23.611Z</time>
      </trkpt>
      <trkpt lat="45.68547" lon="3.47743">
        <ele>470.54913330078</ele>
        <time>2020-06-20T10:09:28.405Z</time>
      </trkpt>
      <trkpt lat="45.68547" lon="3.47743">
        <ele>470.5495300293</ele>
        <time>2020-06-20T10:09:33.199Z</time>
      </trkpt>
      <trkpt lat="45.68515" lon="3.47784">
        <ele>466.01235961914</ele>
        <time>2020-06-20T10:09:38.000Z</time>
      </trkpt>
      <trkpt lat="45.68487" lon="3.4788">
        <ele>455.8630065918</ele>
        <time>2020-06-20T10:09:42.813Z</time>
      </trkpt>
      <trkpt lat="45.68487" lon="3.4788">
        <ele>455.86273193359</ele>
        <time>2020-06-20T10:09:47.626Z</time>
      </trkpt>
      <trkpt lat="45.68459" lon="3.47922">
        <ele>453.17565917969</ele>
        <time>2020-06-20T10:09:52.445Z</time>
      </trkpt>
      <trkpt lat="45.68434" lon="3.47993">
        <ele>453.72375488281</ele>
        <time>2020-06-20T10:09:57.273Z</time>
      </trkpt>
      <trkpt lat="45.68376" lon="3.48026">
        <ele>450.09252929688</ele>
        <time>2020-06-20T10:10:02.111Z</time>
      </trkpt>
      <trkpt lat="45.68324" lon="3.4811">
        <ele>447.93609619141</ele>
        <time>2020-06-20T10:10:06.962Z</time>
      </trkpt>
      <trkpt lat="45.68301" lon="3.48118">
        <ele>445.81359863281</ele>
        <time>2020-06-20T10:10:11.817Z</time>
      </trkpt>
      <trkpt lat="45.68219" lon="3.48093">
        <ele>447.45037841797</ele>
        <time>2020-06-20T10:10:16.685Z</time>
      </trkpt>
      <trkpt lat="45.68184" lon="3.48129">
        <ele>447.22528076172</ele>
        <time>2020-06-20T10:10:21.560Z</time>
      </trkpt>
      <trkpt lat="45.68154" lon="3.482">
        <ele>445.7578125</ele>
        <time>2020-06-20T10:10:26.444Z</time>
      </trkpt>
      <trkpt lat="45.68093" lon="3.48241">
        <ele>449.8391418457</ele>
        <time>2020-06-20T10:10:31.339Z</time>
      </trkpt>
      <trkpt lat="45.67981" lon="3.4827">
        <ele>458.99880981445</ele>
        <time>2020-06-20T10:10:36.252Z</time>
      </trkpt>
      <trkpt lat="45.67836" lon="3.48291">
        <ele>454.60693359375</ele>
        <time>2020-06-20T10:10:41.188Z</time>
      </trkpt>
      <trkpt lat="45.67766" lon="3.48295">
        <ele>452.18661499023</ele>
        <time>2020-06-20T10:10:46.136Z</time>
      </trkpt>
      <trkpt lat="45.67759" lon="3.48293">
        <ele>451.9167175293</ele>
        <time>2020-06-20T10:10:51.085Z</time>
      </trkpt>
      <trkpt lat="45.67741" lon="3.48298">
        <ele>451.13122558594</ele>
        <time>2020-06-20T10:10:56.037Z</time>
      </trkpt>
      <trkpt lat="45.67737" lon="3.483">
        <ele>451.00250244141</ele>
        <time>2020-06-20T10:11:00.989Z</time>
      </trkpt>
      <trkpt lat="45.67718" lon="3.48295">
        <ele>450.62939453125</ele>
        <time>2020-06-20T10:11:05.944Z</time>
      </trkpt>
      <trkpt lat="45.6771" lon="3.48296">
        <ele>450.41036987305</ele>
        <time>2020-06-20T10:11:10.901Z</time>
      </trkpt>
      <trkpt lat="45.67671" lon="3.48288">
        <ele>449.57388305664</ele>
        <time>2020-06-20T10:11:15.864Z</time>
      </trkpt>
      <trkpt lat="45.67617" lon="3.48154">
        <ele>448.68704223633</ele>
        <time>2020-06-20T10:11:20.844Z</time>
      </trkpt>
      <trkpt lat="45.67604" lon="3.48121">
        <ele>448.87951660156</ele>
        <time>2020-06-20T10:11:25.829Z</time>
      </trkpt>
      <trkpt lat="45.67582" lon="3.48056">
        <ele>447.57049560547</ele>
        <time>2020-06-20T10:11:30.822Z</time>
      </trkpt>
      <trkpt lat="45.67556" lon="3.4796">
        <ele>446.03558349609</ele>
        <time>2020-06-20T10:11:35.826Z</time>
      </trkpt>
      <trkpt lat="45.6752" lon="3.47818">
        <ele>445.5710144043</ele>
        <time>2020-06-20T10:11:40.847Z</time>
      </trkpt>
      <trkpt lat="45.67496" lon="3.47799">
        <ele>443.76968383789</ele>
        <time>2020-06-20T10:11:45.873Z</time>
      </trkpt>
      <trkpt lat="45.67496" lon="3.47799">
        <ele>443.76889038086</ele>
        <time>2020-06-20T10:11:50.899Z</time>
      </trkpt>
      <trkpt lat="45.67322" lon="3.47642">
        <ele>441.74432373047</ele>
        <time>2020-06-20T10:11:55.958Z</time>
      </trkpt>
      <trkpt lat="45.67322" lon="3.47642">
        <ele>441.74423217773</ele>
        <time>2020-06-20T10:12:01.017Z</time>
      </trkpt>
      <trkpt lat="45.67086" lon="3.47384">
        <ele>445.40887451172</ele>
        <time>2020-06-20T10:12:06.123Z</time>
      </trkpt>
      <trkpt lat="45.67061" lon="3.4736">
        <ele>446.69610595703</ele>
        <time>2020-06-20T10:12:11.234Z</time>
      </trkpt>
      <trkpt lat="45.67047" lon="3.47358">
        <ele>448.1728515625</ele>
        <time>2020-06-20T10:12:16.347Z</time>
      </trkpt>
      <trkpt lat="45.66913" lon="3.47399">
        <ele>465.02105712891</ele>
        <time>2020-06-20T10:12:21.482Z</time>
      </trkpt>
      <trkpt lat="45.66886" lon="3.47418">
        <ele>466.57287597656</ele>
        <time>2020-06-20T10:12:26.622Z</time>
      </trkpt>
      <trkpt lat="45.66875" lon="3.47458">
        <ele>464.99801635742</ele>
        <time>2020-06-20T10:12:31.767Z</time>
      </trkpt>
      <trkpt lat="45.66875" lon="3.47541">
        <ele>461.81723022461</ele>
        <time>2020-06-20T10:12:36.921Z</time>
      </trkpt>
      <trkpt lat="45.66868" lon="3.47564">
        <ele>463.97979736328</ele>
        <time>2020-06-20T10:12:42.078Z</time>
      </trkpt>
      <trkpt lat="45.66855" lon="3.47575">
        <ele>465.95343017578</ele>
        <time>2020-06-20T10:12:47.237Z</time>
      </trkpt>
      <trkpt lat="45.66829" lon="3.47565">
        <ele>468.23187255859</ele>
        <time>2020-06-20T10:12:52.401Z</time>
      </trkpt>
      <trkpt lat="45.66787" lon="3.47478">
        <ele>472.56579589844</ele>
        <time>2020-06-20T10:12:57.576Z</time>
      </trkpt>
      <trkpt lat="45.6675" lon="3.47314">
        <ele>476.28424072266</ele>
        <time>2020-06-20T10:13:02.771Z</time>
      </trkpt>
      <trkpt lat="45.6669" lon="3.47152">
        <ele>476.67568969727</ele>
        <time>2020-06-20T10:13:07.986Z</time>
      </trkpt>
      <trkpt lat="45.66651" lon="3.47066">
        <ele>475.62789916992</ele>
        <time>2020-06-20T10:13:13.213Z</time>
      </trkpt>
      <trkpt lat="45.66628" lon="3.47038">
        <ele>474.45086669922</ele>
        <time>2020-06-20T10:13:18.445Z</time>
      </trkpt>
      <trkpt lat="45.66562" lon="3.47018">
        <ele>472.30117797852</ele>
        <time>2020-06-20T10:13:23.688Z</time>
      </trkpt>
      <trkpt lat="45.66507" lon="3.46976">
        <ele>472.83218383789</ele>
        <time>2020-06-20T10:13:28.940Z</time>
      </trkpt>
      <trkpt lat="45.6645" lon="3.46889">
        <ele>472.42327880859</ele>
        <time>2020-06-20T10:13:34.206Z</time>
      </trkpt>
      <trkpt lat="45.66431" lon="3.46862">
        <ele>471.45782470703</ele>
        <time>2020-06-20T10:13:39.476Z</time>
      </trkpt>
      <trkpt lat="45.66371" lon="3.46804">
        <ele>471.92266845703</ele>
        <time>2020-06-20T10:13:44.758Z</time>
      </trkpt>
      <trkpt lat="45.66346" lon="3.46798">
        <ele>473.40298461914</ele>
        <time>2020-06-20T10:13:50.044Z</time>
      </trkpt>
      <trkpt lat="45.66274" lon="3.46728">
        <ele>478.62814331055</ele>
        <time>2020-06-20T10:13:55.344Z</time>
      </trkpt>
      <trkpt lat="45.66153" lon="3.46647">
        <ele>488.87451171875</ele>
        <time>2020-06-20T10:14:00.665Z</time>
      </trkpt>
      <trkpt lat="45.66122" lon="3.46624">
        <ele>491.08065795898</ele>
        <time>2020-06-20T10:14:05.992Z</time>
      </trkpt>
      <trkpt lat="45.66057" lon="3.46603">
        <ele>495.71545410156</ele>
        <time>2020-06-20T10:14:11.329Z</time>
      </trkpt>
      <trkpt lat="45.66036" lon="3.46582">
        <ele>496.15621948242</ele>
        <time>2020-06-20T10:14:16.670Z</time>
      </trkpt>
      <trkpt lat="45.65971" lon="3.46486">
        <ele>495.79080200195</ele>
        <time>2020-06-20T10:14:22.026Z</time>
      </trkpt>
      <trkpt lat="45.65918" lon="3.46426">
        <ele>494.78967285156</ele>
        <time>2020-06-20T10:14:27.393Z</time>
      </trkpt>
      <trkpt lat="45.659" lon="3.46391">
        <ele>495.83233642578</ele>
        <time>2020-06-20T10:14:32.765Z</time>
      </trkpt>
      <trkpt lat="45.65872" lon="3.46314">
        <ele>499.21084594727</ele>
        <time>2020-06-20T10:14:38.147Z</time>
      </trkpt>
      <trkpt lat="45.65828" lon="3.46254">
        <ele>502.33435058594</ele>
        <time>2020-06-20T10:14:43.539Z</time>
      </trkpt>
      <trkpt lat="45.65769" lon="3.46208">
        <ele>504.90380859375</ele>
        <time>2020-06-20T10:14:48.941Z</time>
      </trkpt>
      <trkpt lat="45.65662" lon="3.46211">
        <ele>503.04721069336</ele>
        <time>2020-06-20T10:14:54.361Z</time>
      </trkpt>
      <trkpt lat="45.65662" lon="3.46211">
        <ele>503.04742431641</ele>
        <time>2020-06-20T10:14:59.781Z</time>
      </trkpt>
      <trkpt lat="45.65578" lon="3.46142">
        <ele>501.27075195312</ele>
        <time>2020-06-20T10:15:05.216Z</time>
      </trkpt>
      <trkpt lat="45.65529" lon="3.46133">
        <ele>497.48669433594</ele>
        <time>2020-06-20T10:15:10.659Z</time>
      </trkpt>
      <trkpt lat="45.65497" lon="3.46114">
        <ele>495.15676879883</ele>
        <time>2020-06-20T10:15:16.107Z</time>
      </trkpt>
      <trkpt lat="45.65401" lon="3.46036">
        <ele>491.17138671875</ele>
        <time>2020-06-20T10:15:21.573Z</time>
      </trkpt>
      <trkpt lat="45.65345" lon="3.45966">
        <ele>487.14465332031</ele>
        <time>2020-06-20T10:15:27.051Z</time>
      </trkpt>
      <trkpt lat="45.65311" lon="3.45945">
        <ele>484.63317871094</ele>
        <time>2020-06-20T10:15:32.535Z</time>
      </trkpt>
      <trkpt lat="45.6526" lon="3.45929">
        <ele>483.86071777344</ele>
        <time>2020-06-20T10:15:38.027Z</time>
      </trkpt>
      <trkpt lat="45.65116" lon="3.4596">
        <ele>483.57217407227</ele>
        <time>2020-06-20T10:15:43.543Z</time>
      </trkpt>
      <trkpt lat="45.65052" lon="3.45996">
        <ele>487.05816650391</ele>
        <time>2020-06-20T10:15:49.070Z</time>
      </trkpt>
      <trkpt lat="45.65009" lon="3.46015">
        <ele>488.4365234375</ele>
        <time>2020-06-20T10:15:54.604Z</time>
      </trkpt>
      <trkpt lat="45.64962" lon="3.46013">
        <ele>488.91656494141</ele>
        <time>2020-06-20T10:16:00.145Z</time>
      </trkpt>
      <trkpt lat="45.64869" lon="3.45992">
        <ele>489.47012329102</ele>
        <time>2020-06-20T10:16:05.701Z</time>
      </trkpt>
      <trkpt lat="45.64819" lon="3.4597">
        <ele>489.92440795898</ele>
        <time>2020-06-20T10:16:11.266Z</time>
      </trkpt>
      <trkpt lat="45.64804" lon="3.45967">
        <ele>490.20758056641</ele>
        <time>2020-06-20T10:16:16.833Z</time>
      </trkpt>
      <trkpt lat="45.64776" lon="3.45981">
        <ele>491.06588745117</ele>
        <time>2020-06-20T10:16:22.405Z</time>
      </trkpt>
      <trkpt lat="45.64749" lon="3.45995">
        <ele>491.50332641602</ele>
        <time>2020-06-20T10:16:27.982Z</time>
      </trkpt>
      <trkpt lat="45.64544" lon="3.46008">
        <ele>494.89367675781</ele>
        <time>2020-06-20T10:16:33.591Z</time>
      </trkpt>
      <trkpt lat="45.64477" lon="3.46024">
        <ele>494.97805786133</ele>
        <time>2020-06-20T10:16:39.211Z</time>
      </trkpt>
      <trkpt lat="45.64469" lon="3.46024">
        <ele>494.61724853516</ele>
        <time>2020-06-20T10:16:44.833Z</time>
      </trkpt>
      <trkpt lat="45.64439" lon="3.46008">
        <ele>495.00930786133</ele>
        <time>2020-06-20T10:16:50.460Z</time>
      </trkpt>
      <trkpt lat="45.64327" lon="3.45965">
        <ele>495.17370605469</ele>
        <time>2020-06-20T10:16:56.105Z</time>
      </trkpt>
      <trkpt lat="45.64269" lon="3.45962">
        <ele>497.86959838867</ele>
        <time>2020-06-20T10:17:01.760Z</time>
      </trkpt>
      <trkpt lat="45.64222" lon="3.45979">
        <ele>499.81896972656</ele>
        <time>2020-06-20T10:17:07.422Z</time>
      </trkpt>
      <trkpt lat="45.64164" lon="3.46021">
        <ele>502.37997436523</ele>
        <time>2020-06-20T10:17:13.095Z</time>
      </trkpt>
      <trkpt lat="45.63897" lon="3.45986">
        <ele>508.47326660156</ele>
        <time>2020-06-20T10:17:18.811Z</time>
      </trkpt>
      <trkpt lat="45.63837" lon="3.45974">
        <ele>508.73986816406</ele>
        <time>2020-06-20T10:17:24.536Z</time>
      </trkpt>
      <trkpt lat="45.63809" lon="3.45915">
        <ele>509.2897644043</ele>
        <time>2020-06-20T10:17:30.269Z</time>
      </trkpt>
      <trkpt lat="45.63788" lon="3.45901">
        <ele>510.13693237305</ele>
        <time>2020-06-20T10:17:36.006Z</time>
      </trkpt>
      <trkpt lat="45.63788" lon="3.45901">
        <ele>510.13735961914</ele>
        <time>2020-06-20T10:17:41.743Z</time>
      </trkpt>
      <trkpt lat="45.63728" lon="3.4586">
        <ele>512.48944091797</ele>
        <time>2020-06-20T10:17:47.491Z</time>
      </trkpt>
      <trkpt lat="45.63627" lon="3.45826">
        <ele>514.74255371094</ele>
        <time>2020-06-20T10:17:53.255Z</time>
      </trkpt>
      <trkpt lat="45.63517" lon="3.45802">
        <ele>514.63140869141</ele>
        <time>2020-06-20T10:17:59.037Z</time>
      </trkpt>
      <trkpt lat="45.63391" lon="3.45722">
        <ele>511.80108642578</ele>
        <time>2020-06-20T10:18:04.841Z</time>
      </trkpt>
      <trkpt lat="45.63365" lon="3.45721">
        <ele>514.44421386719</ele>
        <time>2020-06-20T10:18:10.649Z</time>
      </trkpt>
      <trkpt lat="45.63365" lon="3.45721">
        <ele>514.44323730469</ele>
        <time>2020-06-20T10:18:16.457Z</time>
      </trkpt>
      <trkpt lat="45.63358" lon="3.4572">
        <ele>515.19079589844</ele>
        <time>2020-06-20T10:18:22.267Z</time>
      </trkpt>
      <trkpt lat="45.63358" lon="3.4572">
        <ele>515.18981933594</ele>
        <time>2020-06-20T10:18:28.077Z</time>
      </trkpt>
      <trkpt lat="45.63298" lon="3.45733">
        <ele>522.3154296875</ele>
        <time>2020-06-20T10:18:33.896Z</time>
      </trkpt>
      <trkpt lat="45.63199" lon="3.45708">
        <ele>533.22540283203</ele>
        <time>2020-06-20T10:18:39.731Z</time>
      </trkpt>
      <trkpt lat="45.63077" lon="3.45697">
        <ele>542.18957519531</ele>
        <time>2020-06-20T10:18:45.586Z</time>
      </trkpt>
      <trkpt lat="45.6299" lon="3.45711">
        <ele>542.08660888672</ele>
        <time>2020-06-20T10:18:51.455Z</time>
      </trkpt>
      <trkpt lat="45.62927" lon="3.45695">
        <ele>544.52618408203</ele>
        <time>2020-06-20T10:18:57.334Z</time>
      </trkpt>
      <trkpt lat="45.62892" lon="3.45686">
        <ele>545.55603027344</ele>
        <time>2020-06-20T10:19:03.219Z</time>
      </trkpt>
      <trkpt lat="45.62866" lon="3.45638">
        <ele>554.12701416016</ele>
        <time>2020-06-20T10:19:09.111Z</time>
      </trkpt>
      <trkpt lat="45.62815" lon="3.45584">
        <ele>557.99322509766</ele>
        <time>2020-06-20T10:19:15.013Z</time>
      </trkpt>
      <trkpt lat="45.62795" lon="3.4558">
        <ele>556.44128417969</ele>
        <time>2020-06-20T10:19:20.918Z</time>
      </trkpt>
      <trkpt lat="45.62759" lon="3.45637">
        <ele>552.73956298828</ele>
        <time>2020-06-20T10:19:26.832Z</time>
      </trkpt>
      <trkpt lat="45.62715" lon="3.45685">
        <ele>556.30914306641</ele>
        <time>2020-06-20T10:19:32.754Z</time>
      </trkpt>
      <trkpt lat="45.62684" lon="3.45709">
        <ele>559.16680908203</ele>
        <time>2020-06-20T10:19:38.682Z</time>
      </trkpt>
      <trkpt lat="45.62611" lon="3.45716">
        <ele>564.88751220703</ele>
        <time>2020-06-20T10:19:44.622Z</time>
      </trkpt>
      <trkpt lat="45.62547" lon="3.45684">
        <ele>573.63354492188</ele>
        <time>2020-06-20T10:19:50.573Z</time>
      </trkpt>
      <trkpt lat="45.62547" lon="3.45684">
        <ele>573.63372802734</ele>
        <time>2020-06-20T10:19:56.524Z</time>
      </trkpt>
      <trkpt lat="45.62528" lon="3.45694">
        <ele>571.6640625</ele>
        <time>2020-06-20T10:20:02.478Z</time>
      </trkpt>
      <trkpt lat="45.62519" lon="3.45711">
        <ele>568.78063964844</ele>
        <time>2020-06-20T10:20:08.434Z</time>
      </trkpt>
      <trkpt lat="45.62516" lon="3.45748">
        <ele>565.57458496094</ele>
        <time>2020-06-20T10:20:14.395Z</time>
      </trkpt>
      <trkpt lat="45.62492" lon="3.45776">
        <ele>567.8076171875</ele>
        <time>2020-06-20T10:20:20.361Z</time>
      </trkpt>
      <trkpt lat="45.62398" lon="3.4578">
        <ele>579.283203125</ele>
        <time>2020-06-20T10:20:26.342Z</time>
      </trkpt>
      <trkpt lat="45.62235" lon="3.45805">
        <ele>585.85552978516</ele>
        <time>2020-06-20T10:20:32.349Z</time>
      </trkpt>
      <trkpt lat="45.62235" lon="3.45805">
        <ele>585.85491943359</ele>
        <time>2020-06-20T10:20:38.356Z</time>
      </trkpt>
      <trkpt lat="45.62147" lon="3.45819">
        <ele>587.78649902344</ele>
        <time>2020-06-20T10:20:44.377Z</time>
      </trkpt>
      <trkpt lat="45.62104" lon="3.45811">
        <ele>588.80993652344</ele>
        <time>2020-06-20T10:20:50.405Z</time>
      </trkpt>
      <trkpt lat="45.6206" lon="3.45793">
        <ele>591.31237792969</ele>
        <time>2020-06-20T10:20:56.440Z</time>
      </trkpt>
      <trkpt lat="45.62004" lon="3.45713">
        <ele>605.22320556641</ele>
        <time>2020-06-20T10:21:02.488Z</time>
      </trkpt>
      <trkpt lat="45.61988" lon="3.45714">
        <ele>604.98803710938</ele>
        <time>2020-06-20T10:21:08.539Z</time>
      </trkpt>
      <trkpt lat="45.61973" lon="3.45734">
        <ele>602.56805419922</ele>
        <time>2020-06-20T10:21:14.593Z</time>
      </trkpt>
      <trkpt lat="45.61961" lon="3.45772">
        <ele>598.21942138672</ele>
        <time>2020-06-20T10:21:20.651Z</time>
      </trkpt>
      <trkpt lat="45.61932" lon="3.45779">
        <ele>600.72955322266</ele>
        <time>2020-06-20T10:21:26.714Z</time>
      </trkpt>
      <trkpt lat="45.6191" lon="3.4577">
        <ele>603.98626708984</ele>
        <time>2020-06-20T10:21:32.781Z</time>
      </trkpt>
      <trkpt lat="45.61854" lon="3.45728">
        <ele>610.78302001953</ele>
        <time>2020-06-20T10:21:38.858Z</time>
      </trkpt>
      <trkpt lat="45.61787" lon="3.45634">
        <ele>623.26531982422</ele>
        <time>2020-06-20T10:21:44.950Z</time>
      </trkpt>
      <trkpt lat="45.61753" lon="3.45603">
        <ele>627.96374511719</ele>
        <time>2020-06-20T10:21:51.049Z</time>
      </trkpt>
      <trkpt lat="45.61737" lon="3.45607">
        <ele>626.31604003906</ele>
        <time>2020-06-20T10:21:57.150Z</time>
      </trkpt>
      <trkpt lat="45.61727" lon="3.45623">
        <ele>623.65887451172</ele>
        <time>2020-06-20T10:22:03.254Z</time>
      </trkpt>
      <trkpt lat="45.61728" lon="3.45651">
        <ele>619.95159912109</ele>
        <time>2020-06-20T10:22:09.361Z</time>
      </trkpt>
      <trkpt lat="45.61749" lon="3.45733">
        <ele>611.06018066406</ele>
        <time>2020-06-20T10:22:15.477Z</time>
      </trkpt>
      <trkpt lat="45.61748" lon="3.45771">
        <ele>611.53125</ele>
        <time>2020-06-20T10:22:21.598Z</time>
      </trkpt>
      <trkpt lat="45.61734" lon="3.45803">
        <ele>611.96771240234</ele>
        <time>2020-06-20T10:22:27.723Z</time>
      </trkpt>
      <trkpt lat="45.61708" lon="3.45813">
        <ele>618.26086425781</ele>
        <time>2020-06-20T10:22:33.852Z</time>
      </trkpt>
      <trkpt lat="45.61663" lon="3.45814">
        <ele>628.96606445312</ele>
        <time>2020-06-20T10:22:39.988Z</time>
      </trkpt>
      <trkpt lat="45.61598" lon="3.45793">
        <ele>635.72082519531</ele>
        <time>2020-06-20T10:22:46.135Z</time>
      </trkpt>
      <trkpt lat="45.61518" lon="3.45788">
        <ele>633.71203613281</ele>
        <time>2020-06-20T10:22:52.295Z</time>
      </trkpt>
      <trkpt lat="45.61498" lon="3.45776">
        <ele>635.06359863281</ele>
        <time>2020-06-20T10:22:58.458Z</time>
      </trkpt>
      <trkpt lat="45.61475" lon="3.45748">
        <ele>640.59429931641</ele>
        <time>2020-06-20T10:23:04.626Z</time>
      </trkpt>
      <trkpt lat="45.6146" lon="3.45743">
        <ele>642.17962646484</ele>
        <time>2020-06-20T10:23:10.797Z</time>
      </trkpt>
      <trkpt lat="45.61443" lon="3.45759">
        <ele>641.12432861328</ele>
        <time>2020-06-20T10:23:16.971Z</time>
      </trkpt>
      <trkpt lat="45.61432" lon="3.45788">
        <ele>637.93194580078</ele>
        <time>2020-06-20T10:23:23.149Z</time>
      </trkpt>
      <trkpt lat="45.61419" lon="3.45798">
        <ele>638.31811523438</ele>
        <time>2020-06-20T10:23:29.329Z</time>
      </trkpt>
      <trkpt lat="45.61372" lon="3.45795">
        <ele>645.12060546875</ele>
        <time>2020-06-20T10:23:35.517Z</time>
      </trkpt>
      <trkpt lat="45.61355" lon="3.45807">
        <ele>644.3740234375</ele>
        <time>2020-06-20T10:23:41.708Z</time>
      </trkpt>
      <trkpt lat="45.61349" lon="3.45834">
        <ele>642.50360107422</ele>
        <time>2020-06-20T10:23:47.902Z</time>
      </trkpt>
      <trkpt lat="45.61351" lon="3.45854">
        <ele>641.32641601562</ele>
        <time>2020-06-20T10:23:54.098Z</time>
      </trkpt>
      <trkpt lat="45.6136" lon="3.45867">
        <ele>639.89758300781</ele>
        <time>2020-06-20T10:24:00.296Z</time>
      </trkpt>
      <trkpt lat="45.61395" lon="3.45885">
        <ele>634.49548339844</ele>
        <time>2020-06-20T10:24:06.500Z</time>
      </trkpt>
      <trkpt lat="45.61426" lon="3.45919">
        <ele>630.83972167969</ele>
        <time>2020-06-20T10:24:12.710Z</time>
      </trkpt>
      <trkpt lat="45.61441" lon="3.45963">
        <ele>632.65661621094</ele>
        <time>2020-06-20T10:24:18.926Z</time>
      </trkpt>
      <trkpt lat="45.61448" lon="3.46016">
        <ele>637.40362548828</ele>
        <time>2020-06-20T10:24:25.148Z</time>
      </trkpt>
      <trkpt lat="45.61409" lon="3.46243">
        <ele>650.70825195312</ele>
        <time>2020-06-20T10:24:31.396Z</time>
      </trkpt>
      <trkpt lat="45.61342" lon="3.46227">
        <ele>647.94342041016</ele>
        <time>2020-06-20T10:24:37.655Z</time>
      </trkpt>
      <trkpt lat="45.61308" lon="3.46229">
        <ele>645.90954589844</ele>
        <time>2020-06-20T10:24:43.920Z</time>
      </trkpt>
      <trkpt lat="45.61257" lon="3.46244">
        <ele>640.95855712891</ele>
        <time>2020-06-20T10:24:50.193Z</time>
      </trkpt>
      <trkpt lat="45.61257" lon="3.46244">
        <ele>640.95916748047</ele>
        <time>2020-06-20T10:24:56.466Z</time>
      </trkpt>
      <trkpt lat="45.61204" lon="3.46239">
        <ele>637.35943603516</ele>
        <time>2020-06-20T10:25:02.747Z</time>
      </trkpt>
      <trkpt lat="45.61135" lon="3.46177">
        <ele>631.22503662109</ele>
        <time>2020-06-20T10:25:09.041Z</time>
      </trkpt>
      <trkpt lat="45.61102" lon="3.46156">
        <ele>633.40704345703</ele>
        <time>2020-06-20T10:25:15.341Z</time>
      </trkpt>
      <trkpt lat="45.61044" lon="3.46146">
        <ele>636.22973632812</ele>
        <time>2020-06-20T10:25:21.651Z</time>
      </trkpt>
      <trkpt lat="45.60977" lon="3.46155">
        <ele>632.66516113281</ele>
        <time>2020-06-20T10:25:27.971Z</time>
      </trkpt>
      <trkpt lat="45.60873" lon="3.46108">
        <ele>622.91461181641</ele>
        <time>2020-06-20T10:25:34.309Z</time>
      </trkpt>
      <trkpt lat="45.60843" lon="3.46088">
        <ele>622.58984375</ele>
        <time>2020-06-20T10:25:40.652Z</time>
      </trkpt>
      <trkpt lat="45.60801" lon="3.46068">
        <ele>623.88098144531</ele>
        <time>2020-06-20T10:25:47.002Z</time>
      </trkpt>
      <trkpt lat="45.60782" lon="3.4604">
        <ele>622.876953125</ele>
        <time>2020-06-20T10:25:53.357Z</time>
      </trkpt>
      <trkpt lat="45.6075" lon="3.46057">
        <ele>624.10858154297</ele>
        <time>2020-06-20T10:25:59.717Z</time>
      </trkpt>
      <trkpt lat="45.60679" lon="3.46126">
        <ele>634.07025146484</ele>
        <time>2020-06-20T10:26:06.091Z</time>
      </trkpt>
      <trkpt lat="45.60679" lon="3.46126">
        <ele>634.07037353516</ele>
        <time>2020-06-20T10:26:12.465Z</time>
      </trkpt>
      <trkpt lat="45.60399" lon="3.46019">
        <ele>603.58862304688</ele>
        <time>2020-06-20T10:26:18.885Z</time>
      </trkpt>
      <trkpt lat="45.60311" lon="3.46004">
        <ele>604.55267333984</ele>
        <time>2020-06-20T10:26:25.319Z</time>
      </trkpt>
      <trkpt lat="45.60293" lon="3.46023">
        <ele>607.01617431641</ele>
        <time>2020-06-20T10:26:31.757Z</time>
      </trkpt>
      <trkpt lat="45.60284" lon="3.46023">
        <ele>608.45788574219</ele>
        <time>2020-06-20T10:26:38.196Z</time>
      </trkpt>
      <trkpt lat="45.60267" lon="3.45987">
        <ele>612.57977294922</ele>
        <time>2020-06-20T10:26:44.640Z</time>
      </trkpt>
      <trkpt lat="45.60191" lon="3.4596">
        <ele>625.99438476562</ele>
        <time>2020-06-20T10:26:51.097Z</time>
      </trkpt>
      <trkpt lat="45.60143" lon="3.45908">
        <ele>634.87365722656</ele>
        <time>2020-06-20T10:26:57.564Z</time>
      </trkpt>
      <trkpt lat="45.60107" lon="3.45934">
        <ele>635.85833740234</ele>
        <time>2020-06-20T10:27:04.037Z</time>
      </trkpt>
      <trkpt lat="45.60079" lon="3.45974">
        <ele>634.19104003906</ele>
        <time>2020-06-20T10:27:10.516Z</time>
      </trkpt>
      <trkpt lat="45.60043" lon="3.46033">
        <ele>637.31884765625</ele>
        <time>2020-06-20T10:27:17.004Z</time>
      </trkpt>
      <trkpt lat="45.60032" lon="3.46067">
        <ele>637.70501708984</ele>
        <time>2020-06-20T10:27:23.496Z</time>
      </trkpt>
      <trkpt lat="45.60038" lon="3.461">
        <ele>638.27355957031</ele>
        <time>2020-06-20T10:27:29.992Z</time>
      </trkpt>
      <trkpt lat="45.60051" lon="3.4624">
        <ele>651.95874023438</ele>
        <time>2020-06-20T10:27:36.504Z</time>
      </trkpt>
      <trkpt lat="45.60067" lon="3.46327">
        <ele>660.4404296875</ele>
        <time>2020-06-20T10:27:43.026Z</time>
      </trkpt>
      <trkpt lat="45.60043" lon="3.46535">
        <ele>673.54534912109</ele>
        <time>2020-06-20T10:27:49.572Z</time>
      </trkpt>
      <trkpt lat="45.60043" lon="3.46535">
        <ele>673.54504394531</ele>
        <time>2020-06-20T10:27:56.118Z</time>
      </trkpt>
      <trkpt lat="45.60042" lon="3.4667">
        <ele>675.32507324219</ele>
        <time>2020-06-20T10:28:02.679Z</time>
      </trkpt>
      <trkpt lat="45.60047" lon="3.46686">
        <ele>675.40032958984</ele>
        <time>2020-06-20T10:28:09.242Z</time>
      </trkpt>
      <trkpt lat="45.60029" lon="3.46796">
        <ele>684.56262207031</ele>
        <time>2020-06-20T10:28:15.817Z</time>
      </trkpt>
      <trkpt lat="45.6" lon="3.46882">
        <ele>686.30047607422</ele>
        <time>2020-06-20T10:28:22.403Z</time>
      </trkpt>
      <trkpt lat="45.6" lon="3.46882">
        <ele>686.30041503906</ele>
        <time>2020-06-20T10:28:28.989Z</time>
      </trkpt>
      <trkpt lat="45.59957" lon="3.46986">
        <ele>691.84509277344</ele>
        <time>2020-06-20T10:28:35.589Z</time>
      </trkpt>
      <trkpt lat="45.5985" lon="3.47181">
        <ele>704.20489501953</ele>
        <time>2020-06-20T10:28:42.217Z</time>
      </trkpt>
      <trkpt lat="45.59763" lon="3.47409">
        <ele>715.51983642578</ele>
        <time>2020-06-20T10:28:48.874Z</time>
      </trkpt>
      <trkpt lat="45.59715" lon="3.47476">
        <ele>723.20172119141</ele>
        <time>2020-06-20T10:28:55.542Z</time>
      </trkpt>
      <trkpt lat="45.5971" lon="3.47482">
        <ele>724.02557373047</ele>
        <time>2020-06-20T10:29:02.211Z</time>
      </trkpt>
      <trkpt lat="45.5964" lon="3.47615">
        <ele>737.61657714844</ele>
        <time>2020-06-20T10:29:08.898Z</time>
      </trkpt>
      <trkpt lat="45.59614" lon="3.47702">
        <ele>743.12145996094</ele>
        <time>2020-06-20T10:29:15.596Z</time>
      </trkpt>
      <trkpt lat="45.59607" lon="3.478">
        <ele>745.95892333984</ele>
        <time>2020-06-20T10:29:22.305Z</time>
      </trkpt>
      <trkpt lat="45.59612" lon="3.47847">
        <ele>749.44622802734</ele>
        <time>2020-06-20T10:29:29.019Z</time>
      </trkpt>
      <trkpt lat="45.59612" lon="3.47847">
        <ele>749.44500732422</ele>
        <time>2020-06-20T10:29:35.733Z</time>
      </trkpt>
      <trkpt lat="45.59614" lon="3.47886">
        <ele>754.26611328125</ele>
        <time>2020-06-20T10:29:42.452Z</time>
      </trkpt>
      <trkpt lat="45.59608" lon="3.47925">
        <ele>758.48547363281</ele>
        <time>2020-06-20T10:29:49.175Z</time>
      </trkpt>
      <trkpt lat="45.59597" lon="3.47944">
        <ele>758.82281494141</ele>
        <time>2020-06-20T10:29:55.901Z</time>
      </trkpt>
      <trkpt lat="45.59564" lon="3.47972">
        <ele>758.77850341797</ele>
        <time>2020-06-20T10:30:02.633Z</time>
      </trkpt>
      <trkpt lat="45.59506" lon="3.48077">
        <ele>763.44476318359</ele>
        <time>2020-06-20T10:30:09.380Z</time>
      </trkpt>
      <trkpt lat="45.59437" lon="3.48184">
        <ele>768.0458984375</ele>
        <time>2020-06-20T10:30:16.143Z</time>
      </trkpt>
      <trkpt lat="45.59424" lon="3.48217">
        <ele>769.64208984375</ele>
        <time>2020-06-20T10:30:22.911Z</time>
      </trkpt>
      <trkpt lat="45.59384" lon="3.48364">
        <ele>773.34808349609</ele>
        <time>2020-06-20T10:30:29.696Z</time>
      </trkpt>
      <trkpt lat="45.59375" lon="3.48461">
        <ele>775.99774169922</ele>
        <time>2020-06-20T10:30:36.492Z</time>
      </trkpt>
      <trkpt lat="45.59368" lon="3.48526">
        <ele>777.79705810547</ele>
        <time>2020-06-20T10:30:43.296Z</time>
      </trkpt>
      <trkpt lat="45.59381" lon="3.48685">
        <ele>781.33465576172</ele>
        <time>2020-06-20T10:30:50.118Z</time>
      </trkpt>
      <trkpt lat="45.59185" lon="3.48746">
        <ele>791.28796386719</ele>
        <time>2020-06-20T10:30:56.972Z</time>
      </trkpt>
      <trkpt lat="45.59175" lon="3.4875">
        <ele>792.74188232422</ele>
        <time>2020-06-20T10:31:03.827Z</time>
      </trkpt>
      <trkpt lat="45.59175" lon="3.4875">
        <ele>792.76800537109</ele>
        <time>2020-06-20T10:31:10.682Z</time>
      </trkpt>
      <trkpt lat="45.59175" lon="3.4875">
        <ele>792.76916503906</ele>
        <time>2020-06-20T10:31:17.537Z</time>
      </trkpt>
      <trkpt lat="45.59047" lon="3.48805">
        <ele>802.69555664062</ele>
        <time>2020-06-20T10:31:24.414Z</time>
      </trkpt>
      <trkpt lat="45.59023" lon="3.48833">
        <ele>803.56658935547</ele>
        <time>2020-06-20T10:31:31.296Z</time>
      </trkpt>
      <trkpt lat="45.59022" lon="3.48886">
        <ele>806.75073242188</ele>
        <time>2020-06-20T10:31:38.184Z</time>
      </trkpt>
      <trkpt lat="45.59034" lon="3.4902">
        <ele>813.44494628906</ele>
        <time>2020-06-20T10:31:45.087Z</time>
      </trkpt>
      <trkpt lat="45.59027" lon="3.49055">
        <ele>811.51409912109</ele>
        <time>2020-06-20T10:31:51.994Z</time>
      </trkpt>
      <trkpt lat="45.58999" lon="3.49101">
        <ele>811.47564697266</ele>
        <time>2020-06-20T10:31:58.908Z</time>
      </trkpt>
      <trkpt lat="45.5893" lon="3.49157">
        <ele>813.36108398438</ele>
        <time>2020-06-20T10:32:05.835Z</time>
      </trkpt>
      <trkpt lat="45.58887" lon="3.49181">
        <ele>813.85028076172</ele>
        <time>2020-06-20T10:32:12.769Z</time>
      </trkpt>
      <trkpt lat="45.58806" lon="3.49201">
        <ele>816.24926757812</ele>
        <time>2020-06-20T10:32:19.716Z</time>
      </trkpt>
      <trkpt lat="45.58761" lon="3.49191">
        <ele>816.45349121094</ele>
        <time>2020-06-20T10:32:26.671Z</time>
      </trkpt>
      <trkpt lat="45.5875" lon="3.49182">
        <ele>815.80139160156</ele>
        <time>2020-06-20T10:32:33.628Z</time>
      </trkpt>
      <trkpt lat="45.58721" lon="3.49124">
        <ele>814.75872802734</ele>
        <time>2020-06-20T10:32:40.593Z</time>
      </trkpt>
      <trkpt lat="45.58692" lon="3.49093">
        <ele>814.4541015625</ele>
        <time>2020-06-20T10:32:47.563Z</time>
      </trkpt>
      <trkpt lat="45.58664" lon="3.4907">
        <ele>814.58306884766</ele>
        <time>2020-06-20T10:32:54.539Z</time>
      </trkpt>
      <trkpt lat="45.58631" lon="3.49063">
        <ele>815.29382324219</ele>
        <time>2020-06-20T10:33:01.520Z</time>
      </trkpt>
      <trkpt lat="45.58631" lon="3.4907">
        <ele>815.47406005859</ele>
        <time>2020-06-20T10:33:08.502Z</time>
      </trkpt>
      <trkpt lat="45.58611" lon="3.49077">
        <ele>816.60681152344</ele>
        <time>2020-06-20T10:33:15.487Z</time>
      </trkpt>
      <trkpt lat="45.58586" lon="3.49063">
        <ele>817.45635986328</ele>
        <time>2020-06-20T10:33:22.476Z</time>
      </trkpt>
      <trkpt lat="45.58549" lon="3.49075">
        <ele>819.34191894531</ele>
        <time>2020-06-20T10:33:29.471Z</time>
      </trkpt>
      <trkpt lat="45.58524" lon="3.49082">
        <ele>819.14288330078</ele>
        <time>2020-06-20T10:33:36.471Z</time>
      </trkpt>
      <trkpt lat="45.58493" lon="3.49091">
        <ele>819.55480957031</ele>
        <time>2020-06-20T10:33:43.476Z</time>
      </trkpt>
      <trkpt lat="45.58421" lon="3.49101">
        <ele>817.79193115234</ele>
        <time>2020-06-20T10:33:50.492Z</time>
      </trkpt>
      <trkpt lat="45.58364" lon="3.49048">
        <ele>811.23614501953</ele>
        <time>2020-06-20T10:33:57.519Z</time>
      </trkpt>
      <trkpt lat="45.58291" lon="3.49027">
        <ele>806.77984619141</ele>
        <time>2020-06-20T10:34:04.558Z</time>
      </trkpt>
      <trkpt lat="45.58261" lon="3.49039">
        <ele>807.19177246094</ele>
        <time>2020-06-20T10:34:11.602Z</time>
      </trkpt>
      <trkpt lat="45.58207" lon="3.4908">
        <ele>812.09771728516</ele>
        <time>2020-06-20T10:34:18.656Z</time>
      </trkpt>
      <trkpt lat="45.58175" lon="3.49136">
        <ele>813.35034179688</ele>
        <time>2020-06-20T10:34:25.718Z</time>
      </trkpt>
      <trkpt lat="45.58158" lon="3.49199">
        <ele>812.59844970703</ele>
        <time>2020-06-20T10:34:32.787Z</time>
      </trkpt>
      <trkpt lat="45.58137" lon="3.49219">
        <ele>811.02368164062</ele>
        <time>2020-06-20T10:34:39.860Z</time>
      </trkpt>
      <trkpt lat="45.58115" lon="3.49212">
        <ele>810.84936523438</ele>
        <time>2020-06-20T10:34:46.937Z</time>
      </trkpt>
      <trkpt lat="45.58063" lon="3.49143">
        <ele>809.27032470703</ele>
        <time>2020-06-20T10:34:54.025Z</time>
      </trkpt>
      <trkpt lat="45.58049" lon="3.49139">
        <ele>809.38061523438</ele>
        <time>2020-06-20T10:35:01.116Z</time>
      </trkpt>
      <trkpt lat="45.57911" lon="3.49213">
        <ele>813.06848144531</ele>
        <time>2020-06-20T10:35:08.230Z</time>
      </trkpt>
      <trkpt lat="45.57747" lon="3.49231">
        <ele>813.39666748047</ele>
        <time>2020-06-20T10:35:15.371Z</time>
      </trkpt>
      <trkpt lat="45.57705" lon="3.4926">
        <ele>817.13598632812</ele>
        <time>2020-06-20T10:35:22.519Z</time>
      </trkpt>
      <trkpt lat="45.57643" lon="3.49349">
        <ele>817.99700927734</ele>
        <time>2020-06-20T10:35:29.681Z</time>
      </trkpt>
      <trkpt lat="45.57556" lon="3.49387">
        <ele>814.98248291016</ele>
        <time>2020-06-20T10:35:36.858Z</time>
      </trkpt>
      <trkpt lat="45.57485" lon="3.49366">
        <ele>816.16156005859</ele>
        <time>2020-06-20T10:35:44.046Z</time>
      </trkpt>
      <trkpt lat="45.57468" lon="3.49298">
        <ele>814.74749755859</ele>
        <time>2020-06-20T10:35:51.243Z</time>
      </trkpt>
      <trkpt lat="45.57404" lon="3.49247">
        <ele>818.47937011719</ele>
        <time>2020-06-20T10:35:58.451Z</time>
      </trkpt>
      <trkpt lat="45.57329" lon="3.49194">
        <ele>822.21240234375</ele>
        <time>2020-06-20T10:36:05.673Z</time>
      </trkpt>
      <trkpt lat="45.57286" lon="3.49187">
        <ele>824.80163574219</ele>
        <time>2020-06-20T10:36:12.902Z</time>
      </trkpt>
      <trkpt lat="45.57254" lon="3.49197">
        <ele>826.50079345703</ele>
        <time>2020-06-20T10:36:20.136Z</time>
      </trkpt>
      <trkpt lat="45.57254" lon="3.49197">
        <ele>826.50054931641</ele>
        <time>2020-06-20T10:36:27.370Z</time>
      </trkpt>
      <trkpt lat="45.57179" lon="3.4921">
        <ele>830.63836669922</ele>
        <time>2020-06-20T10:36:34.616Z</time>
      </trkpt>
      <trkpt lat="45.57179" lon="3.4921">
        <ele>830.63830566406</ele>
        <time>2020-06-20T10:36:41.862Z</time>
      </trkpt>
      <trkpt lat="45.57127" lon="3.49234">
        <ele>834.46893310547</ele>
        <time>2020-06-20T10:36:49.117Z</time>
      </trkpt>
      <trkpt lat="45.57058" lon="3.49309">
        <ele>839.64208984375</ele>
        <time>2020-06-20T10:36:56.386Z</time>
      </trkpt>
      <trkpt lat="45.56991" lon="3.49341">
        <ele>840.30218505859</ele>
        <time>2020-06-20T10:37:03.666Z</time>
      </trkpt>
      <trkpt lat="45.56933" lon="3.49403">
        <ele>848.32446289062</ele>
        <time>2020-06-20T10:37:10.958Z</time>
      </trkpt>
      <trkpt lat="45.56889" lon="3.49463">
        <ele>850.98968505859</ele>
        <time>2020-06-20T10:37:18.259Z</time>
      </trkpt>
      <trkpt lat="45.56845" lon="3.49498">
        <ele>852.64642333984</ele>
        <time>2020-06-20T10:37:25.568Z</time>
      </trkpt>
      <trkpt lat="45.56811" lon="3.49538">
        <ele>850.89196777344</ele>
        <time>2020-06-20T10:37:32.884Z</time>
      </trkpt>
      <trkpt lat="45.56799" lon="3.49569">
        <ele>852.3447265625</ele>
        <time>2020-06-20T10:37:40.204Z</time>
      </trkpt>
      <trkpt lat="45.568" lon="3.49601">
        <ele>853.9375</ele>
        <time>2020-06-20T10:37:47.528Z</time>
      </trkpt>
      <trkpt lat="45.56783" lon="3.49674">
        <ele>854.0400390625</ele>
        <time>2020-06-20T10:37:54.861Z</time>
      </trkpt>
      <trkpt lat="45.56738" lon="3.49732">
        <ele>853.93218994141</ele>
        <time>2020-06-20T10:38:02.203Z</time>
      </trkpt>
      <trkpt lat="45.56705" lon="3.49749">
        <ele>855.87701416016</ele>
        <time>2020-06-20T10:38:09.551Z</time>
      </trkpt>
      <trkpt lat="45.56486" lon="3.49818">
        <ele>859.89703369141</ele>
        <time>2020-06-20T10:38:16.935Z</time>
      </trkpt>
      <trkpt lat="45.56486" lon="3.49818">
        <ele>859.89733886719</ele>
        <time>2020-06-20T10:38:24.319Z</time>
      </trkpt>
      <trkpt lat="45.56464" lon="3.49828">
        <ele>859.75701904297</ele>
        <time>2020-06-20T10:38:31.707Z</time>
      </trkpt>
      <trkpt lat="45.56308" lon="3.49969">
        <ele>860.42346191406</ele>
        <time>2020-06-20T10:38:39.124Z</time>
      </trkpt>
      <trkpt lat="45.56231" lon="3.50069">
        <ele>857.83996582031</ele>
        <time>2020-06-20T10:38:46.558Z</time>
      </trkpt>
      <trkpt lat="45.56193" lon="3.50099">
        <ele>853.73773193359</ele>
        <time>2020-06-20T10:38:53.999Z</time>
      </trkpt>
      <trkpt lat="45.56128" lon="3.50153">
        <ele>851.09460449219</ele>
        <time>2020-06-20T10:39:01.452Z</time>
      </trkpt>
      <trkpt lat="45.56027" lon="3.50217">
        <ele>841.83764648438</ele>
        <time>2020-06-20T10:39:08.923Z</time>
      </trkpt>
      <trkpt lat="45.55996" lon="3.50249">
        <ele>841.24713134766</ele>
        <time>2020-06-20T10:39:16.400Z</time>
      </trkpt>
      <trkpt lat="45.55829" lon="3.50276">
        <ele>841.36065673828</ele>
        <time>2020-06-20T10:39:23.904Z</time>
      </trkpt>
      <trkpt lat="45.5581" lon="3.50255">
        <ele>838.38848876953</ele>
        <time>2020-06-20T10:39:31.412Z</time>
      </trkpt>
      <trkpt lat="45.55808" lon="3.50233">
        <ele>837.07550048828</ele>
        <time>2020-06-20T10:39:38.922Z</time>
      </trkpt>
      <trkpt lat="45.55829" lon="3.50158">
        <ele>831.10620117188</ele>
        <time>2020-06-20T10:39:46.441Z</time>
      </trkpt>
      <trkpt lat="45.5583" lon="3.50129">
        <ele>829.986328125</ele>
        <time>2020-06-20T10:39:53.963Z</time>
      </trkpt>
      <trkpt lat="45.55805" lon="3.50085">
        <ele>830.89349365234</ele>
        <time>2020-06-20T10:40:01.492Z</time>
      </trkpt>
      <trkpt lat="45.5578" lon="3.50067">
        <ele>830.40307617188</ele>
        <time>2020-06-20T10:40:09.025Z</time>
      </trkpt>
      <trkpt lat="45.55704" lon="3.50065">
        <ele>831.71325683594</ele>
        <time>2020-06-20T10:40:16.570Z</time>
      </trkpt>
      <trkpt lat="45.55653" lon="3.50033">
        <ele>827.77429199219</ele>
        <time>2020-06-20T10:40:24.124Z</time>
      </trkpt>
      <trkpt lat="45.55512" lon="3.50041">
        <ele>822.30810546875</ele>
        <time>2020-06-20T10:40:31.701Z</time>
      </trkpt>
      <trkpt lat="45.55491" lon="3.50015">
        <ele>819.93591308594</ele>
        <time>2020-06-20T10:40:39.282Z</time>
      </trkpt>
      <trkpt lat="45.55464" lon="3.50002">
        <ele>817.08355712891</ele>
        <time>2020-06-20T10:40:46.868Z</time>
      </trkpt>
      <trkpt lat="45.55388" lon="3.50008">
        <ele>817.19738769531</ele>
        <time>2020-06-20T10:40:54.466Z</time>
      </trkpt>
      <trkpt lat="45.55376" lon="3.49991">
        <ele>815.61108398438</ele>
        <time>2020-06-20T10:41:02.067Z</time>
      </trkpt>
      <trkpt lat="45.55374" lon="3.49966">
        <ele>813.26818847656</ele>
        <time>2020-06-20T10:41:09.671Z</time>
      </trkpt>
      <trkpt lat="45.55381" lon="3.49941">
        <ele>810.80963134766</ele>
        <time>2020-06-20T10:41:17.278Z</time>
      </trkpt>
      <trkpt lat="45.55379" lon="3.49906">
        <ele>807.76531982422</ele>
        <time>2020-06-20T10:41:24.889Z</time>
      </trkpt>
      <trkpt lat="45.55371" lon="3.49885">
        <ele>806.06610107422</ele>
        <time>2020-06-20T10:41:32.502Z</time>
      </trkpt>
      <trkpt lat="45.55314" lon="3.49842">
        <ele>803.34521484375</ele>
        <time>2020-06-20T10:41:40.126Z</time>
      </trkpt>
      <trkpt lat="45.55293" lon="3.49815">
        <ele>801.88806152344</ele>
        <time>2020-06-20T10:41:47.754Z</time>
      </trkpt>
      <trkpt lat="45.55266" lon="3.49797">
        <ele>800.7939453125</ele>
        <time>2020-06-20T10:41:55.387Z</time>
      </trkpt>
      <trkpt lat="45.55218" lon="3.49792">
        <ele>801.43957519531</ele>
        <time>2020-06-20T10:42:03.028Z</time>
      </trkpt>
      <trkpt lat="45.55197" lon="3.49801">
        <ele>801.02630615234</ele>
        <time>2020-06-20T10:42:10.672Z</time>
      </trkpt>
      <trkpt lat="45.55177" lon="3.49828">
        <ele>802.01232910156</ele>
        <time>2020-06-20T10:42:18.320Z</time>
      </trkpt>
      <trkpt lat="45.55169" lon="3.4983">
        <ele>801.44665527344</ele>
        <time>2020-06-20T10:42:25.970Z</time>
      </trkpt>
      <trkpt lat="45.55182" lon="3.49802">
        <ele>800.22821044922</ele>
        <time>2020-06-20T10:42:33.624Z</time>
      </trkpt>
      <trkpt lat="45.55229" lon="3.49756">
        <ele>798.86962890625</ele>
        <time>2020-06-20T10:42:41.287Z</time>
      </trkpt>
      <trkpt lat="45.55254" lon="3.49743">
        <ele>798.71514892578</ele>
        <time>2020-06-20T10:42:48.954Z</time>
      </trkpt>
      <trkpt lat="45.55319" lon="3.49745">
        <ele>797.74725341797</ele>
        <time>2020-06-20T10:42:56.631Z</time>
      </trkpt>
      <trkpt lat="45.55348" lon="3.49748">
        <ele>797.55426025391</ele>
        <time>2020-06-20T10:43:04.313Z</time>
      </trkpt>
      <trkpt lat="45.55392" lon="3.49727">
        <ele>798.43817138672</ele>
        <time>2020-06-20T10:43:12.003Z</time>
      </trkpt>
      <trkpt lat="45.55421" lon="3.49664">
        <ele>803.07702636719</ele>
        <time>2020-06-20T10:43:19.701Z</time>
      </trkpt>
      <trkpt lat="45.55431" lon="3.49557">
        <ele>806.43676757812</ele>
        <time>2020-06-20T10:43:27.411Z</time>
      </trkpt>
      <trkpt lat="45.5542" lon="3.49531">
        <ele>804.82775878906</ele>
        <time>2020-06-20T10:43:35.125Z</time>
      </trkpt>
      <trkpt lat="45.55393" lon="3.49474">
        <ele>800.70697021484</ele>
        <time>2020-06-20T10:43:42.846Z</time>
      </trkpt>
      <trkpt lat="45.55361" lon="3.49377">
        <ele>797.16723632812</ele>
        <time>2020-06-20T10:43:50.579Z</time>
      </trkpt>
      <trkpt lat="45.55353" lon="3.49326">
        <ele>797.80450439453</ele>
        <time>2020-06-20T10:43:58.318Z</time>
      </trkpt>
      <trkpt lat="45.55359" lon="3.4927">
        <ele>794.34655761719</ele>
        <time>2020-06-20T10:44:06.064Z</time>
      </trkpt>
      <trkpt lat="45.55387" lon="3.4922">
        <ele>788.46429443359</ele>
        <time>2020-06-20T10:44:13.817Z</time>
      </trkpt>
      <trkpt lat="45.5558" lon="3.4911">
        <ele>794.16046142578</ele>
        <time>2020-06-20T10:44:21.603Z</time>
      </trkpt>
      <trkpt lat="45.55625" lon="3.49052">
        <ele>794.88293457031</ele>
        <time>2020-06-20T10:44:29.399Z</time>
      </trkpt>
      <trkpt lat="45.55671" lon="3.49009">
        <ele>798.90161132812</ele>
        <time>2020-06-20T10:44:37.204Z</time>
      </trkpt>
      <trkpt lat="45.55675" lon="3.48994">
        <ele>800.67797851562</ele>
        <time>2020-06-20T10:44:45.010Z</time>
      </trkpt>
      <trkpt lat="45.55674" lon="3.48973">
        <ele>801.71179199219</ele>
        <time>2020-06-20T10:44:52.819Z</time>
      </trkpt>
      <trkpt lat="45.55663" lon="3.48949">
        <ele>799.70367431641</ele>
        <time>2020-06-20T10:45:00.631Z</time>
      </trkpt>
      <trkpt lat="45.55623" lon="3.48929">
        <ele>792.83416748047</ele>
        <time>2020-06-20T10:45:08.450Z</time>
      </trkpt>
      <trkpt lat="45.55608" lon="3.48903">
        <ele>790.84313964844</ele>
        <time>2020-06-20T10:45:16.273Z</time>
      </trkpt>
      <trkpt lat="45.55556" lon="3.48756">
        <ele>782.90045166016</ele>
        <time>2020-06-20T10:45:24.114Z</time>
      </trkpt>
      <trkpt lat="45.55556" lon="3.48719">
        <ele>781.58746337891</ele>
        <time>2020-06-20T10:45:31.959Z</time>
      </trkpt>
      <trkpt lat="45.55594" lon="3.4867">
        <ele>788.13354492188</ele>
        <time>2020-06-20T10:45:39.812Z</time>
      </trkpt>
      <trkpt lat="45.55604" lon="3.48652">
        <ele>789.12475585938</ele>
        <time>2020-06-20T10:45:47.668Z</time>
      </trkpt>
      <trkpt lat="45.55614" lon="3.48573">
        <ele>784.34252929688</ele>
        <time>2020-06-20T10:45:55.533Z</time>
      </trkpt>
      <trkpt lat="45.55614" lon="3.48573">
        <ele>784.34020996094</ele>
        <time>2020-06-20T10:46:03.398Z</time>
      </trkpt>
      <trkpt lat="45.55608" lon="3.48475">
        <ele>786.25860595703</ele>
        <time>2020-06-20T10:46:11.274Z</time>
      </trkpt>
      <trkpt lat="45.55592" lon="3.48401">
        <ele>784.75671386719</ele>
        <time>2020-06-20T10:46:19.159Z</time>
      </trkpt>
      <trkpt lat="45.55522" lon="3.48221">
        <ele>782.49530029297</ele>
        <time>2020-06-20T10:46:27.067Z</time>
      </trkpt>
      <trkpt lat="45.55468" lon="3.48189">
        <ele>776.40069580078</ele>
        <time>2020-06-20T10:46:34.984Z</time>
      </trkpt>
      <trkpt lat="45.55435" lon="3.48139">
        <ele>773.50122070312</ele>
        <time>2020-06-20T10:46:42.909Z</time>
      </trkpt>
      <trkpt lat="45.55421" lon="3.48083">
        <ele>776.01135253906</ele>
        <time>2020-06-20T10:46:50.841Z</time>
      </trkpt>
      <trkpt lat="45.55375" lon="3.47971">
        <ele>773.04193115234</ele>
        <time>2020-06-20T10:46:58.787Z</time>
      </trkpt>
      <trkpt lat="45.55373" lon="3.47922">
        <ele>773.60949707031</ele>
        <time>2020-06-20T10:47:06.739Z</time>
      </trkpt>
      <trkpt lat="45.55396" lon="3.47819">
        <ele>768.74829101562</ele>
        <time>2020-06-20T10:47:14.703Z</time>
      </trkpt>
      <trkpt lat="45.55422" lon="3.47751">
        <ele>766.93530273438</ele>
        <time>2020-06-20T10:47:22.676Z</time>
      </trkpt>
      <trkpt lat="45.55445" lon="3.47702">
        <ele>764.41986083984</ele>
        <time>2020-06-20T10:47:30.655Z</time>
      </trkpt>
      <trkpt lat="45.55519" lon="3.47652">
        <ele>767.01818847656</ele>
        <time>2020-06-20T10:47:38.647Z</time>
      </trkpt>
      <trkpt lat="45.55537" lon="3.47635">
        <ele>770.59930419922</ele>
        <time>2020-06-20T10:47:46.643Z</time>
      </trkpt>
      <trkpt lat="45.55543" lon="3.47619">
        <ele>772.1455078125</ele>
        <time>2020-06-20T10:47:54.641Z</time>
      </trkpt>
      <trkpt lat="45.55545" lon="3.47586">
        <ele>774.70758056641</ele>
        <time>2020-06-20T10:48:02.643Z</time>
      </trkpt>
      <trkpt lat="45.55538" lon="3.47566">
        <ele>776.0849609375</ele>
        <time>2020-06-20T10:48:10.647Z</time>
      </trkpt>
      <trkpt lat="45.55526" lon="3.47538">
        <ele>777.60388183594</ele>
        <time>2020-06-20T10:48:18.655Z</time>
      </trkpt>
      <trkpt lat="45.55466" lon="3.47448">
        <ele>774.64508056641</ele>
        <time>2020-06-20T10:48:26.677Z</time>
      </trkpt>
      <trkpt lat="45.55447" lon="3.47377">
        <ele>774.04559326172</ele>
        <time>2020-06-20T10:48:34.707Z</time>
      </trkpt>
      <trkpt lat="45.55421" lon="3.4732">
        <ele>769.03167724609</ele>
        <time>2020-06-20T10:48:42.745Z</time>
      </trkpt>
      <trkpt lat="45.55407" lon="3.47272">
        <ele>767.39361572266</ele>
        <time>2020-06-20T10:48:50.789Z</time>
      </trkpt>
      <trkpt lat="45.55432" lon="3.47108">
        <ele>775.74035644531</ele>
        <time>2020-06-20T10:48:58.852Z</time>
      </trkpt>
      <trkpt lat="45.55419" lon="3.47067">
        <ele>774.53033447266</ele>
        <time>2020-06-20T10:49:06.920Z</time>
      </trkpt>
      <trkpt lat="45.55377" lon="3.47014">
        <ele>764.84106445312</ele>
        <time>2020-06-20T10:49:14.997Z</time>
      </trkpt>
      <trkpt lat="45.55369" lon="3.4699">
        <ele>762.25848388672</ele>
        <time>2020-06-20T10:49:23.077Z</time>
      </trkpt>
      <trkpt lat="45.55365" lon="3.46955">
        <ele>760.224609375</ele>
        <time>2020-06-20T10:49:31.161Z</time>
      </trkpt>
      <trkpt lat="45.55381" lon="3.46904">
        <ele>757.15356445312</ele>
        <time>2020-06-20T10:49:39.251Z</time>
      </trkpt>
      <trkpt lat="45.55396" lon="3.46882">
        <ele>755.79382324219</ele>
        <time>2020-06-20T10:49:47.344Z</time>
      </trkpt>
      <trkpt lat="45.55396" lon="3.46882">
        <ele>755.79119873047</ele>
        <time>2020-06-20T10:49:55.437Z</time>
      </trkpt>
      <trkpt lat="45.55427" lon="3.4683">
        <ele>755.75500488281</ele>
        <time>2020-06-20T10:50:03.538Z</time>
      </trkpt>
      <trkpt lat="45.55482" lon="3.4676">
        <ele>755.59753417969</ele>
        <time>2020-06-20T10:50:11.651Z</time>
      </trkpt>
      <trkpt lat="45.55482" lon="3.4676">
        <ele>755.58758544922</ele>
        <time>2020-06-20T10:50:19.764Z</time>
      </trkpt>
      <trkpt lat="45.55482" lon="3.4676">
        <ele>755.59185791016</ele>
        <time>2020-06-20T10:50:27.877Z</time>
      </trkpt>
      <trkpt lat="45.55492" lon="3.46747">
        <ele>754.70446777344</ele>
        <time>2020-06-20T10:50:35.992Z</time>
      </trkpt>
      <trkpt lat="45.55543" lon="3.46664">
        <ele>751.70837402344</ele>
        <time>2020-06-20T10:50:44.119Z</time>
      </trkpt>
      <trkpt lat="45.55548" lon="3.4661">
        <ele>749.67687988281</ele>
        <time>2020-06-20T10:50:52.252Z</time>
      </trkpt>
      <trkpt lat="45.55516" lon="3.4652">
        <ele>743.11157226562</ele>
        <time>2020-06-20T10:51:00.397Z</time>
      </trkpt>
      <trkpt lat="45.55487" lon="3.46434">
        <ele>734.69232177734</ele>
        <time>2020-06-20T10:51:08.552Z</time>
      </trkpt>
      <trkpt lat="45.55504" lon="3.46369">
        <ele>730.38494873047</ele>
        <time>2020-06-20T10:51:16.715Z</time>
      </trkpt>
      <trkpt lat="45.55523" lon="3.46339">
        <ele>728.94158935547</ele>
        <time>2020-06-20T10:51:24.883Z</time>
      </trkpt>
      <trkpt lat="45.55585" lon="3.46311">
        <ele>735.60180664062</ele>
        <time>2020-06-20T10:51:33.061Z</time>
      </trkpt>
      <trkpt lat="45.55612" lon="3.46267">
        <ele>744.22796630859</ele>
        <time>2020-06-20T10:51:41.246Z</time>
      </trkpt>
      <trkpt lat="45.55613" lon="3.4625">
        <ele>744.78094482422</ele>
        <time>2020-06-20T10:51:49.433Z</time>
      </trkpt>
      <trkpt lat="45.55585" lon="3.46178">
        <ele>740.61694335938</ele>
        <time>2020-06-20T10:51:57.629Z</time>
      </trkpt>
      <trkpt lat="45.55526" lon="3.46081">
        <ele>726.52593994141</ele>
        <time>2020-06-20T10:52:05.839Z</time>
      </trkpt>
      <trkpt lat="45.55513" lon="3.46029">
        <ele>719.04705810547</ele>
        <time>2020-06-20T10:52:14.056Z</time>
      </trkpt>
      <trkpt lat="45.55544" lon="3.45956">
        <ele>717.55462646484</ele>
        <time>2020-06-20T10:52:22.282Z</time>
      </trkpt>
      <trkpt lat="45.55598" lon="3.45931">
        <ele>724.55236816406</ele>
        <time>2020-06-20T10:52:30.517Z</time>
      </trkpt>
      <trkpt lat="45.55607" lon="3.45886">
        <ele>726.89947509766</ele>
        <time>2020-06-20T10:52:38.758Z</time>
      </trkpt>
      <trkpt lat="45.55567" lon="3.45833">
        <ele>719.71258544922</ele>
        <time>2020-06-20T10:52:47.007Z</time>
      </trkpt>
      <trkpt lat="45.55546" lon="3.45787">
        <ele>718.32196044922</ele>
        <time>2020-06-20T10:52:55.262Z</time>
      </trkpt>
      <trkpt lat="45.555" lon="3.45634">
        <ele>713.94146728516</ele>
        <time>2020-06-20T10:53:03.536Z</time>
      </trkpt>
      <trkpt lat="45.55463" lon="3.4557">
        <ele>704.78631591797</ele>
        <time>2020-06-20T10:53:11.819Z</time>
      </trkpt>
      <trkpt lat="45.55457" lon="3.45548">
        <ele>702.68811035156</ele>
        <time>2020-06-20T10:53:20.105Z</time>
      </trkpt>
      <trkpt lat="45.55462" lon="3.45516">
        <ele>702.58258056641</ele>
        <time>2020-06-20T10:53:28.395Z</time>
      </trkpt>
      <trkpt lat="45.55475" lon="3.45485">
        <ele>702.56799316406</ele>
        <time>2020-06-20T10:53:36.689Z</time>
      </trkpt>
      <trkpt lat="45.55536" lon="3.45389">
        <ele>704.09088134766</ele>
        <time>2020-06-20T10:53:44.997Z</time>
      </trkpt>
      <trkpt lat="45.55559" lon="3.45333">
        <ele>697.72698974609</ele>
        <time>2020-06-20T10:53:53.313Z</time>
      </trkpt>
      <trkpt lat="45.55588" lon="3.45216">
        <ele>687.87707519531</ele>
        <time>2020-06-20T10:54:01.643Z</time>
      </trkpt>
      <trkpt lat="45.55602" lon="3.45201">
        <ele>688.25042724609</ele>
        <time>2020-06-20T10:54:09.975Z</time>
      </trkpt>
      <trkpt lat="45.55645" lon="3.45193">
        <ele>692.43103027344</ele>
        <time>2020-06-20T10:54:18.314Z</time>
      </trkpt>
      <trkpt lat="45.55654" lon="3.45178">
        <ele>693.84698486328</ele>
        <time>2020-06-20T10:54:26.656Z</time>
      </trkpt>
      <trkpt lat="45.55652" lon="3.45155">
        <ele>693.80834960938</ele>
        <time>2020-06-20T10:54:35.000Z</time>
      </trkpt>
      <trkpt lat="45.55623" lon="3.45097">
        <ele>689.27935791016</ele>
        <time>2020-06-20T10:54:43.352Z</time>
      </trkpt>
      <trkpt lat="45.55622" lon="3.45067">
        <ele>686.70867919922</ele>
        <time>2020-06-20T10:54:51.707Z</time>
      </trkpt>
      <trkpt lat="45.55636" lon="3.44994">
        <ele>682.34790039062</ele>
        <time>2020-06-20T10:55:00.071Z</time>
      </trkpt>
      <trkpt lat="45.55596" lon="3.4491">
        <ele>675.65002441406</ele>
        <time>2020-06-20T10:55:08.446Z</time>
      </trkpt>
      <trkpt lat="45.55567" lon="3.44846">
        <ele>673.38201904297</ele>
        <time>2020-06-20T10:55:16.830Z</time>
      </trkpt>
      <trkpt lat="45.55566" lon="3.44796">
        <ele>675.04376220703</ele>
        <time>2020-06-20T10:55:25.220Z</time>
      </trkpt>
      <trkpt lat="45.55566" lon="3.44796">
        <ele>675.04260253906</ele>
        <time>2020-06-20T10:55:33.610Z</time>
      </trkpt>
      <trkpt lat="45.55568" lon="3.44756">
        <ele>678.05523681641</ele>
        <time>2020-06-20T10:55:42.004Z</time>
      </trkpt>
      <trkpt lat="45.55559" lon="3.44726">
        <ele>678.93054199219</ele>
        <time>2020-06-20T10:55:50.402Z</time>
      </trkpt>
      <trkpt lat="45.55548" lon="3.44711">
        <ele>678.42913818359</ele>
        <time>2020-06-20T10:55:58.802Z</time>
      </trkpt>
      <trkpt lat="45.55522" lon="3.44701">
        <ele>678.00433349609</ele>
        <time>2020-06-20T10:56:07.207Z</time>
      </trkpt>
      <trkpt lat="45.55435" lon="3.44703">
        <ele>676.08319091797</ele>
        <time>2020-06-20T10:56:15.625Z</time>
      </trkpt>
      <trkpt lat="45.55374" lon="3.44748">
        <ele>668.72302246094</ele>
        <time>2020-06-20T10:56:24.054Z</time>
      </trkpt>
      <trkpt lat="45.55309" lon="3.44764">
        <ele>668.93518066406</ele>
        <time>2020-06-20T10:56:32.494Z</time>
      </trkpt>
      <trkpt lat="45.55245" lon="3.44739">
        <ele>665.66833496094</ele>
        <time>2020-06-20T10:56:40.945Z</time>
      </trkpt>
      <trkpt lat="45.55251" lon="3.44627">
        <ele>668.322265625</ele>
        <time>2020-06-20T10:56:49.408Z</time>
      </trkpt>
      <trkpt lat="45.55265" lon="3.44537">
        <ele>666.54974365234</ele>
        <time>2020-06-20T10:56:57.882Z</time>
      </trkpt>
      <trkpt lat="45.55302" lon="3.44458">
        <ele>659.91760253906</ele>
        <time>2020-06-20T10:57:06.366Z</time>
      </trkpt>
      <trkpt lat="45.5534" lon="3.44417">
        <ele>658.45245361328</ele>
        <time>2020-06-20T10:57:14.858Z</time>
      </trkpt>
      <trkpt lat="45.55388" lon="3.44339">
        <ele>655.20056152344</ele>
        <time>2020-06-20T10:57:23.362Z</time>
      </trkpt>
      <trkpt lat="45.55393" lon="3.44303">
        <ele>655.52288818359</ele>
        <time>2020-06-20T10:57:31.870Z</time>
      </trkpt>
      <trkpt lat="45.55396" lon="3.44247">
        <ele>659.13305664062</ele>
        <time>2020-06-20T10:57:40.384Z</time>
      </trkpt>
      <trkpt lat="45.55401" lon="3.44188">
        <ele>667.34997558594</ele>
        <time>2020-06-20T10:57:48.905Z</time>
      </trkpt>
      <trkpt lat="45.55371" lon="3.44094">
        <ele>677.10559082031</ele>
        <time>2020-06-20T10:57:57.437Z</time>
      </trkpt>
      <trkpt lat="45.5526" lon="3.43975">
        <ele>653.70593261719</ele>
        <time>2020-06-20T10:58:05.991Z</time>
      </trkpt>
      <trkpt lat="45.5526" lon="3.43967">
        <ele>652.88665771484</ele>
        <time>2020-06-20T10:58:14.546Z</time>
      </trkpt>
      <trkpt lat="45.55271" lon="3.43908">
        <ele>652.17565917969</ele>
        <time>2020-06-20T10:58:23.108Z</time>
      </trkpt>
      <trkpt lat="45.5539" lon="3.4382">
        <ele>655.68304443359</ele>
        <time>2020-06-20T10:58:31.692Z</time>
      </trkpt>
      <trkpt lat="45.55428" lon="3.43749">
        <ele>664.23504638672</ele>
        <time>2020-06-20T10:58:40.286Z</time>
      </trkpt>
      <trkpt lat="45.5543" lon="3.43683">
        <ele>662.10540771484</ele>
        <time>2020-06-20T10:58:48.887Z</time>
      </trkpt>
      <trkpt lat="45.55421" lon="3.43648">
        <ele>664.03485107422</ele>
        <time>2020-06-20T10:58:57.492Z</time>
      </trkpt>
      <trkpt lat="45.55377" lon="3.43588">
        <ele>655.16186523438</ele>
        <time>2020-06-20T10:59:06.107Z</time>
      </trkpt>
      <trkpt lat="45.55347" lon="3.43523">
        <ele>652.43292236328</ele>
        <time>2020-06-20T10:59:14.731Z</time>
      </trkpt>
      <trkpt lat="45.55395" lon="3.43355">
        <ele>653.45556640625</ele>
        <time>2020-06-20T10:59:23.375Z</time>
      </trkpt>
      <trkpt lat="45.55348" lon="3.43169">
        <ele>648.17523193359</ele>
        <time>2020-06-20T10:59:32.041Z</time>
      </trkpt>
      <trkpt lat="45.55361" lon="3.43076">
        <ele>648.03167724609</ele>
        <time>2020-06-20T10:59:40.718Z</time>
      </trkpt>
      <trkpt lat="45.55345" lon="3.43001">
        <ele>646.45629882812</ele>
        <time>2020-06-20T10:59:49.404Z</time>
      </trkpt>
      <trkpt lat="45.55306" lon="3.42944">
        <ele>630.26275634766</ele>
        <time>2020-06-20T10:59:58.099Z</time>
      </trkpt>
      <trkpt lat="45.5532" lon="3.42873">
        <ele>628.45074462891</ele>
        <time>2020-06-20T11:00:06.802Z</time>
      </trkpt>
      <trkpt lat="45.55335" lon="3.42832">
        <ele>628.1884765625</ele>
        <time>2020-06-20T11:00:15.510Z</time>
      </trkpt>
      <trkpt lat="45.55335" lon="3.42832">
        <ele>628.18481445312</ele>
        <time>2020-06-20T11:00:24.218Z</time>
      </trkpt>
      <trkpt lat="45.55398" lon="3.42664">
        <ele>611.77606201172</ele>
        <time>2020-06-20T11:00:32.948Z</time>
      </trkpt>
      <trkpt lat="45.55397" lon="3.42581">
        <ele>615.49298095703</ele>
        <time>2020-06-20T11:00:41.687Z</time>
      </trkpt>
      <trkpt lat="45.55352" lon="3.42474">
        <ele>613.24652099609</ele>
        <time>2020-06-20T11:00:50.440Z</time>
      </trkpt>
      <trkpt lat="45.55346" lon="3.4239">
        <ele>616.57928466797</ele>
        <time>2020-06-20T11:00:59.203Z</time>
      </trkpt>
      <trkpt lat="45.55379" lon="3.42308">
        <ele>605.12603759766</ele>
        <time>2020-06-20T11:01:07.976Z</time>
      </trkpt>
      <trkpt lat="45.55472" lon="3.42267">
        <ele>594.19348144531</ele>
        <time>2020-06-20T11:01:16.765Z</time>
      </trkpt>
      <trkpt lat="45.555" lon="3.42242">
        <ele>598.82830810547</ele>
        <time>2020-06-20T11:01:25.559Z</time>
      </trkpt>
      <trkpt lat="45.555" lon="3.42242">
        <ele>598.82550048828</ele>
        <time>2020-06-20T11:01:34.353Z</time>
      </trkpt>
      <trkpt lat="45.55536" lon="3.4216">
        <ele>590.87677001953</ele>
        <time>2020-06-20T11:01:43.158Z</time>
      </trkpt>
      <trkpt lat="45.55564" lon="3.42053">
        <ele>584.10729980469</ele>
        <time>2020-06-20T11:01:51.976Z</time>
      </trkpt>
      <trkpt lat="45.55627" lon="3.41972">
        <ele>596.46960449219</ele>
        <time>2020-06-20T11:02:00.808Z</time>
      </trkpt>
      <trkpt lat="45.55658" lon="3.41882">
        <ele>597.47619628906</ele>
        <time>2020-06-20T11:02:09.651Z</time>
      </trkpt>
      <trkpt lat="45.55647" lon="3.41783">
        <ele>589.23773193359</ele>
        <time>2020-06-20T11:02:18.505Z</time>
      </trkpt>
      <trkpt lat="45.55627" lon="3.41704">
        <ele>583.58923339844</ele>
        <time>2020-06-20T11:02:27.369Z</time>
      </trkpt>
      <trkpt lat="45.55631" lon="3.41628">
        <ele>593.94927978516</ele>
        <time>2020-06-20T11:02:36.241Z</time>
      </trkpt>
      <trkpt lat="45.55594" lon="3.41544">
        <ele>589.1630859375</ele>
        <time>2020-06-20T11:02:45.124Z</time>
      </trkpt>
      <trkpt lat="45.55592" lon="3.41444">
        <ele>587.48364257812</ele>
        <time>2020-06-20T11:02:54.019Z</time>
      </trkpt>
      <trkpt lat="45.55604" lon="3.4133">
        <ele>585.76513671875</ele>
        <time>2020-06-20T11:03:02.926Z</time>
      </trkpt>
      <trkpt lat="45.55601" lon="3.41204">
        <ele>569.65203857422</ele>
        <time>2020-06-20T11:03:11.848Z</time>
      </trkpt>
      <trkpt lat="45.55616" lon="3.41128">
        <ele>563.6630859375</ele>
        <time>2020-06-20T11:03:20.779Z</time>
      </trkpt>
      <trkpt lat="45.55616" lon="3.41128">
        <ele>563.662109375</ele>
        <time>2020-06-20T11:03:29.710Z</time>
      </trkpt>
      <trkpt lat="45.55632" lon="3.40989">
        <ele>564.0107421875</ele>
        <time>2020-06-20T11:03:38.656Z</time>
      </trkpt>
      <trkpt lat="45.55612" lon="3.40909">
        <ele>571.80889892578</ele>
        <time>2020-06-20T11:03:47.612Z</time>
      </trkpt>
      <trkpt lat="45.55545" lon="3.40873">
        <ele>558.87341308594</ele>
        <time>2020-06-20T11:03:56.579Z</time>
      </trkpt>
      <trkpt lat="45.55489" lon="3.40811">
        <ele>558.35107421875</ele>
        <time>2020-06-20T11:04:05.558Z</time>
      </trkpt>
      <trkpt lat="45.55402" lon="3.40794">
        <ele>541.91571044922</ele>
        <time>2020-06-20T11:04:14.551Z</time>
      </trkpt>
      <trkpt lat="45.55336" lon="3.40735">
        <ele>538.78875732422</ele>
        <time>2020-06-20T11:04:23.556Z</time>
      </trkpt>
      <trkpt lat="45.5529" lon="3.40664">
        <ele>539.12145996094</ele>
        <time>2020-06-20T11:04:32.572Z</time>
      </trkpt>
      <trkpt lat="45.55254" lon="3.40612">
        <ele>540.82995605469</ele>
        <time>2020-06-20T11:04:41.596Z</time>
      </trkpt>
      <trkpt lat="45.55225" lon="3.40543">
        <ele>534.25500488281</ele>
        <time>2020-06-20T11:04:50.629Z</time>
      </trkpt>
      <trkpt lat="45.55226" lon="3.4045">
        <ele>528.47625732422</ele>
        <time>2020-06-20T11:04:59.673Z</time>
      </trkpt>
      <trkpt lat="45.5526" lon="3.40357">
        <ele>531.08599853516</ele>
        <time>2020-06-20T11:05:08.729Z</time>
      </trkpt>
      <trkpt lat="45.55284" lon="3.40318">
        <ele>539.78723144531</ele>
        <time>2020-06-20T11:05:17.791Z</time>
      </trkpt>
      <trkpt lat="45.5529" lon="3.40294">
        <ele>541.72064208984</ele>
        <time>2020-06-20T11:05:26.855Z</time>
      </trkpt>
      <trkpt lat="45.5529" lon="3.40259">
        <ele>541.87286376953</ele>
        <time>2020-06-20T11:05:35.923Z</time>
      </trkpt>
      <trkpt lat="45.55277" lon="3.40193">
        <ele>541.88891601562</ele>
        <time>2020-06-20T11:05:44.999Z</time>
      </trkpt>
      <trkpt lat="45.55249" lon="3.40116">
        <ele>531.65576171875</ele>
        <time>2020-06-20T11:05:54.085Z</time>
      </trkpt>
      <trkpt lat="45.55254" lon="3.40086">
        <ele>530.75262451172</ele>
        <time>2020-06-20T11:06:03.174Z</time>
      </trkpt>
      <trkpt lat="45.55288" lon="3.4">
        <ele>530.96002197266</ele>
        <time>2020-06-20T11:06:12.274Z</time>
      </trkpt>
      <trkpt lat="45.55288" lon="3.4">
        <ele>530.95874023438</ele>
        <time>2020-06-20T11:06:21.374Z</time>
      </trkpt>
      <trkpt lat="45.55294" lon="3.39955">
        <ele>531.96276855469</ele>
        <time>2020-06-20T11:06:30.479Z</time>
      </trkpt>
      <trkpt lat="45.55291" lon="3.39939">
        <ele>531.46075439453</ele>
        <time>2020-06-20T11:06:39.586Z</time>
      </trkpt>
      <trkpt lat="45.55262" lon="3.39901">
        <ele>527.30639648438</ele>
        <time>2020-06-20T11:06:48.700Z</time>
      </trkpt>
      <trkpt lat="45.55256" lon="3.39878">
        <ele>525.3388671875</ele>
        <time>2020-06-20T11:06:57.816Z</time>
      </trkpt>
      <trkpt lat="45.55266" lon="3.39839">
        <ele>522.69049072266</ele>
        <time>2020-06-20T11:07:06.937Z</time>
      </trkpt>
      <trkpt lat="45.55293" lon="3.39803">
        <ele>516.45690917969</ele>
        <time>2020-06-20T11:07:16.064Z</time>
      </trkpt>
      <trkpt lat="45.55336" lon="3.39722">
        <ele>516.68432617188</ele>
        <time>2020-06-20T11:07:25.202Z</time>
      </trkpt>
      <trkpt lat="45.55343" lon="3.39698">
        <ele>517.25030517578</ele>
        <time>2020-06-20T11:07:34.343Z</time>
      </trkpt>
      <trkpt lat="45.55343" lon="3.39664">
        <ele>515.86285400391</ele>
        <time>2020-06-20T11:07:43.488Z</time>
      </trkpt>
      <trkpt lat="45.55313" lon="3.39572">
        <ele>504.13848876953</ele>
        <time>2020-06-20T11:07:52.645Z</time>
      </trkpt>
      <trkpt lat="45.55314" lon="3.39548">
        <ele>503.48199462891</ele>
        <time>2020-06-20T11:08:01.804Z</time>
      </trkpt>
      <trkpt lat="45.55327" lon="3.39521">
        <ele>501.91491699219</ele>
        <time>2020-06-20T11:08:10.967Z</time>
      </trkpt>
      <trkpt lat="45.55376" lon="3.39456">
        <ele>497.66989135742</ele>
        <time>2020-06-20T11:08:20.141Z</time>
      </trkpt>
      <trkpt lat="45.55464" lon="3.39426">
        <ele>490.75546264648</ele>
        <time>2020-06-20T11:08:29.329Z</time>
      </trkpt>
      <trkpt lat="45.55525" lon="3.3938">
        <ele>506.67697143555</ele>
        <time>2020-06-20T11:08:38.528Z</time>
      </trkpt>
      <trkpt lat="45.55543" lon="3.39349">
        <ele>513.63842773438</ele>
        <time>2020-06-20T11:08:47.732Z</time>
      </trkpt>
      <trkpt lat="45.55544" lon="3.39331">
        <ele>514.17791748047</ele>
        <time>2020-06-20T11:08:56.938Z</time>
      </trkpt>
      <trkpt lat="45.55526" lon="3.39264">
        <ele>509.05383300781</ele>
        <time>2020-06-20T11:09:06.152Z</time>
      </trkpt>
      <trkpt lat="45.55519" lon="3.39213">
        <ele>507.33749389648</ele>
        <time>2020-06-20T11:09:15.372Z</time>
      </trkpt>
      <trkpt lat="45.55523" lon="3.39186">
        <ele>505.92153930664</ele>
        <time>2020-06-20T11:09:24.595Z</time>
      </trkpt>
      <trkpt lat="45.55576" lon="3.39038">
        <ele>502.07388305664</ele>
        <time>2020-06-20T11:09:33.837Z</time>
      </trkpt>
      <trkpt lat="45.55578" lon="3.38971">
        <ele>506.98544311523</ele>
        <time>2020-06-20T11:09:43.086Z</time>
      </trkpt>
      <trkpt lat="45.55568" lon="3.38936">
        <ele>510.0002746582</ele>
        <time>2020-06-20T11:09:52.339Z</time>
      </trkpt>
      <trkpt lat="45.55558" lon="3.38924">
        <ele>510.62997436523</ele>
        <time>2020-06-20T11:10:01.594Z</time>
      </trkpt>
      <trkpt lat="45.55525" lon="3.38912">
        <ele>510.62371826172</ele>
        <time>2020-06-20T11:10:10.855Z</time>
      </trkpt>
      <trkpt lat="45.55433" lon="3.38916">
        <ele>499.01278686523</ele>
        <time>2020-06-20T11:10:20.131Z</time>
      </trkpt>
      <trkpt lat="45.55363" lon="3.38904">
        <ele>492.07427978516</ele>
        <time>2020-06-20T11:10:29.418Z</time>
      </trkpt>
      <trkpt lat="45.55306" lon="3.38835">
        <ele>497.99383544922</ele>
        <time>2020-06-20T11:10:38.717Z</time>
      </trkpt>
      <trkpt lat="45.55276" lon="3.38777">
        <ele>498.15353393555</ele>
        <time>2020-06-20T11:10:48.024Z</time>
      </trkpt>
      <trkpt lat="45.55262" lon="3.38737">
        <ele>495.15667724609</ele>
        <time>2020-06-20T11:10:57.336Z</time>
      </trkpt>
      <trkpt lat="45.55252" lon="3.3868">
        <ele>492.34698486328</ele>
        <time>2020-06-20T11:11:06.655Z</time>
      </trkpt>
      <trkpt lat="45.55252" lon="3.3868">
        <ele>492.34378051758</ele>
        <time>2020-06-20T11:11:15.974Z</time>
      </trkpt>
      <trkpt lat="45.55246" lon="3.38585">
        <ele>485.36413574219</ele>
        <time>2020-06-20T11:11:25.303Z</time>
      </trkpt>
      <trkpt lat="45.55228" lon="3.38533">
        <ele>480.07357788086</ele>
        <time>2020-06-20T11:11:34.639Z</time>
      </trkpt>
      <trkpt lat="45.55227" lon="3.38504">
        <ele>479.85507202148</ele>
        <time>2020-06-20T11:11:43.978Z</time>
      </trkpt>
      <trkpt lat="45.55248" lon="3.38333">
        <ele>487.71743774414</ele>
        <time>2020-06-20T11:11:53.337Z</time>
      </trkpt>
      <trkpt lat="45.55247" lon="3.38259">
        <ele>485.20962524414</ele>
        <time>2020-06-20T11:12:02.704Z</time>
      </trkpt>
      <trkpt lat="45.55236" lon="3.38221">
        <ele>482.6994934082</ele>
        <time>2020-06-20T11:12:12.076Z</time>
      </trkpt>
      <trkpt lat="45.55192" lon="3.38127">
        <ele>475.62823486328</ele>
        <time>2020-06-20T11:12:21.460Z</time>
      </trkpt>
      <trkpt lat="45.55183" lon="3.38079">
        <ele>474.34637451172</ele>
        <time>2020-06-20T11:12:30.850Z</time>
      </trkpt>
      <trkpt lat="45.55187" lon="3.37994">
        <ele>471.56231689453</ele>
        <time>2020-06-20T11:12:40.250Z</time>
      </trkpt>
      <trkpt lat="45.55196" lon="3.37936">
        <ele>470.31362915039</ele>
        <time>2020-06-20T11:12:49.656Z</time>
      </trkpt>
      <trkpt lat="45.55227" lon="3.37689">
        <ele>466.279296875</ele>
        <time>2020-06-20T11:12:59.090Z</time>
      </trkpt>
      <trkpt lat="45.55193" lon="3.3756">
        <ele>463.71029663086</ele>
        <time>2020-06-20T11:13:08.540Z</time>
      </trkpt>
      <trkpt lat="45.55176" lon="3.37492">
        <ele>463.50433349609</ele>
        <time>2020-06-20T11:13:17.998Z</time>
      </trkpt>
      <trkpt lat="45.55176" lon="3.37492">
        <ele>463.50424194336</ele>
        <time>2020-06-20T11:13:27.456Z</time>
      </trkpt>
      <trkpt lat="45.55154" lon="3.37404">
        <ele>462.57196044922</ele>
        <time>2020-06-20T11:13:36.925Z</time>
      </trkpt>
      <trkpt lat="45.55149" lon="3.37385">
        <ele>462.08291625977</ele>
        <time>2020-06-20T11:13:46.396Z</time>
      </trkpt>
      <trkpt lat="45.55144" lon="3.37367">
        <ele>461.5807800293</ele>
        <time>2020-06-20T11:13:55.869Z</time>
      </trkpt>
      <trkpt lat="45.55132" lon="3.37319">
        <ele>459.8860168457</ele>
        <time>2020-06-20T11:14:05.348Z</time>
      </trkpt>
      <trkpt lat="45.55131" lon="3.37316">
        <ele>459.73126220703</ele>
        <time>2020-06-20T11:14:14.827Z</time>
      </trkpt>
      <trkpt lat="45.55141" lon="3.37296">
        <ele>459.22479248047</ele>
        <time>2020-06-20T11:14:24.309Z</time>
      </trkpt>
      <trkpt lat="45.55149" lon="3.37293">
        <ele>459.21200561523</ele>
        <time>2020-06-20T11:14:33.792Z</time>
      </trkpt>
      <trkpt lat="45.55166" lon="3.37287">
        <ele>458.84451293945</ele>
        <time>2020-06-20T11:14:43.278Z</time>
      </trkpt>
      <trkpt lat="45.55183" lon="3.37272">
        <ele>457.35131835938</ele>
        <time>2020-06-20T11:14:52.767Z</time>
      </trkpt>
      <trkpt lat="45.55193" lon="3.37272">
        <ele>457.09387207031</ele>
        <time>2020-06-20T11:15:02.258Z</time>
      </trkpt>
      <trkpt lat="45.55219" lon="3.37274">
        <ele>456.64959716797</ele>
        <time>2020-06-20T11:15:11.753Z</time>
      </trkpt>
      <trkpt lat="45.55222" lon="3.37245">
        <ele>454.93521118164</ele>
        <time>2020-06-20T11:15:21.251Z</time>
      </trkpt>
      <trkpt lat="45.55222" lon="3.37245">
        <ele>454.93502807617</ele>
        <time>2020-06-20T11:15:30.749Z</time>
      </trkpt>
      <trkpt lat="45.55226" lon="3.37202">
        <ele>452.43795776367</ele>
        <time>2020-06-20T11:15:40.252Z</time>
      </trkpt>
      <trkpt lat="45.55241" lon="3.37179">
        <ele>450.78726196289</ele>
        <time>2020-06-20T11:15:49.759Z</time>
      </trkpt>
      <trkpt lat="45.55273" lon="3.37181">
        <ele>450.36248779297</ele>
        <time>2020-06-20T11:15:59.271Z</time>
      </trkpt>
      <trkpt lat="45.55273" lon="3.37181">
        <ele>450.3625793457</ele>
        <time>2020-06-20T11:16:08.783Z</time>
      </trkpt>
      <trkpt lat="45.55285" lon="3.37181">
        <ele>450.2209777832</ele>
        <time>2020-06-20T11:16:18.297Z</time>
      </trkpt>
      <trkpt lat="45.55294" lon="3.37179">
        <ele>450.14364624023</ele>
        <time>2020-06-20T11:16:27.812Z</time>
      </trkpt>
      <trkpt lat="45.55331" lon="3.37174">
        <ele>450.52932739258</ele>
        <time>2020-06-20T11:16:37.333Z</time>
      </trkpt>
      <trkpt lat="45.55331" lon="3.37174">
        <ele>450.52923583984</ele>
        <time>2020-06-20T11:16:46.854Z</time>
      </trkpt>
      <trkpt lat="45.55412" lon="3.37152">
        <ele>450.68344116211</ele>
        <time>2020-06-20T11:16:56.388Z</time>
      </trkpt>
      <trkpt lat="45.55437" lon="3.37145">
        <ele>450.43090820312</ele>
        <time>2020-06-20T11:17:05.926Z</time>
      </trkpt>
      <trkpt lat="45.55441" lon="3.37144">
        <ele>450.59802246094</ele>
        <time>2020-06-20T11:17:15.465Z</time>
      </trkpt>
      <trkpt lat="45.5548" lon="3.37138">
        <ele>451.76397705078</ele>
        <time>2020-06-20T11:17:25.010Z</time>
      </trkpt>
      <trkpt lat="45.55593" lon="3.37125">
        <ele>455.20782470703</ele>
        <time>2020-06-20T11:17:34.573Z</time>
      </trkpt>
      <trkpt lat="45.55708" lon="3.37163">
        <ele>459.30255126953</ele>
        <time>2020-06-20T11:17:44.155Z</time>
      </trkpt>
      <trkpt lat="45.55807" lon="3.37201">
        <ele>462.87661743164</ele>
        <time>2020-06-20T11:17:53.754Z</time>
      </trkpt>
      <trkpt lat="45.55956" lon="3.37256">
        <ele>463.39938354492</ele>
        <time>2020-06-20T11:18:03.377Z</time>
      </trkpt>
      <trkpt lat="45.56079" lon="3.37269">
        <ele>463.71710205078</ele>
        <time>2020-06-20T11:18:13.020Z</time>
      </trkpt>
      <trkpt lat="45.56168" lon="3.37322">
        <ele>464.48751831055</ele>
        <time>2020-06-20T11:18:22.678Z</time>
      </trkpt>
      <trkpt lat="45.56512" lon="3.3761">
        <ele>475.06109619141</ele>
        <time>2020-06-20T11:18:32.400Z</time>
      </trkpt>
      <trkpt lat="45.56512" lon="3.3761">
        <ele>475.06091308594</ele>
        <time>2020-06-20T11:18:42.122Z</time>
      </trkpt>
      <trkpt lat="45.56613" lon="3.37685">
        <ele>476.69885253906</ele>
        <time>2020-06-20T11:18:51.863Z</time>
      </trkpt>
      <trkpt lat="45.56681" lon="3.37716">
        <ele>479.2414855957</ele>
        <time>2020-06-20T11:19:01.615Z</time>
      </trkpt>
      <trkpt lat="45.56681" lon="3.37717">
        <ele>479.24969482422</ele>
        <time>2020-06-20T11:19:11.367Z</time>
      </trkpt>
      <trkpt lat="45.56681" lon="3.37717">
        <ele>479.24908447266</ele>
        <time>2020-06-20T11:19:21.119Z</time>
      </trkpt>
      <trkpt lat="45.56885" lon="3.37811">
        <ele>480.70202636719</ele>
        <time>2020-06-20T11:19:30.905Z</time>
      </trkpt>
      <trkpt lat="45.56951" lon="3.37835">
        <ele>483.12182617188</ele>
        <time>2020-06-20T11:19:40.702Z</time>
      </trkpt>
      <trkpt lat="45.57234" lon="3.37845">
        <ele>485.3298034668</ele>
        <time>2020-06-20T11:19:50.545Z</time>
      </trkpt>
      <trkpt lat="45.57245" lon="3.37845">
        <ele>485.07235717773</ele>
        <time>2020-06-20T11:20:00.389Z</time>
      </trkpt>
      <trkpt lat="45.57313" lon="3.37848">
        <ele>483.84136962891</ele>
        <time>2020-06-20T11:20:10.244Z</time>
      </trkpt>
      <trkpt lat="45.5744" lon="3.37883">
        <ele>480.70126342773</ele>
        <time>2020-06-20T11:20:20.120Z</time>
      </trkpt>
      <trkpt lat="45.57531" lon="3.37933">
        <ele>479.55694580078</ele>
        <time>2020-06-20T11:20:30.012Z</time>
      </trkpt>
      <trkpt lat="45.57626" lon="3.37984">
        <ele>481.64685058594</ele>
        <time>2020-06-20T11:20:39.920Z</time>
      </trkpt>
      <trkpt lat="45.57626" lon="3.37984">
        <ele>481.64703369141</ele>
        <time>2020-06-20T11:20:49.828Z</time>
      </trkpt>
      <trkpt lat="45.58008" lon="3.38193">
        <ele>488.66848754883</ele>
        <time>2020-06-20T11:20:59.801Z</time>
      </trkpt>
      <trkpt lat="45.58222" lon="3.38286">
        <ele>487.95074462891</ele>
        <time>2020-06-20T11:21:09.810Z</time>
      </trkpt>
      <trkpt lat="45.58231" lon="3.38289">
        <ele>487.84777832031</ele>
        <time>2020-06-20T11:21:19.821Z</time>
      </trkpt>
      <trkpt lat="45.58353" lon="3.38341">
        <ele>485.84127807617</ele>
        <time>2020-06-20T11:21:29.852Z</time>
      </trkpt>
      <trkpt lat="45.5848" lon="3.3836">
        <ele>480.58438110352</ele>
        <time>2020-06-20T11:21:39.903Z</time>
      </trkpt>
      <trkpt lat="45.58628" lon="3.38364">
        <ele>475.25518798828</ele>
        <time>2020-06-20T11:21:49.978Z</time>
      </trkpt>
      <trkpt lat="45.58775" lon="3.38418">
        <ele>474.1904296875</ele>
        <time>2020-06-20T11:22:00.077Z</time>
      </trkpt>
      <trkpt lat="45.58805" lon="3.38418">
        <ele>474.50048828125</ele>
        <time>2020-06-20T11:22:10.181Z</time>
      </trkpt>
      <trkpt lat="45.58848" lon="3.38398">
        <ele>473.8053894043</ele>
        <time>2020-06-20T11:22:20.292Z</time>
      </trkpt>
      <trkpt lat="45.58876" lon="3.38394">
        <ele>473.31274414062</ele>
        <time>2020-06-20T11:22:30.408Z</time>
      </trkpt>
      <trkpt lat="45.59197" lon="3.38503">
        <ele>465.22470092773</ele>
        <time>2020-06-20T11:22:40.577Z</time>
      </trkpt>
      <trkpt lat="45.59197" lon="3.38503">
        <ele>465.22528076172</ele>
        <time>2020-06-20T11:22:50.746Z</time>
      </trkpt>
      <trkpt lat="45.59215" lon="3.3851">
        <ele>464.12835693359</ele>
        <time>2020-06-20T11:23:00.918Z</time>
      </trkpt>
      <trkpt lat="45.59205" lon="3.38296">
        <ele>461.65631103516</ele>
        <time>2020-06-20T11:23:11.114Z</time>
      </trkpt>
      <trkpt lat="45.59205" lon="3.38296">
        <ele>461.65551757812</ele>
        <time>2020-06-20T11:23:21.310Z</time>
      </trkpt>
      <trkpt lat="45.59191" lon="3.37994">
        <ele>454.72543334961</ele>
        <time>2020-06-20T11:23:31.540Z</time>
      </trkpt>
      <trkpt lat="45.59191" lon="3.37994">
        <ele>454.72512817383</ele>
        <time>2020-06-20T11:23:41.770Z</time>
      </trkpt>
      <trkpt lat="45.59189" lon="3.37949">
        <ele>452.53845214844</ele>
        <time>2020-06-20T11:23:52.005Z</time>
      </trkpt>
      <trkpt lat="45.59195" lon="3.37902">
        <ele>452.18475341797</ele>
        <time>2020-06-20T11:24:02.245Z</time>
      </trkpt>
      <trkpt lat="45.59215" lon="3.37844">
        <ele>452.26293945312</ele>
        <time>2020-06-20T11:24:12.492Z</time>
      </trkpt>
      <trkpt lat="45.5941" lon="3.37481">
        <ele>442.70104980469</ele>
        <time>2020-06-20T11:24:22.791Z</time>
      </trkpt>
      <trkpt lat="45.5941" lon="3.37481">
        <ele>442.70092773438</ele>
        <time>2020-06-20T11:24:33.090Z</time>
      </trkpt>
      <trkpt lat="45.59529" lon="3.37256">
        <ele>444.59432983398</ele>
        <time>2020-06-20T11:24:43.421Z</time>
      </trkpt>
      <trkpt lat="45.59547" lon="3.37182">
        <ele>445.15567016602</ele>
        <time>2020-06-20T11:24:53.760Z</time>
      </trkpt>
      <trkpt lat="45.59574" lon="3.37111">
        <ele>444.89068603516</ele>
        <time>2020-06-20T11:25:04.108Z</time>
      </trkpt>
      <trkpt lat="45.59605" lon="3.37076">
        <ele>446.494140625</ele>
        <time>2020-06-20T11:25:14.463Z</time>
      </trkpt>
      <trkpt lat="45.59645" lon="3.37054">
        <ele>443.95364379883</ele>
        <time>2020-06-20T11:25:24.824Z</time>
      </trkpt>
      <trkpt lat="45.59723" lon="3.37056">
        <ele>444.275390625</ele>
        <time>2020-06-20T11:25:35.198Z</time>
      </trkpt>
      <trkpt lat="45.59765" lon="3.37042">
        <ele>444.53182983398</ele>
        <time>2020-06-20T11:25:45.579Z</time>
      </trkpt>
      <trkpt lat="45.5992" lon="3.36908">
        <ele>439.48028564453</ele>
        <time>2020-06-20T11:25:55.989Z</time>
      </trkpt>
      <trkpt lat="45.6" lon="3.36864">
        <ele>438.56295776367</ele>
        <time>2020-06-20T11:26:06.413Z</time>
      </trkpt>
      <trkpt lat="45.6" lon="3.36864">
        <ele>438.56286621094</ele>
        <time>2020-06-20T11:26:16.837Z</time>
      </trkpt>
      <trkpt lat="45.60103" lon="3.36808">
        <ele>436.44451904297</ele>
        <time>2020-06-20T11:26:27.278Z</time>
      </trkpt>
      <trkpt lat="45.60142" lon="3.36769">
        <ele>432.60308837891</ele>
        <time>2020-06-20T11:26:37.727Z</time>
      </trkpt>
      <trkpt lat="45.60142" lon="3.36769">
        <ele>432.60348510742</ele>
        <time>2020-06-20T11:26:48.176Z</time>
      </trkpt>
      <trkpt lat="45.60416" lon="3.36332">
        <ele>431.64004516602</ele>
        <time>2020-06-20T11:26:58.691Z</time>
      </trkpt>
      <trkpt lat="45.60428" lon="3.36287">
        <ele>430.14614868164</ele>
        <time>2020-06-20T11:27:09.211Z</time>
      </trkpt>
      <trkpt lat="45.60428" lon="3.36287">
        <ele>430.13684082031</ele>
        <time>2020-06-20T11:27:19.731Z</time>
      </trkpt>
      <trkpt lat="45.60428" lon="3.36287">
        <ele>430.13565063477</ele>
        <time>2020-06-20T11:27:30.251Z</time>
      </trkpt>
      <trkpt lat="45.60433" lon="3.36266">
        <ele>429.23135375977</ele>
        <time>2020-06-20T11:27:40.774Z</time>
      </trkpt>
      <trkpt lat="45.60431" lon="3.36196">
        <ele>426.54202270508</ele>
        <time>2020-06-20T11:27:51.305Z</time>
      </trkpt>
      <trkpt lat="45.60417" lon="3.36144">
        <ele>425.30798339844</ele>
        <time>2020-06-20T11:28:01.842Z</time>
      </trkpt>
      <trkpt lat="45.60344" lon="3.35997">
        <ele>426.31384277344</ele>
        <time>2020-06-20T11:28:12.399Z</time>
      </trkpt>
      <trkpt lat="45.60318" lon="3.35932">
        <ele>425.88967895508</ele>
        <time>2020-06-20T11:28:22.965Z</time>
      </trkpt>
      <trkpt lat="45.60305" lon="3.35874">
        <ele>424.04403686523</ele>
        <time>2020-06-20T11:28:33.537Z</time>
      </trkpt>
      <trkpt lat="45.60307" lon="3.35814">
        <ele>422.00308227539</ele>
        <time>2020-06-20T11:28:44.116Z</time>
      </trkpt>
      <trkpt lat="45.60324" lon="3.35753">
        <ele>420.87539672852</ele>
        <time>2020-06-20T11:28:54.703Z</time>
      </trkpt>
      <trkpt lat="45.60403" lon="3.35609">
        <ele>423.94290161133</ele>
        <time>2020-06-20T11:29:05.310Z</time>
      </trkpt>
      <trkpt lat="45.60584" lon="3.35496">
        <ele>428.38314819336</ele>
        <time>2020-06-20T11:29:15.949Z</time>
      </trkpt>
      <trkpt lat="45.60686" lon="3.35372">
        <ele>435.89990234375</ele>
        <time>2020-06-20T11:29:26.609Z</time>
      </trkpt>
      <trkpt lat="45.60701" lon="3.35351">
        <ele>438.21694946289</ele>
        <time>2020-06-20T11:29:37.272Z</time>
      </trkpt>
      <trkpt lat="45.60842" lon="3.35047">
        <ele>441.29040527344</ele>
        <time>2020-06-20T11:29:47.976Z</time>
      </trkpt>
      <trkpt lat="45.60887" lon="3.34978">
        <ele>442.30627441406</ele>
        <time>2020-06-20T11:29:58.691Z</time>
      </trkpt>
      <trkpt lat="45.60887" lon="3.34978">
        <ele>442.30645751953</ele>
        <time>2020-06-20T11:30:09.406Z</time>
      </trkpt>
      <trkpt lat="45.60986" lon="3.34856">
        <ele>442.68356323242</ele>
        <time>2020-06-20T11:30:20.142Z</time>
      </trkpt>
      <trkpt lat="45.60986" lon="3.34856">
        <ele>442.68444824219</ele>
        <time>2020-06-20T11:30:30.878Z</time>
      </trkpt>
      <trkpt lat="45.61029" lon="3.34785">
        <ele>446.75888061523</ele>
        <time>2020-06-20T11:30:41.624Z</time>
      </trkpt>
      <trkpt lat="45.61106" lon="3.34563">
        <ele>455.76754760742</ele>
        <time>2020-06-20T11:30:52.398Z</time>
      </trkpt>
      <trkpt lat="45.61139" lon="3.34362">
        <ele>456.23550415039</ele>
        <time>2020-06-20T11:31:03.195Z</time>
      </trkpt>
      <trkpt lat="45.61192" lon="3.343">
        <ele>467.05685424805</ele>
        <time>2020-06-20T11:31:14.003Z</time>
      </trkpt>
      <trkpt lat="45.61512" lon="3.34096">
        <ele>478.92730712891</ele>
        <time>2020-06-20T11:31:24.867Z</time>
      </trkpt>
      <trkpt lat="45.61573" lon="3.34025">
        <ele>480.71743774414</ele>
        <time>2020-06-20T11:31:35.744Z</time>
      </trkpt>
      <trkpt lat="45.61599" lon="3.33966">
        <ele>482.72689819336</ele>
        <time>2020-06-20T11:31:46.629Z</time>
      </trkpt>
      <trkpt lat="45.61636" lon="3.33732">
        <ele>473.03961181641</ele>
        <time>2020-06-20T11:31:57.541Z</time>
      </trkpt>
      <trkpt lat="45.61628" lon="3.33675">
        <ele>468.90576171875</ele>
        <time>2020-06-20T11:32:08.459Z</time>
      </trkpt>
      <trkpt lat="45.61593" lon="3.33554">
        <ele>475.57382202148</ele>
        <time>2020-06-20T11:32:19.392Z</time>
      </trkpt>
      <trkpt lat="45.61634" lon="3.3355">
        <ele>472.25271606445</ele>
        <time>2020-06-20T11:32:30.332Z</time>
      </trkpt>
      <trkpt lat="45.6169" lon="3.33503">
        <ele>472.88800048828</ele>
        <time>2020-06-20T11:32:41.282Z</time>
      </trkpt>
      <trkpt lat="45.61701" lon="3.33502">
        <ele>472.81076049805</ele>
        <time>2020-06-20T11:32:52.234Z</time>
      </trkpt>
      <trkpt lat="45.61722" lon="3.33519">
        <ele>471.84680175781</ele>
        <time>2020-06-20T11:33:03.190Z</time>
      </trkpt>
      <trkpt lat="45.61751" lon="3.33515">
        <ele>471.98727416992</ele>
        <time>2020-06-20T11:33:14.150Z</time>
      </trkpt>
      <trkpt lat="45.61829" lon="3.33436">
        <ele>475.73330688477</ele>
        <time>2020-06-20T11:33:25.126Z</time>
      </trkpt>
      <trkpt lat="45.61874" lon="3.33416">
        <ele>477.02239990234</ele>
        <time>2020-06-20T11:33:36.109Z</time>
      </trkpt>
      <trkpt lat="45.61913" lon="3.33324">
        <ele>481.47891235352</ele>
        <time>2020-06-20T11:33:47.104Z</time>
      </trkpt>
      <trkpt lat="45.61985" lon="3.33247">
        <ele>485.83120727539</ele>
        <time>2020-06-20T11:33:58.114Z</time>
      </trkpt>
      <trkpt lat="45.62016" lon="3.33204">
        <ele>486.30383300781</ele>
        <time>2020-06-20T11:34:09.130Z</time>
      </trkpt>
      <trkpt lat="45.62027" lon="3.33187">
        <ele>486.81912231445</ele>
        <time>2020-06-20T11:34:20.149Z</time>
      </trkpt>
      <trkpt lat="45.62061" lon="3.33134">
        <ele>489.27334594727</ele>
        <time>2020-06-20T11:34:31.176Z</time>
      </trkpt>
      <trkpt lat="45.62143" lon="3.33055">
        <ele>493.52743530273</ele>
        <time>2020-06-20T11:34:42.219Z</time>
      </trkpt>
      <trkpt lat="45.62175" lon="3.32952">
        <ele>501.46508789062</ele>
        <time>2020-06-20T11:34:53.275Z</time>
      </trkpt>
      <trkpt lat="45.62175" lon="3.32952">
        <ele>501.46395874023</ele>
        <time>2020-06-20T11:35:04.331Z</time>
      </trkpt>
      <trkpt lat="45.6218" lon="3.32935">
        <ele>502.61071777344</ele>
        <time>2020-06-20T11:35:15.389Z</time>
      </trkpt>
      <trkpt lat="45.62209" lon="3.32886">
        <ele>502.73971557617</ele>
        <time>2020-06-20T11:35:26.454Z</time>
      </trkpt>
      <trkpt lat="45.62199" lon="3.32836">
        <ele>507.79858398438</ele>
        <time>2020-06-20T11:35:37.525Z</time>
      </trkpt>
      <trkpt lat="45.62177" lon="3.32812">
        <ele>513.08917236328</ele>
        <time>2020-06-20T11:35:48.600Z</time>
      </trkpt>
      <trkpt lat="45.62169" lon="3.32759">
        <ele>518.5078125</ele>
        <time>2020-06-20T11:35:59.681Z</time>
      </trkpt>
      <trkpt lat="45.62194" lon="3.32699">
        <ele>521.44012451172</ele>
        <time>2020-06-20T11:36:10.770Z</time>
      </trkpt>
      <trkpt lat="45.62194" lon="3.32699">
        <ele>521.43920898438</ele>
        <time>2020-06-20T11:36:21.859Z</time>
      </trkpt>
      <trkpt lat="45.62227" lon="3.32649">
        <ele>525.90936279297</ele>
        <time>2020-06-20T11:36:32.956Z</time>
      </trkpt>
      <trkpt lat="45.62306" lon="3.32573">
        <ele>530.88519287109</ele>
        <time>2020-06-20T11:36:44.068Z</time>
      </trkpt>
      <trkpt lat="45.62337" lon="3.32555">
        <ele>533.93597412109</ele>
        <time>2020-06-20T11:36:55.185Z</time>
      </trkpt>
      <trkpt lat="45.62404" lon="3.32557">
        <ele>531.65258789062</ele>
        <time>2020-06-20T11:37:06.313Z</time>
      </trkpt>
      <trkpt lat="45.62425" lon="3.3255">
        <ele>530.93176269531</ele>
        <time>2020-06-20T11:37:17.445Z</time>
      </trkpt>
      <trkpt lat="45.6244" lon="3.32527">
        <ele>532.64379882812</ele>
        <time>2020-06-20T11:37:28.580Z</time>
      </trkpt>
      <trkpt lat="45.6249" lon="3.32415">
        <ele>536.26159667969</ele>
        <time>2020-06-20T11:37:39.730Z</time>
      </trkpt>
      <trkpt lat="45.62492" lon="3.32397">
        <ele>536.68640136719</ele>
        <time>2020-06-20T11:37:50.882Z</time>
      </trkpt>
      <trkpt lat="45.62515" lon="3.32347">
        <ele>535.47918701172</ele>
        <time>2020-06-20T11:38:02.041Z</time>
      </trkpt>
      <trkpt lat="45.62524" lon="3.32276">
        <ele>537.90057373047</ele>
        <time>2020-06-20T11:38:13.208Z</time>
      </trkpt>
      <trkpt lat="45.62524" lon="3.32276">
        <ele>537.89978027344</ele>
        <time>2020-06-20T11:38:24.375Z</time>
      </trkpt>
      <trkpt lat="45.62536" lon="3.3211">
        <ele>544.80725097656</ele>
        <time>2020-06-20T11:38:35.561Z</time>
      </trkpt>
      <trkpt lat="45.62553" lon="3.32029">
        <ele>547.6318359375</ele>
        <time>2020-06-20T11:38:46.756Z</time>
      </trkpt>
      <trkpt lat="45.62553" lon="3.32029">
        <ele>547.63098144531</ele>
        <time>2020-06-20T11:38:57.951Z</time>
      </trkpt>
      <trkpt lat="45.62583" lon="3.31908">
        <ele>548.64337158203</ele>
        <time>2020-06-20T11:39:09.161Z</time>
      </trkpt>
      <trkpt lat="45.62575" lon="3.31657">
        <ele>555.08020019531</ele>
        <time>2020-06-20T11:39:20.399Z</time>
      </trkpt>
      <trkpt lat="45.62534" lon="3.31534">
        <ele>560.35345458984</ele>
        <time>2020-06-20T11:39:31.652Z</time>
      </trkpt>
      <trkpt lat="45.62529" lon="3.31484">
        <ele>562.01165771484</ele>
        <time>2020-06-20T11:39:42.911Z</time>
      </trkpt>
      <trkpt lat="45.6253" lon="3.31427">
        <ele>562.74371337891</ele>
        <time>2020-06-20T11:39:54.176Z</time>
      </trkpt>
      <trkpt lat="45.6254" lon="3.31382">
        <ele>564.04949951172</ele>
        <time>2020-06-20T11:40:05.446Z</time>
      </trkpt>
      <trkpt lat="45.62587" lon="3.31271">
        <ele>566.17242431641</ele>
        <time>2020-06-20T11:40:16.731Z</time>
      </trkpt>
      <trkpt lat="45.62594" lon="3.31237">
        <ele>567.06072998047</ele>
        <time>2020-06-20T11:40:28.020Z</time>
      </trkpt>
      <trkpt lat="45.62596" lon="3.31205">
        <ele>568.94659423828</ele>
        <time>2020-06-20T11:40:39.313Z</time>
      </trkpt>
      <trkpt lat="45.62587" lon="3.31094">
        <ele>575.474609375</ele>
        <time>2020-06-20T11:40:50.618Z</time>
      </trkpt>
      <trkpt lat="45.62587" lon="3.31094">
        <ele>575.47369384766</ele>
        <time>2020-06-20T11:41:01.923Z</time>
      </trkpt>
      <trkpt lat="45.62602" lon="3.31034">
        <ele>576.43139648438</ele>
        <time>2020-06-20T11:41:13.235Z</time>
      </trkpt>
      <trkpt lat="45.62644" lon="3.30934">
        <ele>576.22827148438</ele>
        <time>2020-06-20T11:41:24.560Z</time>
      </trkpt>
      <trkpt lat="45.62649" lon="3.30874">
        <ele>578.05279541016</ele>
        <time>2020-06-20T11:41:35.892Z</time>
      </trkpt>
      <trkpt lat="45.62641" lon="3.30814">
        <ele>580.43267822266</ele>
        <time>2020-06-20T11:41:47.231Z</time>
      </trkpt>
      <trkpt lat="45.62622" lon="3.30727">
        <ele>585.12512207031</ele>
        <time>2020-06-20T11:41:58.580Z</time>
      </trkpt>
      <trkpt lat="45.62623" lon="3.30694">
        <ele>585.74304199219</ele>
        <time>2020-06-20T11:42:09.933Z</time>
      </trkpt>
      <trkpt lat="45.62633" lon="3.30667">
        <ele>585.0146484375</ele>
        <time>2020-06-20T11:42:21.289Z</time>
      </trkpt>
      <trkpt lat="45.62652" lon="3.3064">
        <ele>586.51440429688</ele>
        <time>2020-06-20T11:42:32.650Z</time>
      </trkpt>
      <trkpt lat="45.62679" lon="3.30623">
        <ele>589.12866210938</ele>
        <time>2020-06-20T11:42:44.015Z</time>
      </trkpt>
      <trkpt lat="45.62748" lon="3.30637">
        <ele>592.86694335938</ele>
        <time>2020-06-20T11:42:55.392Z</time>
      </trkpt>
      <trkpt lat="45.62786" lon="3.30646">
        <ele>594.58282470703</ele>
        <time>2020-06-20T11:43:06.775Z</time>
      </trkpt>
      <trkpt lat="45.62786" lon="3.30646">
        <ele>594.58343505859</ele>
        <time>2020-06-20T11:43:18.158Z</time>
      </trkpt>
      <trkpt lat="45.62882" lon="3.30672">
        <ele>606.14727783203</ele>
        <time>2020-06-20T11:43:29.556Z</time>
      </trkpt>
      <trkpt lat="45.62914" lon="3.30699">
        <ele>611.75555419922</ele>
        <time>2020-06-20T11:43:40.960Z</time>
      </trkpt>
      <trkpt lat="45.63019" lon="3.30841">
        <ele>613.05499267578</ele>
        <time>2020-06-20T11:43:52.387Z</time>
      </trkpt>
      <trkpt lat="45.63088" lon="3.30883">
        <ele>612.54663085938</ele>
        <time>2020-06-20T11:44:03.826Z</time>
      </trkpt>
      <trkpt lat="45.63171" lon="3.30862">
        <ele>616.16143798828</ele>
        <time>2020-06-20T11:44:15.279Z</time>
      </trkpt>
      <trkpt lat="45.63236" lon="3.30829">
        <ele>616.04431152344</ele>
        <time>2020-06-20T11:44:26.743Z</time>
      </trkpt>
      <trkpt lat="45.63265" lon="3.30798">
        <ele>617.77758789062</ele>
        <time>2020-06-20T11:44:38.213Z</time>
      </trkpt>
      <trkpt lat="45.63367" lon="3.30588">
        <ele>618.43054199219</ele>
        <time>2020-06-20T11:44:49.711Z</time>
      </trkpt>
      <trkpt lat="45.63385" lon="3.30422">
        <ele>627.77935791016</ele>
        <time>2020-06-20T11:45:01.228Z</time>
      </trkpt>
      <trkpt lat="45.63403" lon="3.30392">
        <ele>631.88140869141</ele>
        <time>2020-06-20T11:45:12.750Z</time>
      </trkpt>
      <trkpt lat="45.63427" lon="3.30374">
        <ele>635.00170898438</ele>
        <time>2020-06-20T11:45:24.276Z</time>
      </trkpt>
      <trkpt lat="45.63477" lon="3.3038">
        <ele>638.11846923828</ele>
        <time>2020-06-20T11:45:35.810Z</time>
      </trkpt>
      <trkpt lat="45.63502" lon="3.30414">
        <ele>640.08801269531</ele>
        <time>2020-06-20T11:45:47.350Z</time>
      </trkpt>
      <trkpt lat="45.63552" lon="3.30516">
        <ele>640.71392822266</ele>
        <time>2020-06-20T11:45:58.904Z</time>
      </trkpt>
      <trkpt lat="45.63594" lon="3.30555">
        <ele>640.47265625</ele>
        <time>2020-06-20T11:46:10.466Z</time>
      </trkpt>
      <trkpt lat="45.63623" lon="3.30567">
        <ele>640.96441650391</ele>
        <time>2020-06-20T11:46:22.032Z</time>
      </trkpt>
      <trkpt lat="45.6369" lon="3.30559">
        <ele>646.71374511719</ele>
        <time>2020-06-20T11:46:33.609Z</time>
      </trkpt>
      <trkpt lat="45.63723" lon="3.30532">
        <ele>645.15087890625</ele>
        <time>2020-06-20T11:46:45.192Z</time>
      </trkpt>
      <trkpt lat="45.63849" lon="3.30373">
        <ele>641.76202392578</ele>
        <time>2020-06-20T11:46:56.802Z</time>
      </trkpt>
      <trkpt lat="45.6385" lon="3.30373">
        <ele>641.76220703125</ele>
        <time>2020-06-20T11:47:08.412Z</time>
      </trkpt>
      <trkpt lat="45.6386" lon="3.30354">
        <ele>641.55627441406</ele>
        <time>2020-06-20T11:47:20.025Z</time>
      </trkpt>
      <trkpt lat="45.63913" lon="3.30254">
        <ele>643.05816650391</ele>
        <time>2020-06-20T11:47:31.652Z</time>
      </trkpt>
      <trkpt lat="45.63949" lon="3.30133">
        <ele>641.25415039062</ele>
        <time>2020-06-20T11:47:43.294Z</time>
      </trkpt>
      <trkpt lat="45.63999" lon="3.29814">
        <ele>638.44494628906</ele>
        <time>2020-06-20T11:47:54.973Z</time>
      </trkpt>
      <trkpt lat="45.64001" lon="3.2975">
        <ele>638.80212402344</ele>
        <time>2020-06-20T11:48:06.659Z</time>
      </trkpt>
      <trkpt lat="45.64001" lon="3.2975">
        <ele>638.80310058594</ele>
        <time>2020-06-20T11:48:18.345Z</time>
      </trkpt>
      <trkpt lat="45.63985" lon="3.29608">
        <ele>633.33386230469</ele>
        <time>2020-06-20T11:48:30.047Z</time>
      </trkpt>
      <trkpt lat="45.63987" lon="3.29559">
        <ele>631.97839355469</ele>
        <time>2020-06-20T11:48:41.754Z</time>
      </trkpt>
      <trkpt lat="45.63995" lon="3.29511">
        <ele>631.50799560547</ele>
        <time>2020-06-20T11:48:53.467Z</time>
      </trkpt>
      <trkpt lat="45.64062" lon="3.29395">
        <ele>630.48864746094</ele>
        <time>2020-06-20T11:49:05.197Z</time>
      </trkpt>
      <trkpt lat="45.64077" lon="3.29348">
        <ele>627.6064453125</ele>
        <time>2020-06-20T11:49:16.933Z</time>
      </trkpt>
      <trkpt lat="45.64081" lon="3.29298">
        <ele>624.81622314453</ele>
        <time>2020-06-20T11:49:28.674Z</time>
      </trkpt>
      <trkpt lat="45.64079" lon="3.29198">
        <ele>620.16143798828</ele>
        <time>2020-06-20T11:49:40.426Z</time>
      </trkpt>
      <trkpt lat="45.64089" lon="3.29154">
        <ele>619.43609619141</ele>
        <time>2020-06-20T11:49:52.184Z</time>
      </trkpt>
      <trkpt lat="45.64162" lon="3.29016">
        <ele>609.22503662109</ele>
        <time>2020-06-20T11:50:03.961Z</time>
      </trkpt>
      <trkpt lat="45.64166" lon="3.28985">
        <ele>608.31768798828</ele>
        <time>2020-06-20T11:50:15.742Z</time>
      </trkpt>
      <trkpt lat="45.64169" lon="3.28843">
        <ele>604.47784423828</ele>
        <time>2020-06-20T11:50:27.539Z</time>
      </trkpt>
      <trkpt lat="45.64169" lon="3.28843">
        <ele>604.47778320312</ele>
        <time>2020-06-20T11:50:39.336Z</time>
      </trkpt>
      <trkpt lat="45.64177" lon="3.28558">
        <ele>593.04418945312</ele>
        <time>2020-06-20T11:50:51.165Z</time>
      </trkpt>
      <trkpt lat="45.64177" lon="3.28548">
        <ele>592.78540039062</ele>
        <time>2020-06-20T11:51:02.995Z</time>
      </trkpt>
      <trkpt lat="45.64185" lon="3.28326">
        <ele>587.24584960938</ele>
        <time>2020-06-20T11:51:14.850Z</time>
      </trkpt>
      <trkpt lat="45.64201" lon="3.28251">
        <ele>582.69757080078</ele>
        <time>2020-06-20T11:51:26.713Z</time>
      </trkpt>
      <trkpt lat="45.64293" lon="3.27998">
        <ele>578.51489257812</ele>
        <time>2020-06-20T11:51:38.608Z</time>
      </trkpt>
      <trkpt lat="45.6434" lon="3.2775">
        <ele>569.15521240234</ele>
        <time>2020-06-20T11:51:50.532Z</time>
      </trkpt>
      <trkpt lat="45.64352" lon="3.27652">
        <ele>568.12048339844</ele>
        <time>2020-06-20T11:52:02.467Z</time>
      </trkpt>
      <trkpt lat="45.64347" lon="3.27576">
        <ele>567.72515869141</ele>
        <time>2020-06-20T11:52:14.411Z</time>
      </trkpt>
      <trkpt lat="45.64326" lon="3.27418">
        <ele>561.48358154297</ele>
        <time>2020-06-20T11:52:26.373Z</time>
      </trkpt>
      <trkpt lat="45.64325" lon="3.27337">
        <ele>555.89965820312</ele>
        <time>2020-06-20T11:52:38.344Z</time>
      </trkpt>
      <trkpt lat="45.64343" lon="3.27265">
        <ele>551.25622558594</ele>
        <time>2020-06-20T11:52:50.324Z</time>
      </trkpt>
      <trkpt lat="45.64364" lon="3.27226">
        <ele>549.8046875</ele>
        <time>2020-06-20T11:53:02.309Z</time>
      </trkpt>
      <trkpt lat="45.6442" lon="3.27167">
        <ele>546.42700195312</ele>
        <time>2020-06-20T11:53:14.305Z</time>
      </trkpt>
      <trkpt lat="45.64429" lon="3.27128">
        <ele>545.13830566406</ele>
        <time>2020-06-20T11:53:26.306Z</time>
      </trkpt>
      <trkpt lat="45.64431" lon="3.26898">
        <ele>537.6591796875</ele>
        <time>2020-06-20T11:53:38.333Z</time>
      </trkpt>
      <trkpt lat="45.64445" lon="3.26854">
        <ele>536.52117919922</ele>
        <time>2020-06-20T11:53:50.365Z</time>
      </trkpt>
      <trkpt lat="45.64498" lon="3.26769">
        <ele>529.783203125</ele>
        <time>2020-06-20T11:54:02.410Z</time>
      </trkpt>
      <trkpt lat="45.64509" lon="3.26736">
        <ele>527.69781494141</ele>
        <time>2020-06-20T11:54:14.459Z</time>
      </trkpt>
      <trkpt lat="45.64517" lon="3.26709">
        <ele>526.13781738281</ele>
        <time>2020-06-20T11:54:26.511Z</time>
      </trkpt>
      <trkpt lat="45.64518" lon="3.26661">
        <ele>524.43054199219</ele>
        <time>2020-06-20T11:54:38.569Z</time>
      </trkpt>
      <trkpt lat="45.64505" lon="3.26615">
        <ele>523.86560058594</ele>
        <time>2020-06-20T11:54:50.632Z</time>
      </trkpt>
      <trkpt lat="45.64472" lon="3.2656">
        <ele>521.48364257812</ele>
        <time>2020-06-20T11:55:02.703Z</time>
      </trkpt>
      <trkpt lat="45.64443" lon="3.26542">
        <ele>520.74798583984</ele>
        <time>2020-06-20T11:55:14.780Z</time>
      </trkpt>
      <trkpt lat="45.6431" lon="3.26501">
        <ele>517.53765869141</ele>
        <time>2020-06-20T11:55:26.878Z</time>
      </trkpt>
      <trkpt lat="45.64268" lon="3.26472">
        <ele>514.87072753906</ele>
        <time>2020-06-20T11:55:38.984Z</time>
      </trkpt>
      <trkpt lat="45.64235" lon="3.26431">
        <ele>510.68716430664</ele>
        <time>2020-06-20T11:55:51.097Z</time>
      </trkpt>
      <trkpt lat="45.64213" lon="3.2638">
        <ele>506.73345947266</ele>
        <time>2020-06-20T11:56:03.216Z</time>
      </trkpt>
      <trkpt lat="45.64201" lon="3.26323">
        <ele>503.72039794922</ele>
        <time>2020-06-20T11:56:15.342Z</time>
      </trkpt>
      <trkpt lat="45.64204" lon="3.26235">
        <ele>501.26794433594</ele>
        <time>2020-06-20T11:56:27.478Z</time>
      </trkpt>
      <trkpt lat="45.64204" lon="3.26235">
        <ele>501.26745605469</ele>
        <time>2020-06-20T11:56:39.614Z</time>
      </trkpt>
      <trkpt lat="45.64228" lon="3.26096">
        <ele>498.55624389648</ele>
        <time>2020-06-20T11:56:51.766Z</time>
      </trkpt>
      <trkpt lat="45.64261" lon="3.25868">
        <ele>494.23107910156</ele>
        <time>2020-06-20T11:57:03.944Z</time>
      </trkpt>
      <trkpt lat="45.64267" lon="3.25795">
        <ele>492.85482788086</ele>
        <time>2020-06-20T11:57:16.130Z</time>
      </trkpt>
      <trkpt lat="45.64267" lon="3.25795">
        <ele>492.85464477539</ele>
        <time>2020-06-20T11:57:28.317Z</time>
      </trkpt>
      <trkpt lat="45.64273" lon="3.25662">
        <ele>492.35009765625</ele>
        <time>2020-06-20T11:57:40.518Z</time>
      </trkpt>
      <trkpt lat="45.64278" lon="3.25539">
        <ele>492.2848815918</ele>
        <time>2020-06-20T11:57:52.733Z</time>
      </trkpt>
      <trkpt lat="45.64278" lon="3.25539">
        <ele>492.28466796875</ele>
        <time>2020-06-20T11:58:04.948Z</time>
      </trkpt>
      <trkpt lat="45.64283" lon="3.25456">
        <ele>492.67868041992</ele>
        <time>2020-06-20T11:58:17.173Z</time>
      </trkpt>
      <trkpt lat="45.64273" lon="3.25455">
        <ele>492.69506835938</ele>
        <time>2020-06-20T11:58:29.399Z</time>
      </trkpt>
      <trkpt lat="45.64273" lon="3.25455">
        <ele>492.69546508789</ele>
        <time>2020-06-20T11:58:41.625Z</time>
      </trkpt>
      <trkpt lat="45.64273" lon="3.25455">
        <ele>492.69546508789</ele>
        <time>2020-06-20T11:58:53.851Z</time>
      </trkpt>
      <trkpt lat="45.64283" lon="3.25456">
        <ele>492.67868041992</ele>
        <time>2020-06-20T11:59:06.079Z</time>
      </trkpt>
      <trkpt lat="45.64284" lon="3.25439">
        <ele>492.88461303711</ele>
        <time>2020-06-20T11:59:18.309Z</time>
      </trkpt>
      <trkpt lat="45.64287" lon="3.25379">
        <ele>492.76000976562</ele>
        <time>2020-06-20T11:59:30.546Z</time>
      </trkpt>
      <trkpt lat="45.64289" lon="3.25326">
        <ele>491.76376342773</ele>
        <time>2020-06-20T11:59:42.789Z</time>
      </trkpt>
      <trkpt lat="45.64292" lon="3.25258">
        <ele>490.87985229492</ele>
        <time>2020-06-20T11:59:55.039Z</time>
      </trkpt>
      <trkpt lat="45.64288" lon="3.25165">
        <ele>488.33160400391</ele>
        <time>2020-06-20T12:00:07.300Z</time>
      </trkpt>
      <trkpt lat="45.64288" lon="3.25165">
        <ele>488.33160400391</ele>
        <time>2020-06-20T12:00:19.561Z</time>
      </trkpt>
      <trkpt lat="45.64287" lon="3.25155">
        <ele>488.15594482422</ele>
        <time>2020-06-20T12:00:31.823Z</time>
      </trkpt>
      <trkpt lat="45.64285" lon="3.25134">
        <ele>487.83383178711</ele>
        <time>2020-06-20T12:00:44.087Z</time>
      </trkpt>
      <trkpt lat="45.64285" lon="3.25134">
        <ele>487.83413696289</ele>
        <time>2020-06-20T12:00:56.351Z</time>
      </trkpt>
      <trkpt lat="45.64278" lon="3.25071">
        <ele>487.10165405273</ele>
        <time>2020-06-20T12:01:08.622Z</time>
      </trkpt>
      <trkpt lat="45.64253" lon="3.24911">
        <ele>482.78213500977</ele>
        <time>2020-06-20T12:01:20.912Z</time>
      </trkpt>
      <trkpt lat="45.64253" lon="3.24911">
        <ele>482.78213500977</ele>
        <time>2020-06-20T12:01:33.202Z</time>
      </trkpt>
      <trkpt lat="45.64249" lon="3.24886">
        <ele>482.4860534668</ele>
        <time>2020-06-20T12:01:45.495Z</time>
      </trkpt>
      <trkpt lat="45.64245" lon="3.24851">
        <ele>482.06127929688</ele>
        <time>2020-06-20T12:01:57.792Z</time>
      </trkpt>
      <trkpt lat="45.64245" lon="3.24851">
        <ele>482.06127929688</ele>
        <time>2020-06-20T12:02:10.089Z</time>
      </trkpt>
      <trkpt lat="45.64242" lon="3.24806">
        <ele>482.47937011719</ele>
        <time>2020-06-20T12:02:22.391Z</time>
      </trkpt>
      <trkpt lat="45.64337" lon="3.24816">
        <ele>481.54495239258</ele>
        <time>2020-06-20T12:02:34.708Z</time>
      </trkpt>
      <trkpt lat="45.64368" lon="3.24808">
        <ele>480.65191650391</ele>
        <time>2020-06-20T12:02:47.030Z</time>
      </trkpt>
      <trkpt lat="45.64398" lon="3.24743">
        <ele>479.80947875977</ele>
        <time>2020-06-20T12:02:59.361Z</time>
      </trkpt>
      <trkpt lat="45.64403" lon="3.24717">
        <ele>479.92565917969</ele>
        <time>2020-06-20T12:03:11.695Z</time>
      </trkpt>
      <trkpt lat="45.64405" lon="3.2463">
        <ele>480.30062866211</ele>
        <time>2020-06-20T12:03:24.038Z</time>
      </trkpt>
      <trkpt lat="45.64435" lon="3.24593">
        <ele>479.78475952148</ele>
        <time>2020-06-20T12:03:36.388Z</time>
      </trkpt>
      <trkpt lat="45.64498" lon="3.24593">
        <ele>478.00765991211</ele>
        <time>2020-06-20T12:03:48.748Z</time>
      </trkpt>
      <trkpt lat="45.64624" lon="3.24548">
        <ele>470.70782470703</ele>
        <time>2020-06-20T12:04:01.129Z</time>
      </trkpt>
      <trkpt lat="45.64753" lon="3.24442">
        <ele>465.34906005859</ele>
        <time>2020-06-20T12:04:13.533Z</time>
      </trkpt>
      <trkpt lat="45.64753" lon="3.24442">
        <ele>465.34924316406</ele>
        <time>2020-06-20T12:04:25.937Z</time>
      </trkpt>
      <trkpt lat="45.64807" lon="3.24368">
        <ele>460.83752441406</ele>
        <time>2020-06-20T12:04:38.353Z</time>
      </trkpt>
      <trkpt lat="45.64831" lon="3.2437">
        <ele>459.55804443359</ele>
        <time>2020-06-20T12:04:50.773Z</time>
      </trkpt>
      <trkpt lat="45.649" lon="3.24397">
        <ele>457.73043823242</ele>
        <time>2020-06-20T12:05:03.205Z</time>
      </trkpt>
      <trkpt lat="45.64976" lon="3.24353">
        <ele>452.94024658203</ele>
        <time>2020-06-20T12:05:15.650Z</time>
      </trkpt>
      <trkpt lat="45.6506" lon="3.24284">
        <ele>448.57287597656</ele>
        <time>2020-06-20T12:05:28.110Z</time>
      </trkpt>
      <trkpt lat="45.651" lon="3.24281">
        <ele>446.82427978516</ele>
        <time>2020-06-20T12:05:40.577Z</time>
      </trkpt>
      <trkpt lat="45.65138" lon="3.24305">
        <ele>444.68145751953</ele>
        <time>2020-06-20T12:05:53.050Z</time>
      </trkpt>
      <trkpt lat="45.65162" lon="3.24342">
        <ele>440.38082885742</ele>
        <time>2020-06-20T12:06:05.529Z</time>
      </trkpt>
      <trkpt lat="45.65183" lon="3.24411">
        <ele>439.12698364258</ele>
        <time>2020-06-20T12:06:18.017Z</time>
      </trkpt>
      <trkpt lat="45.65199" lon="3.24421">
        <ele>437.31195068359</ele>
        <time>2020-06-20T12:06:30.507Z</time>
      </trkpt>
      <trkpt lat="45.65217" lon="3.24411">
        <ele>434.61975097656</ele>
        <time>2020-06-20T12:06:43.000Z</time>
      </trkpt>
      <trkpt lat="45.65217" lon="3.24411">
        <ele>434.61856079102</ele>
        <time>2020-06-20T12:06:55.493Z</time>
      </trkpt>
      <trkpt lat="45.65225" lon="3.24386">
        <ele>431.77038574219</ele>
        <time>2020-06-20T12:07:07.989Z</time>
      </trkpt>
      <trkpt lat="45.65223" lon="3.24341">
        <ele>431.3850402832</ele>
        <time>2020-06-20T12:07:20.491Z</time>
      </trkpt>
      <trkpt lat="45.65227" lon="3.24296">
        <ele>433.00695800781</ele>
        <time>2020-06-20T12:07:32.998Z</time>
      </trkpt>
      <trkpt lat="45.65232" lon="3.2428">
        <ele>432.62078857422</ele>
        <time>2020-06-20T12:07:45.507Z</time>
      </trkpt>
      <trkpt lat="45.65268" lon="3.24251">
        <ele>425.03253173828</ele>
        <time>2020-06-20T12:07:58.022Z</time>
      </trkpt>
      <trkpt lat="45.65288" lon="3.24231">
        <ele>421.41854858398</ele>
        <time>2020-06-20T12:08:10.541Z</time>
      </trkpt>
      <trkpt lat="45.65309" lon="3.24192">
        <ele>420.53396606445</ele>
        <time>2020-06-20T12:08:23.066Z</time>
      </trkpt>
      <trkpt lat="45.65348" lon="3.24047">
        <ele>408.6169128418</ele>
        <time>2020-06-20T12:08:35.608Z</time>
      </trkpt>
      <trkpt lat="45.65415" lon="3.2395">
        <ele>401.77001953125</ele>
        <time>2020-06-20T12:08:48.165Z</time>
      </trkpt>
      <trkpt lat="45.65427" lon="3.23916">
        <ele>398.61871337891</ele>
        <time>2020-06-20T12:09:00.727Z</time>
      </trkpt>
      <trkpt lat="45.65429" lon="3.23857">
        <ele>395.69543457031</ele>
        <time>2020-06-20T12:09:13.295Z</time>
      </trkpt>
      <trkpt lat="45.65394" lon="3.2371">
        <ele>392.91714477539</ele>
        <time>2020-06-20T12:09:25.881Z</time>
      </trkpt>
      <trkpt lat="45.65394" lon="3.23694">
        <ele>391.56555175781</ele>
        <time>2020-06-20T12:09:38.468Z</time>
      </trkpt>
      <trkpt lat="45.65405" lon="3.23564">
        <ele>384.15307617188</ele>
        <time>2020-06-20T12:09:51.070Z</time>
      </trkpt>
      <trkpt lat="45.65376" lon="3.23441">
        <ele>379.10733032227</ele>
        <time>2020-06-20T12:10:03.687Z</time>
      </trkpt>
      <trkpt lat="45.65381" lon="3.23345">
        <ele>374.59857177734</ele>
        <time>2020-06-20T12:10:16.314Z</time>
      </trkpt>
      <trkpt lat="45.65375" lon="3.23296">
        <ele>375.73361206055</ele>
        <time>2020-06-20T12:10:28.947Z</time>
      </trkpt>
      <trkpt lat="45.65383" lon="3.23268">
        <ele>373.84136962891</ele>
        <time>2020-06-20T12:10:41.583Z</time>
      </trkpt>
      <trkpt lat="45.65401" lon="3.23255">
        <ele>377.39764404297</ele>
        <time>2020-06-20T12:10:54.223Z</time>
      </trkpt>
      <trkpt lat="45.65414" lon="3.23175">
        <ele>389.62130737305</ele>
        <time>2020-06-20T12:11:06.872Z</time>
      </trkpt>
      <trkpt lat="45.65414" lon="3.23175">
        <ele>389.61776733398</ele>
        <time>2020-06-20T12:11:19.521Z</time>
      </trkpt>
      <trkpt lat="45.65414" lon="3.23053">
        <ele>384.2262878418</ele>
        <time>2020-06-20T12:11:32.183Z</time>
      </trkpt>
      <trkpt lat="45.65529" lon="3.22744">
        <ele>360.20092773438</ele>
        <time>2020-06-20T12:11:44.885Z</time>
      </trkpt>
      <trkpt lat="45.65581" lon="3.22652">
        <ele>358.70669555664</ele>
        <time>2020-06-20T12:11:57.600Z</time>
      </trkpt>
      <trkpt lat="45.656" lon="3.22625">
        <ele>358.53247070312</ele>
        <time>2020-06-20T12:12:10.319Z</time>
      </trkpt>
      <trkpt lat="45.65643" lon="3.22588">
        <ele>357.58737182617</ele>
        <time>2020-06-20T12:12:23.046Z</time>
      </trkpt>
      <trkpt lat="45.65653" lon="3.22579">
        <ele>359.67269897461</ele>
        <time>2020-06-20T12:12:35.775Z</time>
      </trkpt>
      <trkpt lat="45.65705" lon="3.22491">
        <ele>361.19302368164</ele>
        <time>2020-06-20T12:12:48.517Z</time>
      </trkpt>
      <trkpt lat="45.65775" lon="3.22348">
        <ele>358.8173828125</ele>
        <time>2020-06-20T12:13:01.279Z</time>
      </trkpt>
      <trkpt lat="45.65802" lon="3.22264">
        <ele>352.23889160156</ele>
        <time>2020-06-20T12:13:14.051Z</time>
      </trkpt>
      <trkpt lat="45.6585" lon="3.22207">
        <ele>353.80944824219</ele>
        <time>2020-06-20T12:13:26.833Z</time>
      </trkpt>
      <trkpt lat="45.65919" lon="3.22141">
        <ele>348.7080078125</ele>
        <time>2020-06-20T12:13:39.628Z</time>
      </trkpt>
      <trkpt lat="45.65934" lon="3.22135">
        <ele>348.90615844727</ele>
        <time>2020-06-20T12:13:52.426Z</time>
      </trkpt>
      <trkpt lat="45.66007" lon="3.22158">
        <ele>349.9553527832</ele>
        <time>2020-06-20T12:14:05.236Z</time>
      </trkpt>
      <trkpt lat="45.66007" lon="3.22158">
        <ele>349.95574951172</ele>
        <time>2020-06-20T12:14:18.046Z</time>
      </trkpt>
      <trkpt lat="45.66117" lon="3.2216">
        <ele>341.55773925781</ele>
        <time>2020-06-20T12:14:30.873Z</time>
      </trkpt>
      <trkpt lat="45.66118" lon="3.22169">
        <ele>342.1618347168</ele>
        <time>2020-06-20T12:14:43.701Z</time>
      </trkpt>
      <trkpt lat="45.66134" lon="3.22278">
        <ele>342.22491455078</ele>
        <time>2020-06-20T12:14:56.542Z</time>
      </trkpt>
      <trkpt lat="45.66134" lon="3.22278">
        <ele>342.22268676758</ele>
        <time>2020-06-20T12:15:09.383Z</time>
      </trkpt>
      <trkpt lat="45.66159" lon="3.2236">
        <ele>342.83609008789</ele>
        <time>2020-06-20T12:15:22.234Z</time>
      </trkpt>
      <trkpt lat="45.66168" lon="3.22373">
        <ele>342.68222045898</ele>
        <time>2020-06-20T12:15:35.087Z</time>
      </trkpt>
      <trkpt lat="45.66203" lon="3.22411">
        <ele>341.5237121582</ele>
        <time>2020-06-20T12:15:47.947Z</time>
      </trkpt>
      <trkpt lat="45.66248" lon="3.22433">
        <ele>341.76873779297</ele>
        <time>2020-06-20T12:16:00.815Z</time>
      </trkpt>
      <trkpt lat="45.66334" lon="3.22449">
        <ele>343.43899536133</ele>
        <time>2020-06-20T12:16:13.696Z</time>
      </trkpt>
      <trkpt lat="45.66386" lon="3.2246">
        <ele>344.21136474609</ele>
        <time>2020-06-20T12:16:26.586Z</time>
      </trkpt>
      <trkpt lat="45.66386" lon="3.2246">
        <ele>344.21136474609</ele>
        <time>2020-06-20T12:16:39.476Z</time>
      </trkpt>
      <trkpt lat="45.66403" lon="3.22461">
        <ele>343.68365478516</ele>
        <time>2020-06-20T12:16:52.369Z</time>
      </trkpt>
      <trkpt lat="45.66403" lon="3.22461">
        <ele>343.68334960938</ele>
        <time>2020-06-20T12:17:05.262Z</time>
      </trkpt>
      <trkpt lat="45.66441" lon="3.22452">
        <ele>342.087890625</ele>
        <time>2020-06-20T12:17:18.161Z</time>
      </trkpt>
      <trkpt lat="45.66544" lon="3.22378">
        <ele>339.78051757812</ele>
        <time>2020-06-20T12:17:31.078Z</time>
      </trkpt>
      <trkpt lat="45.66544" lon="3.22378">
        <ele>339.78051757812</ele>
        <time>2020-06-20T12:17:43.995Z</time>
      </trkpt>
      <trkpt lat="45.66618" lon="3.22358">
        <ele>342.25061035156</ele>
        <time>2020-06-20T12:17:56.924Z</time>
      </trkpt>
      <trkpt lat="45.66624" lon="3.22357">
        <ele>342.54669189453</ele>
        <time>2020-06-20T12:18:09.854Z</time>
      </trkpt>
      <trkpt lat="45.66668" lon="3.22362">
        <ele>344.74810791016</ele>
        <time>2020-06-20T12:18:22.791Z</time>
      </trkpt>
      <trkpt lat="45.66668" lon="3.22362">
        <ele>344.7483215332</ele>
        <time>2020-06-20T12:18:35.728Z</time>
      </trkpt>
      <trkpt lat="45.66671" lon="3.22362">
        <ele>344.82553100586</ele>
        <time>2020-06-20T12:18:48.666Z</time>
      </trkpt>
      <trkpt lat="45.66751" lon="3.22369">
        <ele>346.84060668945</ele>
        <time>2020-06-20T12:19:01.617Z</time>
      </trkpt>
      <trkpt lat="45.66856" lon="3.22382">
        <ele>348.30090332031</ele>
        <time>2020-06-20T12:19:14.584Z</time>
      </trkpt>
      <trkpt lat="45.66946" lon="3.22426">
        <ele>358.2096862793</ele>
        <time>2020-06-20T12:19:27.567Z</time>
      </trkpt>
      <trkpt lat="45.6698" lon="3.22436">
        <ele>363.31286621094</ele>
        <time>2020-06-20T12:19:40.555Z</time>
      </trkpt>
      <trkpt lat="45.66997" lon="3.22431">
        <ele>365.64279174805</ele>
        <time>2020-06-20T12:19:53.546Z</time>
      </trkpt>
      <trkpt lat="45.67035" lon="3.22391">
        <ele>363.10269165039</ele>
        <time>2020-06-20T12:20:06.545Z</time>
      </trkpt>
      <trkpt lat="45.67062" lon="3.22373">
        <ele>359.67388916016</ele>
        <time>2020-06-20T12:20:19.548Z</time>
      </trkpt>
      <trkpt lat="45.67195" lon="3.22399">
        <ele>373.82791137695</ele>
        <time>2020-06-20T12:20:32.573Z</time>
      </trkpt>
      <trkpt lat="45.67244" lon="3.22403">
        <ele>378.39038085938</ele>
        <time>2020-06-20T12:20:45.606Z</time>
      </trkpt>
      <trkpt lat="45.67334" lon="3.22393">
        <ele>379.66159057617</ele>
        <time>2020-06-20T12:20:58.653Z</time>
      </trkpt>
      <trkpt lat="45.67391" lon="3.22364">
        <ele>373.68731689453</ele>
        <time>2020-06-20T12:21:11.710Z</time>
      </trkpt>
      <trkpt lat="45.67487" lon="3.22364">
        <ele>381.93228149414</ele>
        <time>2020-06-20T12:21:24.782Z</time>
      </trkpt>
      <trkpt lat="45.67513" lon="3.22344">
        <ele>378.63375854492</ele>
        <time>2020-06-20T12:21:37.859Z</time>
      </trkpt>
      <trkpt lat="45.67513" lon="3.22344">
        <ele>378.63455200195</ele>
        <time>2020-06-20T12:21:50.936Z</time>
      </trkpt>
      <trkpt lat="45.67543" lon="3.22324">
        <ele>375.07757568359</ele>
        <time>2020-06-20T12:22:04.018Z</time>
      </trkpt>
      <trkpt lat="45.67712" lon="3.22286">
        <ele>383.97317504883</ele>
        <time>2020-06-20T12:22:17.128Z</time>
      </trkpt>
      <trkpt lat="45.67724" lon="3.22271">
        <ele>382.91763305664</ele>
        <time>2020-06-20T12:22:30.240Z</time>
      </trkpt>
      <trkpt lat="45.67745" lon="3.22218">
        <ele>371.7702331543</ele>
        <time>2020-06-20T12:22:43.359Z</time>
      </trkpt>
      <trkpt lat="45.67822" lon="3.22144">
        <ele>376.01748657227</ele>
        <time>2020-06-20T12:22:56.493Z</time>
      </trkpt>
      <trkpt lat="45.67844" lon="3.22098">
        <ele>372.34970092773</ele>
        <time>2020-06-20T12:23:09.633Z</time>
      </trkpt>
      <trkpt lat="45.67903" lon="3.22028">
        <ele>376.14306640625</ele>
        <time>2020-06-20T12:23:22.785Z</time>
      </trkpt>
      <trkpt lat="45.67961" lon="3.21908">
        <ele>364.16427612305</ele>
        <time>2020-06-20T12:23:35.954Z</time>
      </trkpt>
      <trkpt lat="45.67977" lon="3.21832">
        <ele>355.04751586914</ele>
        <time>2020-06-20T12:23:49.132Z</time>
      </trkpt>
      <trkpt lat="45.67993" lon="3.21788">
        <ele>351.59771728516</ele>
        <time>2020-06-20T12:24:02.315Z</time>
      </trkpt>
      <trkpt lat="45.68068" lon="3.21715">
        <ele>344.48059082031</ele>
        <time>2020-06-20T12:24:15.513Z</time>
      </trkpt>
      <trkpt lat="45.68085" lon="3.21684">
        <ele>342.14215087891</ele>
        <time>2020-06-20T12:24:28.715Z</time>
      </trkpt>
      <trkpt lat="45.68153" lon="3.21529">
        <ele>337.82104492188</ele>
        <time>2020-06-20T12:24:41.938Z</time>
      </trkpt>
      <trkpt lat="45.68168" lon="3.21507">
        <ele>338.0061340332</ele>
        <time>2020-06-20T12:24:55.164Z</time>
      </trkpt>
      <trkpt lat="45.68199" lon="3.21485">
        <ele>338.54156494141</ele>
        <time>2020-06-20T12:25:08.396Z</time>
      </trkpt>
      <trkpt lat="45.68241" lon="3.21483">
        <ele>338.71170043945</ele>
        <time>2020-06-20T12:25:21.634Z</time>
      </trkpt>
      <trkpt lat="45.68414" lon="3.21548">
        <ele>340.3571472168</ele>
        <time>2020-06-20T12:25:34.901Z</time>
      </trkpt>
      <trkpt lat="45.68548" lon="3.21636">
        <ele>347.4089050293</ele>
        <time>2020-06-20T12:25:48.192Z</time>
      </trkpt>
      <trkpt lat="45.68656" lon="3.21704">
        <ele>351.90222167969</ele>
        <time>2020-06-20T12:26:01.501Z</time>
      </trkpt>
      <trkpt lat="45.68792" lon="3.21746">
        <ele>357.4560546875</ele>
        <time>2020-06-20T12:26:14.833Z</time>
      </trkpt>
      <trkpt lat="45.68824" lon="3.21749">
        <ele>357.82705688477</ele>
        <time>2020-06-20T12:26:28.170Z</time>
      </trkpt>
      <trkpt lat="45.68828" lon="3.21749">
        <ele>357.78845214844</ele>
        <time>2020-06-20T12:26:41.507Z</time>
      </trkpt>
      <trkpt lat="45.68885" lon="3.21752">
        <ele>357.60830688477</ele>
        <time>2020-06-20T12:26:54.854Z</time>
      </trkpt>
      <trkpt lat="45.69015" lon="3.21763">
        <ele>359.58917236328</ele>
        <time>2020-06-20T12:27:08.222Z</time>
      </trkpt>
      <trkpt lat="45.69112" lon="3.21771">
        <ele>360.20889282227</ele>
        <time>2020-06-20T12:27:21.605Z</time>
      </trkpt>
      <trkpt lat="45.69139" lon="3.21778">
        <ele>360.3095703125</ele>
        <time>2020-06-20T12:27:34.992Z</time>
      </trkpt>
      <trkpt lat="45.69143" lon="3.21784">
        <ele>360.28381347656</ele>
        <time>2020-06-20T12:27:48.380Z</time>
      </trkpt>
      <trkpt lat="45.69154" lon="3.21784">
        <ele>359.89764404297</ele>
        <time>2020-06-20T12:28:01.770Z</time>
      </trkpt>
      <trkpt lat="45.69158" lon="3.21777">
        <ele>359.58901977539</ele>
        <time>2020-06-20T12:28:15.161Z</time>
      </trkpt>
      <trkpt lat="45.69185" lon="3.21769">
        <ele>358.41760253906</ele>
        <time>2020-06-20T12:28:28.556Z</time>
      </trkpt>
      <trkpt lat="45.69236" lon="3.21769">
        <ele>356.64266967773</ele>
        <time>2020-06-20T12:28:41.960Z</time>
      </trkpt>
      <trkpt lat="45.69288" lon="3.21757">
        <ele>354.42684936523</ele>
        <time>2020-06-20T12:28:55.372Z</time>
      </trkpt>
      <trkpt lat="45.69422" lon="3.21706">
        <ele>351.99627685547</ele>
        <time>2020-06-20T12:29:08.806Z</time>
      </trkpt>
      <trkpt lat="45.69422" lon="3.21706">
        <ele>351.99627685547</ele>
        <time>2020-06-20T12:29:22.240Z</time>
      </trkpt>
      <trkpt lat="45.69501" lon="3.21674">
        <ele>350.46035766602</ele>
        <time>2020-06-20T12:29:35.687Z</time>
      </trkpt>
      <trkpt lat="45.69508" lon="3.21672">
        <ele>350.30599975586</ele>
        <time>2020-06-20T12:29:49.135Z</time>
      </trkpt>
      <trkpt lat="45.69559" lon="3.21656">
        <ele>349.23693847656</ele>
        <time>2020-06-20T12:30:02.592Z</time>
      </trkpt>
      <trkpt lat="45.69614" lon="3.21656">
        <ele>347.27108764648</ele>
        <time>2020-06-20T12:30:16.058Z</time>
      </trkpt>
      <trkpt lat="45.6995" lon="3.21692">
        <ele>337.06576538086</ele>
        <time>2020-06-20T12:30:29.578Z</time>
      </trkpt>
      <trkpt lat="45.6995" lon="3.21692">
        <ele>337.06567382812</ele>
        <time>2020-06-20T12:30:43.098Z</time>
      </trkpt>
      <trkpt lat="45.69991" lon="3.21699">
        <ele>336.96279907227</ele>
        <time>2020-06-20T12:30:56.624Z</time>
      </trkpt>
      <trkpt lat="45.7009" lon="3.21717">
        <ele>335.97094726562</ele>
        <time>2020-06-20T12:31:10.166Z</time>
      </trkpt>
      <trkpt lat="45.701" lon="3.21719">
        <ele>335.6784362793</ele>
        <time>2020-06-20T12:31:23.710Z</time>
      </trkpt>
      <trkpt lat="45.7023" lon="3.21728">
        <ele>333.19219970703</ele>
        <time>2020-06-20T12:31:37.275Z</time>
      </trkpt>
      <trkpt lat="45.7048" lon="3.21814">
        <ele>340.80187988281</ele>
        <time>2020-06-20T12:31:50.881Z</time>
      </trkpt>
      <trkpt lat="45.70634" lon="3.2185">
        <ele>341.25717163086</ele>
        <time>2020-06-20T12:32:04.512Z</time>
      </trkpt>
      <trkpt lat="45.70748" lon="3.21845">
        <ele>340.5712890625</ele>
        <time>2020-06-20T12:32:18.161Z</time>
      </trkpt>
      <trkpt lat="45.70771" lon="3.21851">
        <ele>340.2770690918</ele>
        <time>2020-06-20T12:32:31.814Z</time>
      </trkpt>
      <trkpt lat="45.70808" lon="3.21876">
        <ele>341.21179199219</ele>
        <time>2020-06-20T12:32:45.473Z</time>
      </trkpt>
      <trkpt lat="45.70857" lon="3.21934">
        <ele>343.52801513672</ele>
        <time>2020-06-20T12:32:59.142Z</time>
      </trkpt>
      <trkpt lat="45.70882" lon="3.21957">
        <ele>343.88845825195</ele>
        <time>2020-06-20T12:33:12.816Z</time>
      </trkpt>
      <trkpt lat="45.70935" lon="3.2198">
        <ele>340.97064208984</ele>
        <time>2020-06-20T12:33:26.499Z</time>
      </trkpt>
      <trkpt lat="45.71005" lon="3.21998">
        <ele>337.28500366211</ele>
        <time>2020-06-20T12:33:40.193Z</time>
      </trkpt>
      <trkpt lat="45.71225" lon="3.22058">
        <ele>329.20944213867</ele>
        <time>2020-06-20T12:33:53.923Z</time>
      </trkpt>
      <trkpt lat="45.71331" lon="3.22089">
        <ele>331.7102355957</ele>
        <time>2020-06-20T12:34:07.671Z</time>
      </trkpt>
      <trkpt lat="45.7139" lon="3.22105">
        <ele>332.5373840332</ele>
        <time>2020-06-20T12:34:21.428Z</time>
      </trkpt>
      <trkpt lat="45.71402" lon="3.22109">
        <ele>332.43200683594</ele>
        <time>2020-06-20T12:34:35.187Z</time>
      </trkpt>
      <trkpt lat="45.71411" lon="3.22111">
        <ele>332.23892211914</ele>
        <time>2020-06-20T12:34:48.948Z</time>
      </trkpt>
      <trkpt lat="45.71529" lon="3.22157">
        <ele>330.6061706543</ele>
        <time>2020-06-20T12:35:02.728Z</time>
      </trkpt>
      <trkpt lat="45.71604" lon="3.22185">
        <ele>330.07800292969</ele>
        <time>2020-06-20T12:35:16.521Z</time>
      </trkpt>
      <trkpt lat="45.7172" lon="3.22232">
        <ele>330.91879272461</ele>
        <time>2020-06-20T12:35:30.333Z</time>
      </trkpt>
      <trkpt lat="45.7172" lon="3.22232">
        <ele>330.91879272461</ele>
        <time>2020-06-20T12:35:44.145Z</time>
      </trkpt>
      <trkpt lat="45.71816" lon="3.2227">
        <ele>331.60708618164</ele>
        <time>2020-06-20T12:35:57.973Z</time>
      </trkpt>
      <trkpt lat="45.72107" lon="3.22397">
        <ele>330.5768737793</ele>
        <time>2020-06-20T12:36:11.850Z</time>
      </trkpt>
      <trkpt lat="45.72246" lon="3.22453">
        <ele>329.51593017578</ele>
        <time>2020-06-20T12:36:25.750Z</time>
      </trkpt>
      <trkpt lat="45.72361" lon="3.22479">
        <ele>330.20053100586</ele>
        <time>2020-06-20T12:36:39.668Z</time>
      </trkpt>
      <trkpt lat="45.72351" lon="3.22524">
        <ele>329.25546264648</ele>
        <time>2020-06-20T12:36:53.592Z</time>
      </trkpt>
      <trkpt lat="45.72295" lon="3.22513">
        <ele>325.70373535156</ele>
        <time>2020-06-20T12:37:07.525Z</time>
      </trkpt>
      <trkpt lat="45.72302" lon="3.22437">
        <ele>328.75646972656</ele>
        <time>2020-06-20T12:37:21.466Z</time>
      </trkpt>
      <trkpt lat="45.72396" lon="3.22463">
        <ele>329.70715332031</ele>
        <time>2020-06-20T12:37:35.423Z</time>
      </trkpt>
      <trkpt lat="45.72476" lon="3.22472">
        <ele>329.59613037109</ele>
        <time>2020-06-20T12:37:49.392Z</time>
      </trkpt>
      <trkpt lat="45.72476" lon="3.22472">
        <ele>329.57510375977</ele>
        <time>2020-06-20T12:38:03.362Z</time>
      </trkpt>
      <trkpt lat="45.72476" lon="3.22472">
        <ele>329.57388305664</ele>
        <time>2020-06-20T12:38:17.332Z</time>
      </trkpt>
      <trkpt lat="45.72396" lon="3.22463">
        <ele>329.70715332031</ele>
        <time>2020-06-20T12:38:31.314Z</time>
      </trkpt>
      <trkpt lat="45.72302" lon="3.22437">
        <ele>328.75625610352</ele>
        <time>2020-06-20T12:38:45.312Z</time>
      </trkpt>
      <trkpt lat="45.72295" lon="3.22513">
        <ele>325.70373535156</ele>
        <time>2020-06-20T12:38:59.318Z</time>
      </trkpt>
      <trkpt lat="45.72351" lon="3.22524">
        <ele>329.25546264648</ele>
        <time>2020-06-20T12:39:13.333Z</time>
      </trkpt>
      <trkpt lat="45.72361" lon="3.22479">
        <ele>330.20053100586</ele>
        <time>2020-06-20T12:39:27.354Z</time>
      </trkpt>
      <trkpt lat="45.72502" lon="3.22506">
        <ele>327.71060180664</ele>
        <time>2020-06-20T12:39:41.398Z</time>
      </trkpt>
      <trkpt lat="45.72502" lon="3.22506">
        <ele>327.70999145508</ele>
        <time>2020-06-20T12:39:55.442Z</time>
      </trkpt>
      <trkpt lat="45.72574" lon="3.2252">
        <ele>323.02392578125</ele>
        <time>2020-06-20T12:40:09.497Z</time>
      </trkpt>
      <trkpt lat="45.72621" lon="3.22546">
        <ele>320.75796508789</ele>
        <time>2020-06-20T12:40:23.560Z</time>
      </trkpt>
      <trkpt lat="45.7263" lon="3.22553">
        <ele>320.34603881836</ele>
        <time>2020-06-20T12:40:37.625Z</time>
      </trkpt>
      <trkpt lat="45.72828" lon="3.22717">
        <ele>319.86837768555</ele>
        <time>2020-06-20T12:40:51.727Z</time>
      </trkpt>
      <trkpt lat="45.72935" lon="3.22781">
        <ele>319.23028564453</ele>
        <time>2020-06-20T12:41:05.847Z</time>
      </trkpt>
      <trkpt lat="45.72978" lon="3.22808">
        <ele>319.46795654297</ele>
        <time>2020-06-20T12:41:19.975Z</time>
      </trkpt>
      <trkpt lat="45.72984" lon="3.22819">
        <ele>319.51953125</ele>
        <time>2020-06-20T12:41:34.104Z</time>
      </trkpt>
      <trkpt lat="45.73002" lon="3.22823">
        <ele>319.35220336914</ele>
        <time>2020-06-20T12:41:48.236Z</time>
      </trkpt>
      <trkpt lat="45.73013" lon="3.22815">
        <ele>319.12048339844</ele>
        <time>2020-06-20T12:42:02.370Z</time>
      </trkpt>
      <trkpt lat="45.73093" lon="3.22841">
        <ele>318.95114135742</ele>
        <time>2020-06-20T12:42:16.517Z</time>
      </trkpt>
      <trkpt lat="45.73156" lon="3.22859">
        <ele>318.93612670898</ele>
        <time>2020-06-20T12:42:30.674Z</time>
      </trkpt>
      <trkpt lat="45.73501" lon="3.22961">
        <ele>317.6340637207</ele>
        <time>2020-06-20T12:42:44.888Z</time>
      </trkpt>
      <trkpt lat="45.73877" lon="3.23032">
        <ele>318.62872314453</ele>
        <time>2020-06-20T12:42:59.163Z</time>
      </trkpt>
      <trkpt lat="45.73877" lon="3.23032">
        <ele>318.62884521484</ele>
        <time>2020-06-20T12:43:13.438Z</time>
      </trkpt>
      <trkpt lat="45.73988" lon="3.23053">
        <ele>321.5129699707</ele>
        <time>2020-06-20T12:43:27.731Z</time>
      </trkpt>
      <trkpt lat="45.74052" lon="3.23076">
        <ele>321.42895507812</ele>
        <time>2020-06-20T12:43:42.034Z</time>
      </trkpt>
      <trkpt lat="45.74131" lon="3.23128">
        <ele>324.44549560547</ele>
        <time>2020-06-20T12:43:56.351Z</time>
      </trkpt>
      <trkpt lat="45.74173" lon="3.23164">
        <ele>323.52270507812</ele>
        <time>2020-06-20T12:44:10.676Z</time>
      </trkpt>
      <trkpt lat="45.74173" lon="3.23164">
        <ele>323.52270507812</ele>
        <time>2020-06-20T12:44:25.001Z</time>
      </trkpt>
      <trkpt lat="45.74179" lon="3.23173">
        <ele>323.21377563477</ele>
        <time>2020-06-20T12:44:39.327Z</time>
      </trkpt>
      <trkpt lat="45.74311" lon="3.23337">
        <ele>327.49114990234</ele>
        <time>2020-06-20T12:44:53.681Z</time>
      </trkpt>
      <trkpt lat="45.74311" lon="3.23337">
        <ele>327.49114990234</ele>
        <time>2020-06-20T12:45:08.035Z</time>
      </trkpt>
      <trkpt lat="45.74459" lon="3.23484">
        <ele>335.30877685547</ele>
        <time>2020-06-20T12:45:22.418Z</time>
      </trkpt>
      <trkpt lat="45.74508" lon="3.23546">
        <ele>337.24920654297</ele>
        <time>2020-06-20T12:45:36.811Z</time>
      </trkpt>
      <trkpt lat="45.74508" lon="3.23546">
        <ele>337.24868774414</ele>
        <time>2020-06-20T12:45:51.204Z</time>
      </trkpt>
      <trkpt lat="45.74747" lon="3.23893">
        <ele>333.56616210938</ele>
        <time>2020-06-20T12:46:05.652Z</time>
      </trkpt>
      <trkpt lat="45.74781" lon="3.23939">
        <ele>334.23934936523</ele>
        <time>2020-06-20T12:46:20.108Z</time>
      </trkpt>
      <trkpt lat="45.74811" lon="3.2396">
        <ele>334.92044067383</ele>
        <time>2020-06-20T12:46:34.569Z</time>
      </trkpt>
      <trkpt lat="45.74839" lon="3.23975">
        <ele>335.95025634766</ele>
        <time>2020-06-20T12:46:49.035Z</time>
      </trkpt>
      <trkpt lat="45.74897" lon="3.2398">
        <ele>337.6692199707</ele>
        <time>2020-06-20T12:47:03.510Z</time>
      </trkpt>
      <trkpt lat="45.74901" lon="3.24">
        <ele>338.36434936523</ele>
        <time>2020-06-20T12:47:17.987Z</time>
      </trkpt>
      <trkpt lat="45.74922" lon="3.24028">
        <ele>340.0124206543</ele>
        <time>2020-06-20T12:47:32.469Z</time>
      </trkpt>
      <trkpt lat="45.74932" lon="3.24033">
        <ele>340.65563964844</ele>
        <time>2020-06-20T12:47:46.953Z</time>
      </trkpt>
      <trkpt lat="45.74969" lon="3.24071">
        <ele>343.30737304688</ele>
        <time>2020-06-20T12:48:01.444Z</time>
      </trkpt>
      <trkpt lat="45.74969" lon="3.24071">
        <ele>343.30776977539</ele>
        <time>2020-06-20T12:48:15.935Z</time>
      </trkpt>
      <trkpt lat="45.74985" lon="3.24085">
        <ele>343.90921020508</ele>
        <time>2020-06-20T12:48:30.429Z</time>
      </trkpt>
      <trkpt lat="45.74994" lon="3.24094">
        <ele>344.21813964844</ele>
        <time>2020-06-20T12:48:44.925Z</time>
      </trkpt>
      <trkpt lat="45.75038" lon="3.24127">
        <ele>344.79928588867</ele>
        <time>2020-06-20T12:48:59.429Z</time>
      </trkpt>
      <trkpt lat="45.75117" lon="3.24193">
        <ele>348.17742919922</ele>
        <time>2020-06-20T12:49:13.947Z</time>
      </trkpt>
      <trkpt lat="45.75156" lon="3.2422">
        <ele>350.78317260742</ele>
        <time>2020-06-20T12:49:28.472Z</time>
      </trkpt>
      <trkpt lat="45.75218" lon="3.24244">
        <ele>355.36019897461</ele>
        <time>2020-06-20T12:49:43.007Z</time>
      </trkpt>
      <trkpt lat="45.75225" lon="3.2424">
        <ele>355.78485107422</ele>
        <time>2020-06-20T12:49:57.544Z</time>
      </trkpt>
      <trkpt lat="45.75307" lon="3.24154">
        <ele>359.6598815918</ele>
        <time>2020-06-20T12:50:12.097Z</time>
      </trkpt>
      <trkpt lat="45.75307" lon="3.24154">
        <ele>359.66076660156</ele>
        <time>2020-06-20T12:50:26.650Z</time>
      </trkpt>
      <trkpt lat="45.75391" lon="3.24105">
        <ele>366.04141235352</ele>
        <time>2020-06-20T12:50:41.217Z</time>
      </trkpt>
      <trkpt lat="45.75433" lon="3.24084">
        <ele>371.28463745117</ele>
        <time>2020-06-20T12:50:55.792Z</time>
      </trkpt>
      <trkpt lat="45.75565" lon="3.23988">
        <ele>370.69738769531</ele>
        <time>2020-06-20T12:51:10.390Z</time>
      </trkpt>
      <trkpt lat="45.75565" lon="3.23988">
        <ele>370.69747924805</ele>
        <time>2020-06-20T12:51:24.988Z</time>
      </trkpt>
      <trkpt lat="45.75628" lon="3.23951">
        <ele>366.84826660156</ele>
        <time>2020-06-20T12:51:39.597Z</time>
      </trkpt>
      <trkpt lat="45.75695" lon="3.23863">
        <ele>358.7473449707</ele>
        <time>2020-06-20T12:51:54.221Z</time>
      </trkpt>
      <trkpt lat="45.75711" lon="3.23853">
        <ele>357.78189086914</ele>
        <time>2020-06-20T12:52:08.848Z</time>
      </trkpt>
      <trkpt lat="45.7589" lon="3.23804">
        <ele>349.34817504883</ele>
        <time>2020-06-20T12:52:23.504Z</time>
      </trkpt>
      <trkpt lat="45.7589" lon="3.23804">
        <ele>349.34857177734</ele>
        <time>2020-06-20T12:52:38.160Z</time>
      </trkpt>
      <trkpt lat="45.75926" lon="3.2381">
        <ele>348.34454345703</ele>
        <time>2020-06-20T12:52:52.822Z</time>
      </trkpt>
      <trkpt lat="45.76004" lon="3.23866">
        <ele>351.64898681641</ele>
        <time>2020-06-20T12:53:07.498Z</time>
      </trkpt>
      <trkpt lat="45.76044" lon="3.23877">
        <ele>351.9836730957</ele>
        <time>2020-06-20T12:53:22.180Z</time>
      </trkpt>
      <trkpt lat="45.76147" lon="3.23816">
        <ele>345.33877563477</ele>
        <time>2020-06-20T12:53:36.880Z</time>
      </trkpt>
      <trkpt lat="45.76199" lon="3.23795">
        <ele>342.40838623047</ele>
        <time>2020-06-20T12:53:51.589Z</time>
      </trkpt>
      <trkpt lat="45.76213" lon="3.23794">
        <ele>341.66137695312</ele>
        <time>2020-06-20T12:54:06.300Z</time>
      </trkpt>
      <trkpt lat="45.76232" lon="3.23795">
        <ele>341.24227905273</ele>
        <time>2020-06-20T12:54:21.014Z</time>
      </trkpt>
      <trkpt lat="45.76358" lon="3.23855">
        <ele>342.75790405273</ele>
        <time>2020-06-20T12:54:35.749Z</time>
      </trkpt>
      <trkpt lat="45.76358" lon="3.23855">
        <ele>342.75820922852</ele>
        <time>2020-06-20T12:54:50.484Z</time>
      </trkpt>
      <trkpt lat="45.76375" lon="3.2386">
        <ele>342.44897460938</ele>
        <time>2020-06-20T12:55:05.222Z</time>
      </trkpt>
      <trkpt lat="45.76427" lon="3.23864">
        <ele>341.0595703125</ele>
        <time>2020-06-20T12:55:19.968Z</time>
      </trkpt>
      <trkpt lat="45.76517" lon="3.23846">
        <ele>335.44778442383</ele>
        <time>2020-06-20T12:55:34.729Z</time>
      </trkpt>
      <trkpt lat="45.76549" lon="3.23831">
        <ele>333.61990356445</ele>
        <time>2020-06-20T12:55:49.495Z</time>
      </trkpt>
      <trkpt lat="45.76559" lon="3.23825">
        <ele>332.98916625977</ele>
        <time>2020-06-20T12:56:04.263Z</time>
      </trkpt>
      <trkpt lat="45.76567" lon="3.23835">
        <ele>333.81307983398</ele>
        <time>2020-06-20T12:56:19.033Z</time>
      </trkpt>
      <trkpt lat="45.76577" lon="3.23848">
        <ele>334.98391723633</ele>
        <time>2020-06-20T12:56:33.805Z</time>
      </trkpt>
      <trkpt lat="45.76604" lon="3.2387">
        <ele>337.36544799805</ele>
        <time>2020-06-20T12:56:48.582Z</time>
      </trkpt>
      <trkpt lat="45.76657" lon="3.23905">
        <ele>340.40612792969</ele>
        <time>2020-06-20T12:57:03.368Z</time>
      </trkpt>
      <trkpt lat="45.76682" lon="3.23921">
        <ele>341.41018676758</ele>
        <time>2020-06-20T12:57:18.158Z</time>
      </trkpt>
      <trkpt lat="45.76699" lon="3.23933">
        <ele>342.50537109375</ele>
        <time>2020-06-20T12:57:32.951Z</time>
      </trkpt>
      <trkpt lat="45.76881" lon="3.24046">
        <ele>347.06341552734</ele>
        <time>2020-06-20T12:57:47.776Z</time>
      </trkpt>
      <trkpt lat="45.76881" lon="3.24046">
        <ele>347.0625</ele>
        <time>2020-06-20T12:58:02.601Z</time>
      </trkpt>
      <trkpt lat="45.76912" lon="3.24065">
        <ele>347.12255859375</ele>
        <time>2020-06-20T12:58:17.432Z</time>
      </trkpt>
      <trkpt lat="45.76915" lon="3.24067">
        <ele>347.18692016602</ele>
        <time>2020-06-20T12:58:32.263Z</time>
      </trkpt>
      <trkpt lat="45.76917" lon="3.24069">
        <ele>347.34136962891</ele>
        <time>2020-06-20T12:58:47.095Z</time>
      </trkpt>
      <trkpt lat="45.76922" lon="3.24072">
        <ele>347.4836730957</ele>
        <time>2020-06-20T12:59:01.927Z</time>
      </trkpt>
      <trkpt lat="45.76922" lon="3.24072">
        <ele>347.48297119141</ele>
        <time>2020-06-20T12:59:16.759Z</time>
      </trkpt>
      <trkpt lat="45.76997" lon="3.24117">
        <ele>349.56506347656</ele>
        <time>2020-06-20T12:59:31.604Z</time>
      </trkpt>
      <trkpt lat="45.77014" lon="3.2412">
        <ele>349.95123291016</ele>
        <time>2020-06-20T12:59:46.452Z</time>
      </trkpt>
      <trkpt lat="45.77051" lon="3.2411">
        <ele>348.66400146484</ele>
        <time>2020-06-20T13:00:01.306Z</time>
      </trkpt>
      <trkpt lat="45.77079" lon="3.24082">
        <ele>347.25888061523</ele>
        <time>2020-06-20T13:00:16.166Z</time>
      </trkpt>
      <trkpt lat="45.77107" lon="3.24048">
        <ele>344.49002075195</ele>
        <time>2020-06-20T13:00:31.032Z</time>
      </trkpt>
      <trkpt lat="45.77118" lon="3.24032">
        <ele>341.59371948242</ele>
        <time>2020-06-20T13:00:45.900Z</time>
      </trkpt>
      <trkpt lat="45.77156" lon="3.23999">
        <ele>335.70468139648</ele>
        <time>2020-06-20T13:01:00.775Z</time>
      </trkpt>
      <trkpt lat="45.7721" lon="3.23986">
        <ele>332.87310791016</ele>
        <time>2020-06-20T13:01:15.659Z</time>
      </trkpt>
      <trkpt lat="45.7732" lon="3.23991">
        <ele>323.38568115234</ele>
        <time>2020-06-20T13:01:30.560Z</time>
      </trkpt>
      <trkpt lat="45.77367" lon="3.24016">
        <ele>322.10842895508</ele>
        <time>2020-06-20T13:01:45.470Z</time>
      </trkpt>
      <trkpt lat="45.77402" lon="3.24052">
        <ele>321.2568359375</ele>
        <time>2020-06-20T13:02:00.386Z</time>
      </trkpt>
      <trkpt lat="45.77418" lon="3.2407">
        <ele>320.47280883789</ele>
        <time>2020-06-20T13:02:15.306Z</time>
      </trkpt>
      <trkpt lat="45.77438" lon="3.24127">
        <ele>320.23388671875</ele>
        <time>2020-06-20T13:02:30.233Z</time>
      </trkpt>
      <trkpt lat="45.77549" lon="3.24425">
        <ele>327.47308349609</ele>
        <time>2020-06-20T13:02:45.198Z</time>
      </trkpt>
      <trkpt lat="45.77639" lon="3.2463">
        <ele>332.50714111328</ele>
        <time>2020-06-20T13:03:00.190Z</time>
      </trkpt>
      <trkpt lat="45.77639" lon="3.2463">
        <ele>332.50592041016</ele>
        <time>2020-06-20T13:03:15.182Z</time>
      </trkpt>
      <trkpt lat="45.77681" lon="3.24693">
        <ele>334.67022705078</ele>
        <time>2020-06-20T13:03:30.184Z</time>
      </trkpt>
      <trkpt lat="45.77832" lon="3.24783">
        <ele>334.59643554688</ele>
        <time>2020-06-20T13:03:45.212Z</time>
      </trkpt>
      <trkpt lat="45.77898" lon="3.2485">
        <ele>335.51797485352</ele>
        <time>2020-06-20T13:04:00.253Z</time>
      </trkpt>
      <trkpt lat="45.77936" lon="3.2487">
        <ele>333.98684692383</ele>
        <time>2020-06-20T13:04:15.300Z</time>
      </trkpt>
      <trkpt lat="45.77989" lon="3.2488">
        <ele>331.65045166016</ele>
        <time>2020-06-20T13:04:30.356Z</time>
      </trkpt>
      <trkpt lat="45.78029" lon="3.24871">
        <ele>329.68981933594</ele>
        <time>2020-06-20T13:04:45.418Z</time>
      </trkpt>
      <trkpt lat="45.7811" lon="3.24828">
        <ele>326.57348632812</ele>
        <time>2020-06-20T13:05:00.494Z</time>
      </trkpt>
      <trkpt lat="45.7813" lon="3.24819">
        <ele>326.34176635742</ele>
        <time>2020-06-20T13:05:15.573Z</time>
      </trkpt>
      <trkpt lat="45.78186" lon="3.24807">
        <ele>327.12084960938</ele>
        <time>2020-06-20T13:05:30.662Z</time>
      </trkpt>
      <trkpt lat="45.7825" lon="3.24826">
        <ele>330.88681030273</ele>
        <time>2020-06-20T13:05:45.761Z</time>
      </trkpt>
      <trkpt lat="45.78356" lon="3.24923">
        <ele>331.77261352539</ele>
        <time>2020-06-20T13:06:00.880Z</time>
      </trkpt>
      <trkpt lat="45.78412" lon="3.24987">
        <ele>332.39215087891</ele>
        <time>2020-06-20T13:06:16.011Z</time>
      </trkpt>
      <trkpt lat="45.78445" lon="3.2504">
        <ele>333.98046875</ele>
        <time>2020-06-20T13:06:31.149Z</time>
      </trkpt>
      <trkpt lat="45.78536" lon="3.25229">
        <ele>334.44744873047</ele>
        <time>2020-06-20T13:06:46.313Z</time>
      </trkpt>
      <trkpt lat="45.78536" lon="3.25229">
        <ele>334.447265625</ele>
        <time>2020-06-20T13:07:01.477Z</time>
      </trkpt>
      <trkpt lat="45.7854" lon="3.25241">
        <ele>334.34448242188</ele>
        <time>2020-06-20T13:07:16.643Z</time>
      </trkpt>
      <trkpt lat="45.78546" lon="3.25284">
        <ele>334.73922729492</ele>
        <time>2020-06-20T13:07:31.814Z</time>
      </trkpt>
      <trkpt lat="45.78542" lon="3.25297">
        <ele>335.15097045898</ele>
        <time>2020-06-20T13:07:46.986Z</time>
      </trkpt>
      <trkpt lat="45.78547" lon="3.25318">
        <ele>335.51138305664</ele>
        <time>2020-06-20T13:08:02.161Z</time>
      </trkpt>
      <trkpt lat="45.78553" lon="3.25323">
        <ele>335.48583984375</ele>
        <time>2020-06-20T13:08:17.337Z</time>
      </trkpt>
      <trkpt lat="45.78566" lon="3.2532">
        <ele>334.82626342773</ele>
        <time>2020-06-20T13:08:32.515Z</time>
      </trkpt>
      <trkpt lat="45.78571" lon="3.25313">
        <ele>334.46585083008</ele>
        <time>2020-06-20T13:08:47.694Z</time>
      </trkpt>
      <trkpt lat="45.78593" lon="3.25298">
        <ele>333.08297729492</ele>
        <time>2020-06-20T13:09:02.877Z</time>
      </trkpt>
      <trkpt lat="45.78596" lon="3.25297">
        <ele>333.00555419922</ele>
        <time>2020-06-20T13:09:18.060Z</time>
      </trkpt>
      <trkpt lat="45.7862" lon="3.25306">
        <ele>332.43914794922</ele>
        <time>2020-06-20T13:09:33.247Z</time>
      </trkpt>
      <trkpt lat="45.78823" lon="3.25439">
        <ele>325.88461303711</ele>
        <time>2020-06-20T13:09:48.470Z</time>
      </trkpt>
      <trkpt lat="45.78853" lon="3.25459">
        <ele>325.64004516602</ele>
        <time>2020-06-20T13:10:03.698Z</time>
      </trkpt>
      <trkpt lat="45.78865" lon="3.25467">
        <ele>325.54992675781</ele>
        <time>2020-06-20T13:10:18.928Z</time>
      </trkpt>
      <trkpt lat="45.78889" lon="3.25483">
        <ele>325.35684204102</ele>
        <time>2020-06-20T13:10:34.163Z</time>
      </trkpt>
      <trkpt lat="45.78991" lon="3.25531">
        <ele>324.98822021484</ele>
        <time>2020-06-20T13:10:49.415Z</time>
      </trkpt>
      <trkpt lat="45.78991" lon="3.25531">
        <ele>324.98812866211</ele>
        <time>2020-06-20T13:11:04.667Z</time>
      </trkpt>
      <trkpt lat="45.7904" lon="3.25548">
        <ele>324.60205078125</ele>
        <time>2020-06-20T13:11:19.927Z</time>
      </trkpt>
      <trkpt lat="45.79165" lon="3.2557">
        <ele>322.04141235352</ele>
        <time>2020-06-20T13:11:35.207Z</time>
      </trkpt>
      <trkpt lat="45.79268" lon="3.25617">
        <ele>318.33413696289</ele>
        <time>2020-06-20T13:11:50.504Z</time>
      </trkpt>
      <trkpt lat="45.79268" lon="3.25617">
        <ele>318.33383178711</ele>
        <time>2020-06-20T13:12:05.801Z</time>
      </trkpt>
      <trkpt lat="45.79305" lon="3.25634">
        <ele>316.99407958984</ele>
        <time>2020-06-20T13:12:21.105Z</time>
      </trkpt>
      <trkpt lat="45.79322" lon="3.25643">
        <ele>316.80099487305</ele>
        <time>2020-06-20T13:12:36.412Z</time>
      </trkpt>
      <trkpt lat="45.79411" lon="3.2569">
        <ele>315.3376159668</ele>
        <time>2020-06-20T13:12:51.734Z</time>
      </trkpt>
      <trkpt lat="45.79431" lon="3.25721">
        <ele>314.47537231445</ele>
        <time>2020-06-20T13:13:07.061Z</time>
      </trkpt>
      <trkpt lat="45.79456" lon="3.25787">
        <ele>313.669921875</ele>
        <time>2020-06-20T13:13:22.396Z</time>
      </trkpt>
      <trkpt lat="45.79457" lon="3.25791">
        <ele>313.69586181641</ele>
        <time>2020-06-20T13:13:37.731Z</time>
      </trkpt>
      <trkpt lat="45.79465" lon="3.25814">
        <ele>313.77310180664</ele>
        <time>2020-06-20T13:13:53.069Z</time>
      </trkpt>
      <trkpt lat="45.79484" lon="3.25829">
        <ele>312.65975952148</ele>
        <time>2020-06-20T13:14:08.411Z</time>
      </trkpt>
      <trkpt lat="45.79481" lon="3.25837">
        <ele>312.95501708984</ele>
        <time>2020-06-20T13:14:23.754Z</time>
      </trkpt>
      <trkpt lat="45.79546" lon="3.25836">
        <ele>306.79736328125</ele>
        <time>2020-06-20T13:14:39.107Z</time>
      </trkpt>
      <trkpt lat="45.79721" lon="3.25844">
        <ele>315.92538452148</ele>
        <time>2020-06-20T13:14:54.488Z</time>
      </trkpt>
      <trkpt lat="45.79721" lon="3.25844">
        <ele>315.92477416992</ele>
        <time>2020-06-20T13:15:09.869Z</time>
      </trkpt>
      <trkpt lat="45.79729" lon="3.25844">
        <ele>316.45220947266</ele>
        <time>2020-06-20T13:15:25.251Z</time>
      </trkpt>
      <trkpt lat="45.79738" lon="3.2585">
        <ele>316.83102416992</ele>
        <time>2020-06-20T13:15:40.635Z</time>
      </trkpt>
      <trkpt lat="45.79751" lon="3.25851">
        <ele>317.56475830078</ele>
        <time>2020-06-20T13:15:56.021Z</time>
      </trkpt>
      <trkpt lat="45.79826" lon="3.25856">
        <ele>320.50540161133</ele>
        <time>2020-06-20T13:16:11.419Z</time>
      </trkpt>
      <trkpt lat="45.79837" lon="3.25863">
        <ele>320.22232055664</ele>
        <time>2020-06-20T13:16:26.819Z</time>
      </trkpt>
      <trkpt lat="45.79845" lon="3.25872">
        <ele>319.88763427734</ele>
        <time>2020-06-20T13:16:42.220Z</time>
      </trkpt>
      <trkpt lat="45.79859" lon="3.25869">
        <ele>319.79751586914</ele>
        <time>2020-06-20T13:16:57.624Z</time>
      </trkpt>
      <trkpt lat="45.79866" lon="3.25859">
        <ele>319.95199584961</ele>
        <time>2020-06-20T13:17:13.029Z</time>
      </trkpt>
      <trkpt lat="45.79876" lon="3.25854">
        <ele>319.95190429688</ele>
        <time>2020-06-20T13:17:28.436Z</time>
      </trkpt>
      <trkpt lat="45.79884" lon="3.25851">
        <ele>319.93911743164</ele>
        <time>2020-06-20T13:17:43.844Z</time>
      </trkpt>
      <trkpt lat="45.79902" lon="3.25855">
        <ele>319.83334350586</ele>
        <time>2020-06-20T13:17:59.255Z</time>
      </trkpt>
      <trkpt lat="45.79921" lon="3.2587">
        <ele>319.52429199219</ele>
        <time>2020-06-20T13:18:14.670Z</time>
      </trkpt>
      <trkpt lat="45.80052" lon="3.26064">
        <ele>315.37997436523</ele>
        <time>2020-06-20T13:18:30.115Z</time>
      </trkpt>
      <trkpt lat="45.80115" lon="3.26153">
        <ele>314.27536010742</ele>
        <time>2020-06-20T13:18:45.574Z</time>
      </trkpt>
      <trkpt lat="45.80155" lon="3.26182">
        <ele>313.26873779297</ele>
        <time>2020-06-20T13:19:01.040Z</time>
      </trkpt>
      <trkpt lat="45.80231" lon="3.26223">
        <ele>311.16513061523</ele>
        <time>2020-06-20T13:19:16.519Z</time>
      </trkpt>
      <trkpt lat="45.80297" lon="3.26256">
        <ele>312.74835205078</ele>
        <time>2020-06-20T13:19:32.009Z</time>
      </trkpt>
      <trkpt lat="45.80402" lon="3.26306">
        <ele>314.64526367188</ele>
        <time>2020-06-20T13:19:47.517Z</time>
      </trkpt>
      <trkpt lat="45.80473" lon="3.26332">
        <ele>314.79177856445</ele>
        <time>2020-06-20T13:20:03.037Z</time>
      </trkpt>
      <trkpt lat="45.805" lon="3.26339">
        <ele>313.91647338867</ele>
        <time>2020-06-20T13:20:18.561Z</time>
      </trkpt>
      <trkpt lat="45.80634" lon="3.2638">
        <ele>308.63641357422</ele>
        <time>2020-06-20T13:20:34.107Z</time>
      </trkpt>
      <trkpt lat="45.80708" lon="3.26382">
        <ele>308.43026733398</ele>
        <time>2020-06-20T13:20:49.665Z</time>
      </trkpt>
      <trkpt lat="45.80853" lon="3.26377">
        <ele>310.23352050781</ele>
        <time>2020-06-20T13:21:05.246Z</time>
      </trkpt>
      <trkpt lat="45.8093" lon="3.26364">
        <ele>310.28329467773</ele>
        <time>2020-06-20T13:21:20.840Z</time>
      </trkpt>
      <trkpt lat="45.80994" lon="3.26329">
        <ele>310.33197021484</ele>
        <time>2020-06-20T13:21:36.445Z</time>
      </trkpt>
      <trkpt lat="45.81053" lon="3.26312">
        <ele>309.59356689453</ele>
        <time>2020-06-20T13:21:52.059Z</time>
      </trkpt>
      <trkpt lat="45.81096" lon="3.2631">
        <ele>310.54772949219</ele>
        <time>2020-06-20T13:22:07.680Z</time>
      </trkpt>
      <trkpt lat="45.81145" lon="3.26327">
        <ele>311.62963867188</ele>
        <time>2020-06-20T13:22:23.309Z</time>
      </trkpt>
      <trkpt lat="45.81253" lon="3.26391">
        <ele>311.93350219727</ele>
        <time>2020-06-20T13:22:38.957Z</time>
      </trkpt>
      <trkpt lat="45.81409" lon="3.26441">
        <ele>308.64627075195</ele>
        <time>2020-06-20T13:22:54.631Z</time>
      </trkpt>
      <trkpt lat="45.8141" lon="3.26441">
        <ele>308.63961791992</ele>
        <time>2020-06-20T13:23:10.305Z</time>
      </trkpt>
      <trkpt lat="45.8141" lon="3.26441">
        <ele>308.63931274414</ele>
        <time>2020-06-20T13:23:25.979Z</time>
      </trkpt>
      <trkpt lat="45.81445" lon="3.26453">
        <ele>307.93283081055</ele>
        <time>2020-06-20T13:23:41.658Z</time>
      </trkpt>
      <trkpt lat="45.81589" lon="3.26437">
        <ele>312.39266967773</ele>
        <time>2020-06-20T13:23:57.360Z</time>
      </trkpt>
      <trkpt lat="45.81614" lon="3.26424">
        <ele>312.796875</ele>
        <time>2020-06-20T13:24:13.067Z</time>
      </trkpt>
      <trkpt lat="45.81634" lon="3.26398">
        <ele>312.81716918945</ele>
        <time>2020-06-20T13:24:28.778Z</time>
      </trkpt>
      <trkpt lat="45.81639" lon="3.26366">
        <ele>312.986328125</ele>
        <time>2020-06-20T13:24:44.493Z</time>
      </trkpt>
      <trkpt lat="45.81637" lon="3.26259">
        <ele>313.02774047852</ele>
        <time>2020-06-20T13:25:00.220Z</time>
      </trkpt>
      <trkpt lat="45.81697" lon="3.25951">
        <ele>317.55700683594</ele>
        <time>2020-06-20T13:25:15.983Z</time>
      </trkpt>
      <trkpt lat="45.81707" lon="3.25871">
        <ele>316.48849487305</ele>
        <time>2020-06-20T13:25:31.755Z</time>
      </trkpt>
      <trkpt lat="45.81713" lon="3.25779">
        <ele>316.69567871094</ele>
        <time>2020-06-20T13:25:47.537Z</time>
      </trkpt>
      <trkpt lat="45.81721" lon="3.2573">
        <ele>317.3596496582</ele>
        <time>2020-06-20T13:26:03.325Z</time>
      </trkpt>
      <trkpt lat="45.81733" lon="3.25696">
        <ele>317.79522705078</ele>
        <time>2020-06-20T13:26:19.117Z</time>
      </trkpt>
      <trkpt lat="45.81737" lon="3.25695">
        <ele>317.80810546875</ele>
        <time>2020-06-20T13:26:34.909Z</time>
      </trkpt>
      <trkpt lat="45.81745" lon="3.25686">
        <ele>317.92395019531</ele>
        <time>2020-06-20T13:26:50.703Z</time>
      </trkpt>
      <trkpt lat="45.81748" lon="3.25679">
        <ele>318</ele>
        <time>2020-06-20T13:27:06.498Z</time>
      </trkpt>
      <trkpt lat="45.81768" lon="3.25666">
        <ele>318</ele>
        <time>2020-06-20T13:27:22.296Z</time>
      </trkpt>
      <trkpt lat="45.81797" lon="3.25671">
        <ele>318</ele>
        <time>2020-06-20T13:27:38.099Z</time>
      </trkpt>
      <trkpt lat="45.81842" lon="3.25687">
        <ele>317.83041381836</ele>
        <time>2020-06-20T13:27:53.910Z</time>
      </trkpt>
      <trkpt lat="45.81901" lon="3.25724">
        <ele>318.9069519043</ele>
        <time>2020-06-20T13:28:09.731Z</time>
      </trkpt>
      <trkpt lat="45.82292" lon="3.2599">
        <ele>318.51644897461</ele>
        <time>2020-06-20T13:28:25.621Z</time>
      </trkpt>
      <trkpt lat="45.82352" lon="3.26046">
        <ele>317.48724365234</ele>
        <time>2020-06-20T13:28:41.523Z</time>
      </trkpt>
      <trkpt lat="45.82399" lon="3.26116">
        <ele>316.40344238281</ele>
        <time>2020-06-20T13:28:57.435Z</time>
      </trkpt>
      <trkpt lat="45.82481" lon="3.26341">
        <ele>312.39324951172</ele>
        <time>2020-06-20T13:29:13.376Z</time>
      </trkpt>
      <trkpt lat="45.8251" lon="3.26393">
        <ele>312.55899047852</ele>
        <time>2020-06-20T13:29:29.324Z</time>
      </trkpt>
      <trkpt lat="45.82548" lon="3.26435">
        <ele>313.06100463867</ele>
        <time>2020-06-20T13:29:45.280Z</time>
      </trkpt>
      <trkpt lat="45.82585" lon="3.2646">
        <ele>313.36996459961</ele>
        <time>2020-06-20T13:30:01.243Z</time>
      </trkpt>
      <trkpt lat="45.82585" lon="3.2646">
        <ele>313.36996459961</ele>
        <time>2020-06-20T13:30:17.206Z</time>
      </trkpt>
      <trkpt lat="45.8259" lon="3.26464">
        <ele>313.40856933594</ele>
        <time>2020-06-20T13:30:33.169Z</time>
      </trkpt>
      <trkpt lat="45.82722" lon="3.26523">
        <ele>312.13290405273</ele>
        <time>2020-06-20T13:30:49.155Z</time>
      </trkpt>
      <trkpt lat="45.82757" lon="3.26539">
        <ele>312.72625732422</ele>
        <time>2020-06-20T13:31:05.146Z</time>
      </trkpt>
      <trkpt lat="45.82858" lon="3.26593">
        <ele>312.71307373047</ele>
        <time>2020-06-20T13:31:21.155Z</time>
      </trkpt>
      <trkpt lat="45.82919" lon="3.26637">
        <ele>312.49389648438</ele>
        <time>2020-06-20T13:31:37.175Z</time>
      </trkpt>
      <trkpt lat="45.82919" lon="3.26637">
        <ele>312.49389648438</ele>
        <time>2020-06-20T13:31:53.195Z</time>
      </trkpt>
      <trkpt lat="45.82975" lon="3.26682">
        <ele>313.03454589844</ele>
        <time>2020-06-20T13:32:09.225Z</time>
      </trkpt>
      <trkpt lat="45.83066" lon="3.26756">
        <ele>313.82968139648</ele>
        <time>2020-06-20T13:32:25.272Z</time>
      </trkpt>
      <trkpt lat="45.83153" lon="3.2681">
        <ele>312</ele>
        <time>2020-06-20T13:32:41.334Z</time>
      </trkpt>
      <trkpt lat="45.83153" lon="3.2681">
        <ele>312</ele>
        <time>2020-06-20T13:32:57.396Z</time>
      </trkpt>
      <trkpt lat="45.8316" lon="3.26815">
        <ele>312</ele>
        <time>2020-06-20T13:33:13.459Z</time>
      </trkpt>
      <trkpt lat="45.83285" lon="3.26871">
        <ele>313.79983520508</ele>
        <time>2020-06-20T13:33:29.543Z</time>
      </trkpt>
      <trkpt lat="45.83371" lon="3.26913">
        <ele>314.80212402344</ele>
        <time>2020-06-20T13:33:45.642Z</time>
      </trkpt>
      <trkpt lat="45.8347" lon="3.26963">
        <ele>312.63925170898</ele>
        <time>2020-06-20T13:34:01.758Z</time>
      </trkpt>
      <trkpt lat="45.83525" lon="3.26991">
        <ele>312.89147949219</ele>
        <time>2020-06-20T13:34:17.883Z</time>
      </trkpt>
      <trkpt lat="45.83607" lon="3.27012">
        <ele>311.16549682617</ele>
        <time>2020-06-20T13:34:34.021Z</time>
      </trkpt>
      <trkpt lat="45.83671" lon="3.27009">
        <ele>308.95288085938</ele>
        <time>2020-06-20T13:34:50.169Z</time>
      </trkpt>
      <trkpt lat="45.83671" lon="3.27009">
        <ele>308.95257568359</ele>
        <time>2020-06-20T13:35:06.317Z</time>
      </trkpt>
      <trkpt lat="45.83802" lon="3.27005">
        <ele>309.99942016602</ele>
        <time>2020-06-20T13:35:22.486Z</time>
      </trkpt>
      <trkpt lat="45.83892" lon="3.27026">
        <ele>312.49206542969</ele>
        <time>2020-06-20T13:35:38.670Z</time>
      </trkpt>
      <trkpt lat="45.8391" lon="3.27036">
        <ele>312.63366699219</ele>
        <time>2020-06-20T13:35:54.857Z</time>
      </trkpt>
      <trkpt lat="45.8396" lon="3.27097">
        <ele>311.53964233398</ele>
        <time>2020-06-20T13:36:11.054Z</time>
      </trkpt>
      <trkpt lat="45.84011" lon="3.27157">
        <ele>312</ele>
        <time>2020-06-20T13:36:27.262Z</time>
      </trkpt>
      <trkpt lat="45.84088" lon="3.27224">
        <ele>312.9264831543</ele>
        <time>2020-06-20T13:36:43.485Z</time>
      </trkpt>
      <trkpt lat="45.8427" lon="3.27381">
        <ele>314.74200439453</ele>
        <time>2020-06-20T13:36:59.742Z</time>
      </trkpt>
      <trkpt lat="45.84365" lon="3.27482">
        <ele>317.84973144531</ele>
        <time>2020-06-20T13:37:16.018Z</time>
      </trkpt>
      <trkpt lat="45.84431" lon="3.2756">
        <ele>321.22106933594</ele>
        <time>2020-06-20T13:37:32.307Z</time>
      </trkpt>
      <trkpt lat="45.84439" lon="3.27583">
        <ele>321.06661987305</ele>
        <time>2020-06-20T13:37:48.599Z</time>
      </trkpt>
      <trkpt lat="45.84439" lon="3.27583">
        <ele>321.06750488281</ele>
        <time>2020-06-20T13:38:04.891Z</time>
      </trkpt>
      <trkpt lat="45.8446" lon="3.27638">
        <ele>322.10205078125</ele>
        <time>2020-06-20T13:38:21.190Z</time>
      </trkpt>
      <trkpt lat="45.84564" lon="3.27991">
        <ele>318.86767578125</ele>
        <time>2020-06-20T13:38:37.532Z</time>
      </trkpt>
      <trkpt lat="45.84588" lon="3.28039">
        <ele>317.81213378906</ele>
        <time>2020-06-20T13:38:53.881Z</time>
      </trkpt>
      <trkpt lat="45.84785" lon="3.28243">
        <ele>313.34313964844</ele>
        <time>2020-06-20T13:39:10.268Z</time>
      </trkpt>
      <trkpt lat="45.84846" lon="3.28307">
        <ele>311.77606201172</ele>
        <time>2020-06-20T13:39:26.668Z</time>
      </trkpt>
      <trkpt lat="45.84865" lon="3.28317">
        <ele>311.81307983398</ele>
        <time>2020-06-20T13:39:43.071Z</time>
      </trkpt>
      <trkpt lat="45.84914" lon="3.28335">
        <ele>311.87048339844</ele>
        <time>2020-06-20T13:39:59.482Z</time>
      </trkpt>
      <trkpt lat="45.85026" lon="3.28356">
        <ele>312.58999633789</ele>
        <time>2020-06-20T13:40:15.911Z</time>
      </trkpt>
      <trkpt lat="45.8511" lon="3.28405">
        <ele>309.75369262695</ele>
        <time>2020-06-20T13:40:32.354Z</time>
      </trkpt>
      <trkpt lat="45.85152" lon="3.28448">
        <ele>308.14614868164</ele>
        <time>2020-06-20T13:40:48.806Z</time>
      </trkpt>
      <trkpt lat="45.85185" lon="3.28494">
        <ele>308.63528442383</ele>
        <time>2020-06-20T13:41:05.265Z</time>
      </trkpt>
      <trkpt lat="45.85275" lon="3.28643">
        <ele>308.62826538086</ele>
        <time>2020-06-20T13:41:21.746Z</time>
      </trkpt>
      <trkpt lat="45.85491" lon="3.28998">
        <ele>309.18667602539</ele>
        <time>2020-06-20T13:41:38.280Z</time>
      </trkpt>
      <trkpt lat="45.8559" lon="3.29276">
        <ele>306.3835144043</ele>
        <time>2020-06-20T13:41:54.849Z</time>
      </trkpt>
      <trkpt lat="45.8564" lon="3.29391">
        <ele>305.01443481445</ele>
        <time>2020-06-20T13:42:11.433Z</time>
      </trkpt>
      <trkpt lat="45.8564" lon="3.29391">
        <ele>305.01473999023</ele>
        <time>2020-06-20T13:42:28.017Z</time>
      </trkpt>
      <trkpt lat="45.8573" lon="3.2968">
        <ele>306.17260742188</ele>
        <time>2020-06-20T13:42:44.636Z</time>
      </trkpt>
      <trkpt lat="45.85777" lon="3.29774">
        <ele>307.12945556641</ele>
        <time>2020-06-20T13:43:01.268Z</time>
      </trkpt>
      <trkpt lat="45.85821" lon="3.29912">
        <ele>306.79940795898</ele>
        <time>2020-06-20T13:43:17.917Z</time>
      </trkpt>
      <trkpt lat="45.85838" lon="3.29949">
        <ele>306.54125976562</ele>
        <time>2020-06-20T13:43:34.571Z</time>
      </trkpt>
      <trkpt lat="45.85839" lon="3.2995">
        <ele>306.55419921875</ele>
        <time>2020-06-20T13:43:51.225Z</time>
      </trkpt>
      <trkpt lat="45.8584" lon="3.29951">
        <ele>306.55673217773</ele>
        <time>2020-06-20T13:44:07.879Z</time>
      </trkpt>
      <trkpt lat="45.85881" lon="3.29992">
        <ele>307.05633544922</ele>
        <time>2020-06-20T13:44:24.541Z</time>
      </trkpt>
      <trkpt lat="45.85929" lon="3.30029">
        <ele>307.29663085938</ele>
        <time>2020-06-20T13:44:41.212Z</time>
      </trkpt>
      <trkpt lat="45.85988" lon="3.29891">
        <ele>311.1452331543</ele>
        <time>2020-06-20T13:44:57.901Z</time>
      </trkpt>
      <trkpt lat="45.86044" lon="3.29732">
        <ele>318.0973815918</ele>
        <time>2020-06-20T13:45:14.610Z</time>
      </trkpt>
      <trkpt lat="45.8605" lon="3.29695">
        <ele>318.66375732422</ele>
        <time>2020-06-20T13:45:31.323Z</time>
      </trkpt>
      <trkpt lat="45.8605" lon="3.2965">
        <ele>319.36022949219</ele>
        <time>2020-06-20T13:45:48.041Z</time>
      </trkpt>
      <trkpt lat="45.86037" lon="3.29483">
        <ele>319</ele>
        <time>2020-06-20T13:46:04.778Z</time>
      </trkpt>
      <trkpt lat="45.86015" lon="3.29181">
        <ele>319.98550415039</ele>
        <time>2020-06-20T13:46:21.549Z</time>
      </trkpt>
      <trkpt lat="45.86097" lon="3.29265">
        <ele>318.97540283203</ele>
        <time>2020-06-20T13:46:38.336Z</time>
      </trkpt>
    </trkseg>
  </trk>
</gpx>